[[{"header":{"parameterUnit":"m.s-1","parameterCategory":1,"la1":31.0,"la2":29.5877,"lo1":-88.7671,"lo2":-86.6584,"dy":0.0162,"dx":0.0185,"nx":115,"ny":88,"refTime":"2025-01-25T06:00:00:Z","depth":0,"parameterNumber":2,"parameterNumberName":"U-component_of_WINDS"},"data":[0.0,0.0,0.0,0.0,0.0,0.0,0.0,0.0,0.0,0.0,0.0,0.0,0.0,0.0,0.0,0.0,0.0,0.0,0.0,0.0,0.0,0.0,0.0,0.0,0.0,0.0,0.0,0.0,0.0,0.0,0.0,0.0,0.0,0.0,0.0,0.0,0.0,0.0,0.0,0.0,0.0,0.0,0.0,0.0,0.0,0.0,0.0,0.0,0.0,0.0,0.0,0.0,0.0,0.0,0.0,0.0,0.0,0.0,0.0,0.0,0.0,0.0,0.0,0.0,0.0,0.0,0.0,0.0,0.0,0.0,0.0,0.0,0.0,0.0,0.0,0.0,0.0,0.0,0.0,0.0,0.0,0.0,0.0,0.0,0.0,0.0,0.0,0.0,0.0,0.0,0.0,0.0,0.0,0.0,0.0,0.0,0.0,0.0,0.0,0.0,0.0,0.0,0.0,0.0,0.0,0.0,0.0,0.0,0.0,0.0,0.0,0.0,0.0,0.0,0.0,0.0,0.0,0.0,0.0,0.0,0.0,0.0,0.0,0.0,0.0,0.0,0.0,0.0,0.0,0.0,0.0,0.0,0.0,0.0,0.0,0.0,0.0,0.0,0.0,0.0,0.0,0.0,0.0,0.0,0.0,0.0,0.0,0.0,0.0,0.0,0.0,0.0,0.0,0.0,0.0,0.0,0.0,0.0,0.0,0.0,0.0,0.0,0.0,0.0,0.0,0.0,0.0,0.0,0.0,0.0,0.0,0.0,0.0,0.0,0.0,0.0,0.0,0.0,0.0,0.0,0.0,0.0,0.0,0.0,0.0,0.0,0.0,0.0,0.0,0.0,0.0,0.0,0.0,0.0,0.0,0.0,0.0,0.0,0.0,0.0,0.0,0.0,0.0,0.0,0.0,0.0,0.0,0.0,0.0,0.0,0.0,0.0,0.0,0.0,0.0,0.0,0.0,0.0,0.0,0.0,0.0,0.0,0.0,0.0,0.0,0.0,0.0,0.0,0.0,0.0,0.0,0.0,0.0,0.0,0.0,0.0,0.0,0.0,0.0,0.0,0.0,0.0,0.0,0.0,0.0,0.0,0.0,0.0,0.0,0.0,0.0,0.0,0.0,0.0,0.0,0.0,0.0,0.0,0.0,0.0,0.0,0.0,0.0,0.0,0.0,0.0,0.0,0.0,0.0,0.0,0.0,0.0,0.0,0.0,0.0,0.0,0.0,0.0,0.0,0.0,0.0,0.0,0.0,0.0,0.0,0.0,0.0,0.0,0.0,0.0,0.0,0.0,0.0,0.0,0.0,0.0,0.0,0.0,0.0,0.0,0.0,0.0,0.0,0.0,0.0,0.0,0.0,0.0,0.0,0.0,0.0,0.0,0.0,0.0,0.0,0.0,0.0,0.0,0.0,0.0,0.0,0.0,0.0,0.0,0.0,0.0,0.0,0.0,0.0,0.0,0.0,0.0,0.0,0.0,0.0,0.0,0.0,0.0,0.0,0.0,0.0,0.0,0.0,0.0,0.0,0.0,0.0,0.0,0.0,0.0,0.0,0.0,0.0,0.0,0.0,0.0,0.0,0.0,0.0,0.0,0.0,0.0,0.0,0.0,0.0,0.0,0.0,0.0,0.0,0.0,0.0,0.0,0.0,0.0,0.0,0.0,0.0,0.0,0.0,0.0,0.0,0.0,0.0,0.0,0.0,0.0,0.0,0.0,0.0,0.0,0.0,0.0,0.0,0.0,0.0,0.0,0.0,0.0,0.0,0.0,0.0,0.0,0.0,0.0,0.0,0.0,0.0,0.0,0.0,0.0,0.0,0.0,0.0,0.0,0.0,0.0,0.0,0.0,0.0,0.0,0.0,0.0,0.0,0.0,0.0,0.0,0.0,0.0,0.0,0.0,0.0,0.0,0.0,0.0,0.0,0.0,0.0,0.0,0.0,0.0,0.0,0.0,0.0,0.0,0.0,0.0,0.0,0.0,0.0,0.0,0.0,0.0,0.0,0.0,0.0,0.0,0.0,0.0,0.0,0.0,0.0,0.0,0.0,0.0,0.0,0.0,0.0,0.0,0.0,0.0,0.0,0.0,0.0,0.0,0.0,0.0,0.0,0.0,0.0,0.0,0.0,0.0,0.0,0.0,0.0,0.0,0.0,0.0,0.0,0.0,0.0,0.0,0.0,0.0,0.0,0.0,0.0,0.0,0.0,0.0,0.0,0.0,0.0,0.0,0.0,0.0,0.0,0.0,0.0,0.0,0.0,0.0,0.0,0.0,0.0,0.0,0.0,0.0,0.0,0.0,0.0,0.0,0.0,0.0,0.0,0.0,0.0,0.0,0.0,0.0,0.0,0.0,0.0,0.0,0.0,0.0,0.0,0.0,0.0,0.0,0.0,0.0,0.0,0.0,0.0,0.0,0.0,0.0,0.0,0.0,0.0,0.0,0.0,0.0,0.0,0.0,0.0,0.0,0.0,0.0,0.0,0.0,0.0,0.0,0.0,0.0,0.0,0.0,0.0,0.0,0.0,0.0,0.0,0.0,0.0,0.0,0.0,0.0,0.0,0.0,0.0,0.0,0.0,0.0,0.0,0.0,0.0,0.0,0.0,0.0,0.0,0.0,0.0,0.0,0.0,0.0,0.0,0.0,0.0,0.0,0.0,0.0,0.0,0.0,0.0,0.0,0.0,0.0,0.0,0.0,0.0,0.0,0.0,0.0,0.0,0.0,0.0,0.0,0.0,0.0,0.0,0.0,0.0,0.0,0.0,0.0,0.0,0.0,0.0,0.0,0.0,0.0,0.0,0.0,0.0,0.0,0.0,0.0,0.0,0.0,0.0,0.0,0.0,0.0,0.0,0.0,0.0,0.0,0.0,0.0,0.0,0.0,0.0,0.0,0.0,0.0,0.0,0.0,0.0,0.0,0.0,0.0,0.0,0.0,0.0,0.0,0.0,0.0,0.0,0.0,0.0,0.0,0.0,0.0,0.0,0.0,0.0,0.0,0.0,0.0,0.0,0.0,0.0,0.0,0.0,0.0,0.0,0.0,0.0,0.0,0.0,0.0,0.0,0.0,0.0,0.0,0.0,0.0,0.0,0.0,0.0,0.0,0.0,0.0,0.0,0.0,0.0,0.0,0.0,0.0,0.0,0.0,0.0,0.0,0.0,0.0,0.0,0.0,0.0,0.0,0.0,0.0,0.0,0.0,0.0,0.0,0.0,0.0,0.0,0.0,0.0,0.0,0.0,0.0,0.0,0.0,0.0,0.0,0.0,0.0,0.0,0.0,0.0,0.0,0.0,0.0,0.0,0.0,0.0,0.0,0.0,0.0,0.0,0.0,0.0,0.0,0.0,0.0,0.0,0.0,0.0,0.0,0.0,0.0,0.0,0.0,0.0,0.0,0.0,0.0,0.0,0.0,0.0,0.0,0.0,0.0,0.0,0.0,0.0,0.0,0.0,0.0,0.0,0.0,0.0,0.0,0.0,0.0,0.0,0.0,0.0,0.0,0.0,0.0,0.0,0.0,0.0,0.0,0.0,0.0,0.0,0.0,0.0,0.0,0.0,0.0,0.0,0.0,0.0,0.0,0.0,0.0,0.0,0.0,0.0,0.0,0.0,0.0,0.0,0.0,0.0,0.0,0.0,0.0,0.0,0.0,0.0,0.0,0.0,0.0,0.0,0.0,0.0,0.0,0.0,0.0,0.0,0.0,0.0,0.0,0.0,0.0,0.0,0.0,0.0,0.0,0.0,0.0,0.0,0.0,0.0,0.0,0.0,0.0,0.0,0.0,0.0,0.0,0.0,0.0,0.0,0.0,0.0,0.0,0.0,0.0,0.0,0.0,0.0,0.0,0.0,0.0,0.0,0.0,0.0,0.0,0.0,0.0,0.0,0.0,0.0,0.0,0.0,0.0,0.0,0.0,0.0,0.0,0.0,0.0,0.0,0.0,0.0,0.0,0.0,0.0,0.0,0.0,0.0,0.0,0.0,0.0,0.0,0.0,0.0,0.0,0.0,0.0,0.0,0.0,0.0,0.0,0.0,0.0,0.0,0.0,0.0,0.0,0.0,0.0,0.0,0.0,0.0,0.0,0.0,0.0,0.0,0.0,0.0,0.0,0.0,0.0,0.0,0.0,0.0,0.0,0.0,0.0,0.0,0.0,0.0,0.0,0.0,0.0,0.0,0.0,0.0,0.0,0.0,0.0,0.0,0.0,0.0,0.0,0.0,0.0,0.0,0.0,0.0,0.0,0.0,0.0,0.0,0.0,0.0,0.0,0.8103,0.0,0.0,0.0,0.0,0.0,0.0,0.0,0.0,0.0,0.0,0.0,0.0,0.0,0.0,0.0,0.0,0.0,0.0,0.0,0.0,0.0,0.0,0.0,0.0,0.0,0.0,0.0,0.0,0.0,0.0,0.0,0.0,0.0,0.0,0.0,0.0,0.0,0.0,0.0,0.0,0.0,0.0,0.0,0.0,0.0,0.0,0.0,0.0,0.0,0.0,0.0,0.0,0.0,0.0,0.0,0.0,0.0,0.0,0.0,0.0,0.0,0.0,0.0,0.0,0.0,0.0,0.0,0.0,0.0,0.0,0.0,0.0,0.0,0.0,0.0,0.0,0.0,0.0,0.0,0.0,0.0,0.0,0.0,0.0,0.0,0.0,0.0,0.0,0.0,0.0,0.0,0.0,0.0,0.0,0.0,0.0,0.0,0.0,0.0,0.0,0.0,0.0,0.0,0.0,0.0,0.0,0.0,0.0,0.0,0.0,0.8917,0.89,0.8903,0.8581,0.7938,0.0,0.0,0.0,0.0,0.0,0.0,0.0,0.0,0.0,0.0,0.0,0.0,0.0,0.0,0.0,0.0,0.0,0.0,0.0,0.0,0.0,0.0,0.0,0.0,0.0,0.0,0.0,0.0,0.0,0.0,0.0,0.0,0.0,0.0,0.0,0.0,0.0,0.0,0.0,0.0,0.0,0.0,0.0,0.0,0.0,0.0,0.0,0.0,0.0,0.0,0.0,0.0,0.0,0.0,0.0,0.0,0.0,0.0,0.0,0.0,0.0,0.0,0.0,0.0,0.0,0.0,0.0,0.0,0.0,0.0,0.0,0.0,0.0,0.0,0.0,0.0,0.0,0.0,0.0,0.0,0.0,0.0,0.0,0.0,0.0,0.0,0.0,0.0,0.0,0.0,0.0,0.0,0.0,0.0,0.0,0.0,0.0,0.0,0.0,0.0,0.0,0.0,0.0,0.0,0.0,0.0,0.0,0.0,0.0,0.0,0.0,0.0,0.8987,0.849,0.7577,0.0,0.0,0.0,0.0,0.0,0.0,0.0,0.0,0.0,0.0,0.0,0.0,0.0,0.0,0.0,0.0,0.0,0.0,0.0,0.0,0.0,0.0,0.0,0.0,0.0,0.0,0.0,0.0,0.0,0.0,0.0,0.0,0.0,0.0,0.0,0.0,0.0,0.0,0.0,0.0,0.0,0.0,0.0,0.0,0.0,0.0,0.0,0.0,0.0,0.0,0.0,0.0,0.0,0.0,0.0,0.0,0.0,0.0,0.0,0.0,0.0,0.0,0.0,0.0,0.0,0.0,0.0,0.0,0.0,0.0,0.0,0.0,0.0,0.0,0.0,0.0,0.0,0.0,0.0,0.0,0.0,0.0,0.0,0.0,0.0,0.0,0.0,0.0,0.0,0.0,0.0,0.0,0.0,0.0,0.0,0.0,0.0,0.0,0.0,0.0,0.0,0.0,0.0,0.0,0.0,0.0,0.0,0.0,0.0,0.0,0.9224,0.9866,0.964,0.0,0.7041,0.0,0.0,0.0,0.0,0.0,0.0,0.0,0.0,0.0,0.0,0.0,0.0,0.0,0.0,0.0,0.0,0.0,0.0,0.0,0.0,0.0,0.0,0.0,0.0,0.0,0.0,0.0,0.0,0.0,0.0,0.0,0.0,0.0,0.0,0.0,0.0,0.0,0.0,0.0,0.0,0.0,0.0,0.0,0.0,0.0,0.0,0.0,0.0,0.0,0.0,0.0,0.0,0.0,0.0,0.0,0.0,0.0,0.0,0.0,0.0,0.0,0.0,0.0,0.0,0.0,0.0,0.0,0.0,0.0,0.0,0.0,0.0,0.0,0.0,0.0,0.0,0.0,0.0,0.0,0.0,0.0,0.0,0.0,0.0,0.0,0.0,0.0,0.0,0.0,0.0,0.0,0.0,0.0,0.0,0.0,0.0,0.0,0.0,0.0,0.0,0.0,0.0,0.0,0.0,0.0,0.0,0.0,0.0,0.0,0.0,0.0,0.963,0.9034,0.8014,0.0,0.0,0.0,0.0,0.0,0.0,0.0,0.0,0.0,0.0,0.0,0.0,0.0,0.0,0.0,0.0,0.0,0.0,0.0,0.0,0.0,0.0,0.0,0.0,0.0,0.0,0.0,0.0,0.0,0.0,0.0,0.0,0.0,0.0,0.0,0.0,0.0,0.0,0.0,0.0,0.0,0.0,0.0,0.0,0.0,0.0,0.0,0.0,0.0,0.0,0.0,0.0,0.0,0.0,0.0,0.0,0.0,0.0,0.0,0.0,0.0,0.0,0.0,0.0,0.0,0.0,0.0,0.0,0.0,0.0,0.0,0.0,0.0,0.0,0.0,0.0,0.0,0.0,0.0,0.0,0.0,0.0,0.0,0.0,0.0,0.0,0.0,0.0,0.0,0.0,0.0,0.0,0.0,0.0,0.0,0.0,0.0,0.0,0.0,0.0,0.0,0.0,0.0,0.0,0.0,0.0,0.0,0.0,0.0,0.0,0.9281,0.0,0.9449,0.8508,0.7479,0.64,0.0,0.0,0.0,0.0,0.0,0.0,0.0,0.0,0.0,0.0,0.0,0.0,0.0,0.0,0.0,0.0,0.0,0.0,0.0,0.0,0.0,0.0,0.0,0.0,0.0,0.0,0.0,0.0,0.0,0.0,0.0,0.0,0.0,0.0,0.0,0.0,0.0,0.0,0.0,0.0,0.0,0.0,0.0,0.0,0.0,0.0,0.0,0.0,0.0,0.0,0.0,0.0,0.0,0.0,0.0,0.0,0.0,0.0,0.0,0.0,0.0,0.0,0.0,0.0,0.0,0.0,0.0,0.0,0.0,0.0,0.0,0.0,0.0,0.0,0.0,0.0,0.0,0.0,0.0,0.0,0.0,0.0,0.0,0.0,0.0,0.0,0.0,0.0,0.0,0.0,0.0,0.0,0.0,0.0,0.0,0.0,0.0,0.0,0.0,0.0,0.0,0.0,0.0,0.0,0.0,0.0,0.0,0.0,0.0,0.9824,0.9515,0.9732,0.8448,0.7426,0.0,0.0,0.0,0.0,0.0,0.0,0.0,0.0,0.0,0.0,0.0,0.0,0.0,0.0,0.0,0.0,0.0,0.0,0.0,0.0,0.0,0.0,0.0,0.0,0.0,0.0,0.0,0.0,0.0,0.0,0.0,0.0,0.0,0.0,0.0,0.0,0.0,0.0,0.0,0.0,0.0,0.0,0.0,0.0,0.0,0.0,0.0,0.0,0.0,0.0,0.0,0.0,0.0,0.0,0.0,0.0,0.0,0.0,0.0,0.0,0.0,0.0,0.0,0.0,0.0,0.0,0.0,0.0,0.0,0.0,0.0,0.0,0.0,0.0,0.0,0.0,0.0,0.0,0.0,0.0,0.0,0.0,0.0,0.0,0.0,0.0,0.0,0.0,0.0,0.0,0.0,0.0,0.0,0.0,0.0,0.0,0.0,0.0,0.0,0.0,0.0,0.0,0.0,0.0,0.0,0.0,0.0,0.0,0.0,0.9042,0.9056,0.9328,0.9786,0.8377,0.74,0.0,0.0,0.0,0.0,0.0,0.0,0.0,0.0,0.0,0.0,0.0,0.0,0.0,0.0,0.0,0.0,0.0,0.0,0.0,0.0,0.0,0.0,0.0,0.0,0.0,0.0,0.0,0.0,0.0,0.0,0.0,0.0,0.0,0.0,0.0,0.0,0.0,0.0,0.0,0.0,0.0,0.0,0.0,0.0,0.0,0.0,0.0,0.0,0.0,0.0,0.0,0.0,0.0,0.0,0.0,0.0,0.0,0.0,0.0,0.0,0.0,0.0,0.0,0.0,0.0,0.0,0.0,0.0,0.0,0.0,0.0,0.0,0.0,0.0,0.0,0.0,0.0,0.0,0.0,0.0,0.0,0.0,0.0,0.0,0.0,0.0,0.0,0.0,0.0,0.0,0.0,0.0,0.0,0.0,0.0,0.0,0.0,0.0,0.0,0.0,0.0,0.0,0.0,0.0,0.0,0.0,0.0,0.0,0.0,0.8686,0.0,0.9502,0.0,0.8315,0.7282,0.0,0.0,0.0,0.0,0.0,0.0,0.0,0.0,0.0,0.0,0.0,0.0,0.0,0.0,0.0,0.0,0.0,0.0,0.0,0.0,0.0,0.0,0.0,0.0,0.0,0.0,0.0,0.0,0.0,0.0,0.0,0.0,0.0,0.0,0.0,0.0,0.0,0.0,0.0,0.0,0.0,0.0,0.0,0.0,0.0,0.0,0.0,0.0,0.0,0.0,0.0,0.0,0.0,0.0,0.0,0.0,0.0,0.0,0.0,0.0,0.0,0.0,0.0,0.0,0.0,0.0,0.0,0.0,0.0,0.0,0.0,0.0,0.0,0.0,0.0,0.0,0.0,0.0,0.0,0.0,0.0,0.0,0.0,0.0,0.0,0.0,0.0,0.0,0.0,0.0,0.0,0.0,0.0,0.0,0.0,0.0,0.0,0.0,0.0,0.0,0.0,0.0,0.0,0.0,0.0,0.0,0.0,0.0,0.0,0.9809,1.022,1.0015,0.9234,0.8282,0.707,0.0,0.0,0.0,0.0,0.0,0.0,0.0,0.0,0.0,0.0,0.0,0.0,0.0,0.0,0.0,0.0,0.0,0.0,0.0,0.0,0.0,0.0,0.0,0.0,0.0,0.0,0.0,0.0,0.0,0.0,0.0,0.0,0.0,0.0,0.0,0.0,0.0,0.0,0.0,0.0,0.0,0.0,0.0,0.0,0.0,0.0,0.0,0.0,0.0,0.0,0.0,0.0,0.0,0.0,0.0,0.0,0.0,0.0,0.0,0.0,0.0,0.0,0.0,0.0,0.0,0.0,0.0,0.0,0.0,0.0,0.0,0.0,0.0,0.0,0.0,0.0,0.0,0.0,0.0,0.0,0.0,0.0,0.0,0.0,0.0,0.0,0.0,0.0,0.0,0.0,0.0,0.0,0.0,0.0,0.0,0.0,0.0,0.0,0.0,0.0,0.0,0.0,0.0,0.0,0.0,0.0,0.0,0.0,0.0,0.8881,0.9576,0.9788,0.9368,0.7829,0.6881,0.0,0.0,0.0,0.0,0.0,0.0,0.0,0.0,0.0,0.0,0.0,0.0,0.0,0.0,0.0,0.0,0.0,0.0,0.0,0.0,0.0,0.0,0.0,0.0,0.0,0.0,0.0,0.0,0.0,0.0,0.0,0.0,0.0,0.0,0.0,0.0,0.0,0.0,0.0,0.0,0.0,0.0,0.0,0.0,0.0,0.0,0.0,0.0,0.0,0.0,0.0,0.0,0.0,0.0,0.0,0.0,0.0,0.0,0.0,0.0,0.0,0.0,0.0,0.0,0.0,0.0,0.0,0.0,0.0,0.0,0.0,0.0,0.0,0.0,0.0,0.0,0.0,0.0,0.0,0.0,0.0,0.0,0.0,0.0,0.0,0.0,0.0,0.0,0.0,0.0,0.0,0.0,0.0,0.0,0.0,0.0,0.0,0.0,0.0,0.0,0.0,0.0,0.0,0.0,0.0,0.0,0.0,0.0,0.0,0.9402,0.9935,0.9932,0.9351,0.7928,0.6957,0.6471,0.0,0.0,0.0,0.0,0.0,0.0,0.0,0.0,0.0,0.0,0.0,0.0,0.0,0.0,0.0,0.0,0.0,0.0,0.0,0.0,0.0,0.0,0.0,0.0,0.0,0.0,0.0,0.0,0.0,0.0,0.0,0.0,0.0,0.0,0.0,0.0,0.0,0.0,0.0,0.0,0.0,0.0,0.0,0.0,0.0,0.0,0.0,0.0,0.0,0.0,0.0,0.0,0.0,0.0,0.0,0.0,0.0,0.0,0.0,0.0,0.0,0.0,0.0,0.0,0.0,0.0,0.0,0.0,0.0,0.0,0.0,0.0,0.0,0.0,0.0,0.0,0.0,0.0,0.0,0.0,0.0,0.0,0.0,0.0,0.0,0.0,0.0,0.0,0.0,0.0,0.0,0.0,0.0,0.0,0.0,0.0,0.0,0.0,0.0,0.0,0.0,0.0,0.0,0.0,0.0,0.0,0.0,0.0,1.0912,1.0974,1.0421,0.9193,0.841,0.7187,0.0,0.0,0.0,0.0,0.0,0.0,0.0,0.0,0.0,0.0,0.0,0.0,0.0,0.0,0.0,0.0,0.0,0.0,0.0,0.0,0.0,0.0,0.0,0.0,0.0,0.0,0.0,0.0,0.0,0.0,0.0,0.0,0.0,0.0,0.0,0.0,0.0,0.0,0.0,0.0,0.0,0.0,0.0,0.0,0.0,0.0,0.0,0.0,0.0,0.0,0.0,0.0,0.0,0.0,0.0,0.0,0.0,0.0,0.0,0.0,0.0,0.0,0.0,0.0,0.0,0.0,0.0,0.0,0.0,0.0,0.0,0.0,0.0,0.0,0.0,0.0,0.0,0.0,0.0,0.0,0.0,0.0,0.0,0.0,0.0,0.0,0.0,0.0,0.0,0.0,0.0,0.0,0.0,0.0,0.0,0.0,0.0,0.0,0.0,0.0,0.0,0.0,0.0,0.0,0.0,0.0,0.0,0.0,0.0,1.0093,0.9982,0.9867,0.972,0.8117,0.6898,0.0,0.0,0.0,0.0,0.0,0.0,0.0,0.0,0.0,0.0,0.0,0.0,0.0,0.0,0.0,0.0,0.0,0.0,0.0,0.0,0.0,0.0,0.0,0.0,0.0,0.0,0.0,0.0,0.0,0.0,0.0,0.0,0.0,0.0,0.0,0.0,0.0,0.0,0.0,0.0,0.0,0.0,0.0,0.0,0.0,0.0,0.0,0.0,0.0,0.0,0.0,0.0,0.0,0.0,0.0,0.0,0.0,0.0,0.0,0.0,0.0,0.0,0.0,0.0,0.0,0.0,0.0,0.0,0.0,0.0,0.0,0.0,0.0,0.0,0.0,0.0,0.0,0.0,0.0,0.0,0.0,0.0,0.0,0.0,0.0,0.0,0.0,0.0,0.0,0.0,0.0,0.0,0.0,0.0,0.0,0.0,0.0,0.0,0.0,0.0,0.0,0.0,0.0,0.0,0.0,0.0,0.0,0.0,0.9695,1.0865,1.0214,0.9859,0.9906,0.8336,0.7141,0.0,0.0,0.0,0.0,0.0,0.0,0.0,0.0,0.0,0.0,0.0,0.0,0.0,0.0,0.0,0.0,0.0,0.0,0.0,0.0,0.0,0.0,0.0,0.0,0.0,0.0,0.0,0.0,0.0,0.0,0.0,0.0,0.0,0.0,0.0,0.0,0.0,0.0,0.0,0.0,0.0,0.0,0.0,0.0,0.0,0.0,0.0,0.0,0.0,0.0,0.0,0.0,0.0,0.0,0.0,0.0,0.0,0.0,0.0,0.0,0.0,0.0,0.0,0.0,0.0,0.0,0.0,0.0,0.0,0.0,0.0,0.0,0.0,0.0,0.0,0.0,0.0,0.0,0.0,0.0,0.0,0.0,0.0,0.0,0.0,0.0,0.0,0.0,0.0,0.0,0.0,0.0,0.0,0.0,0.0,0.0,0.0,0.0,0.0,0.0,0.0,0.0,0.0,0.0,0.0,0.0,0.0,0.0,1.0076,1.2049,1.0886,1.009,0.9793,0.8823,0.77,0.0,0.0,0.0,0.0,0.0,0.0,0.0,0.0,0.0,0.0,0.0,0.0,0.0,0.0,0.0,0.0,0.0,0.0,0.0,0.0,0.0,0.0,0.0,0.0,0.0,0.0,0.0,0.0,0.0,0.0,0.0,0.0,0.0,0.0,0.0,0.0,0.0,0.0,0.0,0.0,0.0,0.0,0.0,0.0,0.0,0.0,0.0,0.0,0.0,0.0,0.0,0.0,0.0,0.0,0.0,0.0,0.0,0.0,0.0,0.0,0.0,0.0,0.0,0.0,0.0,0.0,0.0,0.0,0.0,0.0,0.0,0.0,0.0,0.0,0.0,0.0,0.0,0.0,0.0,0.0,0.0,0.0,0.0,0.0,0.0,0.0,0.0,0.0,0.0,0.0,0.0,0.0,0.0,0.0,0.0,0.0,0.0,0.0,0.0,0.0,0.0,0.0,0.0,0.0,0.0,0.0,0.0,0.0,0.9877,1.0174,0.9957,0.9795,0.9713,0.8857,0.7891,0.0,0.0,0.0,0.0,0.0,0.0,0.0,0.0,0.0,0.0,0.0,0.0,0.0,0.0,0.0,0.0,0.0,0.0,0.0,0.0,0.0,0.0,0.0,0.0,0.0,0.0,0.0,0.0,0.0,0.0,0.0,0.0,0.0,0.0,0.0,0.0,0.0,0.0,0.0,0.0,0.0,0.0,0.0,0.0,0.0,0.0,0.0,0.0,1.0756,0.0,0.0,0.0,0.0,0.0,0.0,0.0,0.0,0.0,0.0,0.0,0.0,0.0,0.0,0.0,0.0,0.0,0.0,0.0,0.0,0.0,0.0,0.0,0.0,0.0,0.0,0.0,0.0,0.0,0.0,0.0,0.0,0.0,0.0,0.0,0.0,0.0,0.0,0.0,0.0,0.0,0.0,0.0,0.0,0.0,0.0,0.0,0.0,0.0,0.0,0.0,0.0,0.0,0.0,0.0,0.0,0.0,0.0,0.0,0.9752,1.0278,1.0018,0.9901,0.9866,0.9313,0.8516,0.0,0.0,0.0,0.0,0.0,0.0,0.0,0.0,0.0,0.0,0.0,0.0,0.0,0.0,0.0,0.0,0.0,0.0,0.0,0.0,0.0,0.0,0.0,0.0,0.0,0.0,0.0,0.0,0.0,0.0,0.0,0.0,0.0,0.0,0.0,0.0,0.0,0.0,0.0,0.0,0.0,0.0,0.0,0.0,0.0,0.0,0.0,0.0,0.0,0.0,0.0,0.0,0.0,0.0,0.0,0.0,0.0,0.0,0.0,0.0,0.0,0.0,0.0,0.0,0.0,0.0,0.0,0.0,0.0,0.0,0.0,0.0,0.0,0.0,0.0,0.0,0.0,0.0,0.0,0.0,0.0,0.0,0.0,0.0,0.0,0.0,0.0,0.0,0.0,0.0,0.0,0.0,0.0,0.0,0.0,0.0,0.0,0.0,0.0,0.0,0.0,0.0,0.0,0.0,0.0,0.0,0.0,0.9381,0.9692,1.0863,1.0435,1.0172,1.018,0.9875,0.9178,0.0,0.0,0.0,0.0,0.0,0.0,0.0,0.0,0.0,0.0,0.0,0.0,0.0,0.0,0.0,0.0,0.0,0.0,0.0,0.0,0.0,0.0,0.0,0.0,0.0,0.0,0.0,0.0,0.0,0.0,0.0,0.0,0.0,0.0,0.0,0.0,0.0,0.0,0.0,0.9128,1.0441,0.0,0.0,0.0,0.0,0.0,0.0,0.0,0.0,1.2313,0.0,0.0,0.0,0.0,0.0,0.0,0.0,0.0,0.0,0.0,0.0,0.0,0.0,0.0,0.0,0.0,0.0,0.0,0.0,0.0,0.0,0.0,0.0,0.0,0.0,0.0,0.0,0.0,0.0,0.0,0.0,0.0,0.0,0.0,0.0,0.0,0.0,0.0,0.0,0.0,0.0,0.0,0.0,0.0,0.0,0.0,0.0,0.0,0.0,0.0,0.0,0.0,0.0,0.0,0.0,0.0,1.0704,0.9916,0.9746,1.0268,1.0438,1.0519,1.0506,0.9982,0.9373,0.8671,0.0,0.0,0.0,0.0,0.0,0.0,0.0,0.0,0.0,0.0,0.0,0.0,0.0,0.0,0.0,0.0,0.0,0.0,0.0,0.0,0.0,0.0,0.0,0.0,0.0,0.0,0.0,0.0,0.0,0.0,0.0,0.0,0.0,0.0,0.0,0.0,0.0,0.0,0.0,1.2189,1.3131,0.0,0.0,0.0,0.0,0.0,0.0,0.0,0.0,1.0859,0.0,0.0,0.0,0.0,0.0,0.0,0.0,0.0,0.0,0.0,0.0,0.0,0.0,0.0,0.0,0.0,0.0,0.0,0.0,0.0,0.0,0.0,0.0,0.0,0.0,0.0,0.0,0.0,0.0,0.0,0.0,0.0,0.0,0.0,0.0,0.0,0.0,0.0,0.0,0.0,0.0,0.0,0.0,0.0,0.0,0.0,0.0,0.0,0.0,0.0,0.0,0.0,0.0,0.0,0.0,1.023,1.0022,1.0015,1.0343,1.0519,1.0586,1.0573,0.984,0.9252,0.0,0.0,0.0,0.0,0.0,0.0,0.0,0.0,0.0,0.0,0.0,0.0,0.0,0.0,0.0,0.0,0.0,0.0,0.0,0.0,0.0,0.0,0.0,0.0,0.0,0.0,0.0,0.0,0.0,0.0,0.0,0.0,0.0,0.0,0.0,0.0,0.0,0.0,0.0,0.0,1.339,1.4257,1.4838,0.0,0.0,0.0,0.0,0.0,0.0,1.3598,1.2452,0.0,0.0,0.0,0.0,0.0,0.0,0.0,0.0,0.0,0.0,0.0,0.0,0.0,0.0,0.0,0.0,0.0,0.0,0.0,0.0,0.0,0.0,0.0,0.0,0.0,0.0,0.0,0.0,0.0,0.0,0.0,0.0,0.0,0.0,0.0,0.0,0.0,0.0,0.0,0.0,0.0,0.0,0.0,0.0,0.0,0.0,0.0,0.0,0.0,0.0,0.0,0.0,0.0,0.0,0.0,0.976,1.001,1.0287,1.066,1.068,1.068,1.0667,0.9832,0.9239,0.0,0.0,0.0,0.0,0.0,0.0,0.0,0.0,0.0,0.0,0.0,0.0,0.0,0.0,0.0,0.0,0.0,0.0,0.0,0.0,0.0,0.0,0.0,0.0,0.0,0.0,0.0,0.0,0.0,0.0,0.0,0.0,0.0,0.0,0.0,0.0,0.0,0.0,0.0,0.0,0.0,1.5351,1.5583,1.5483,0.0,0.0,0.0,0.0,1.4844,1.5071,0.0,0.0,0.0,0.0,0.0,0.0,0.0,0.0,0.0,0.0,0.0,0.0,0.0,0.0,0.0,0.0,0.0,0.0,0.0,0.0,0.0,0.0,0.0,0.0,0.0,0.0,0.0,0.0,0.0,0.0,0.0,0.0,0.0,0.0,0.0,0.0,0.0,0.0,0.0,0.0,0.0,0.0,0.0,0.0,0.0,0.0,0.0,0.0,0.0,0.0,0.0,0.0,0.0,0.0,0.0,0.0,0.9765,1.0003,1.0372,1.0925,1.0958,1.0942,1.0952,1.0325,0.9828,0.0,0.0,0.0,0.0,0.0,0.0,0.0,0.0,0.0,0.0,0.0,0.0,0.0,0.0,0.0,0.0,0.0,0.0,0.0,0.0,0.0,0.0,0.0,0.0,0.0,0.0,0.0,0.0,0.0,0.0,0.0,0.0,0.0,0.0,0.0,0.0,0.0,0.0,0.0,0.0,0.0,1.662,1.6705,1.5873,1.5722,0.0,0.0,0.0,1.6662,1.6086,0.0,0.0,0.0,0.0,0.0,0.0,0.0,0.0,0.0,0.0,0.0,0.0,0.0,0.0,0.0,0.0,0.0,0.0,0.0,0.0,0.0,0.0,0.0,0.0,0.0,0.0,0.0,0.0,0.0,0.0,0.0,0.0,0.0,0.0,0.0,0.0,0.0,0.0,0.0,0.0,0.0,0.0,0.0,0.0,0.0,0.0,0.0,0.0,0.0,0.0,0.0,0.0,0.0,0.0,0.0,0.0,0.99,1.0381,1.0815,1.1223,1.1226,1.1162,1.1012,1.0267,0.9796,0.0,0.0,0.0,0.0,0.0,0.0,0.0,0.0,0.0,0.0,0.0,0.0,0.0,0.0,0.0,0.0,0.0,0.0,0.0,0.0,0.0,0.0,0.0,0.0,0.0,0.0,0.0,0.0,0.0,0.0,0.0,0.0,0.0,0.0,0.0,0.0,0.0,0.0,0.0,0.0,0.0,0.0,1.8654,1.7874,0.0,0.0,0.0,1.8155,1.8239,0.0,0.0,0.0,0.0,0.0,0.0,0.0,0.0,0.0,0.0,0.0,0.0,0.0,0.0,0.0,0.0,0.0,0.0,0.0,0.0,0.0,0.0,0.0,0.0,0.0,0.0,0.0,0.0,0.0,0.0,0.0,0.0,0.0,0.0,0.0,0.0,0.0,0.0,0.0,0.0,0.0,0.0,0.0,0.0,0.0,0.0,0.0,0.0,0.0,0.0,0.0,0.0,0.0,0.0,0.0,0.0,0.0,1.0035,1.0727,1.1243,1.1499,1.1526,1.1396,1.1102,1.0336,0.0,0.0,0.0,0.0,0.0,0.0,0.0,0.0,0.0,0.0,0.0,0.0,0.0,0.0,0.0,0.0,0.0,0.0,0.0,0.0,0.0,0.0,0.0,0.0,0.0,0.0,0.0,0.0,0.0,0.0,0.0,0.0,0.0,0.0,0.0,0.0,0.0,0.0,0.0,0.0,0.0,0.0,1.7588,1.9884,1.946,1.9001,0.0,0.0,1.9514,1.9556,1.9417,1.8275,0.0,0.0,0.0,0.0,0.0,0.0,0.0,0.0,0.0,0.0,0.0,0.0,0.0,0.0,0.0,0.0,0.0,0.0,0.0,0.0,0.0,0.0,0.0,0.0,0.0,0.0,0.0,0.0,0.0,0.0,0.0,0.0,0.0,0.0,0.0,0.0,0.0,0.0,0.0,0.0,0.0,0.0,0.0,0.0,0.0,0.0,0.0,0.0,0.0,0.0,0.0,0.0,0.0,0.0,0.0,1.0084,1.0942,1.1536,1.1841,1.1873,1.1697,1.1379,1.0815,1.0481,0.0,0.0,0.0,0.0,0.0,0.0,0.0,0.0,0.0,0.0,0.0,0.0,0.0,0.0,0.0,0.0,0.0,0.0,0.0,0.0,0.0,0.0,0.0,0.0,0.0,0.0,0.0,0.0,0.0,0.0,0.0,0.0,0.0,0.0,0.0,0.0,0.0,0.0,0.0,0.0,0.0,1.8803,1.9552,1.9695,1.9884,0.0,0.0,2.0369,2.048,2.0501,1.9195,1.5399,0.0,0.0,0.0,0.0,0.0,0.0,0.0,0.0,0.0,0.0,0.0,0.0,0.0,0.0,0.0,0.0,0.0,0.0,0.0,0.0,0.0,0.0,0.0,0.0,0.0,0.0,0.0,0.0,0.0,0.0,0.0,0.0,0.0,0.0,0.0,0.0,0.0,0.0,0.0,0.0,0.0,0.0,0.0,0.0,0.0,0.0,0.0,0.0,0.0,0.0,0.0,0.0,0.0,0.9351,0.9854,1.0872,1.1639,1.2111,1.2156,1.1997,1.1703,1.1614,1.1418,0.0,0.0,0.0,0.0,0.0,0.0,0.0,0.0,0.0,0.0,0.0,0.0,0.0,0.0,0.0,0.0,0.0,0.0,0.0,0.0,0.0,0.0,0.0,0.0,0.0,0.0,0.0,0.0,1.1034,1.1068,1.0014,0.0,0.0,0.0,0.0,0.0,0.0,0.0,0.0,0.0,0.0,1.9078,2.109,2.0965,0.0,0.0,2.1107,2.0824,2.063,2.06,1.947,1.6134,1.305,0.0,0.0,0.0,0.0,0.0,0.0,0.0,0.0,0.0,0.0,0.0,0.0,0.0,0.0,0.0,0.0,0.0,0.0,0.0,0.0,0.0,0.0,0.0,0.0,0.0,0.0,0.0,0.0,0.0,0.0,0.0,0.0,0.0,0.0,0.0,0.0,0.0,0.0,0.0,0.0,0.0,0.0,0.0,0.0,0.0,0.0,0.0,0.0,0.0,0.0,0.0,0.0,0.9456,0.98,1.0962,1.1797,1.2298,1.2305,1.2183,1.1924,1.2227,1.2172,0.0,0.0,0.0,0.0,0.0,0.0,0.0,0.0,0.0,0.0,0.0,0.0,0.0,0.0,0.0,0.0,0.0,0.0,0.0,0.0,0.0,0.0,0.0,0.0,0.0,0.0,0.0,0.0,1.2164,1.1872,1.0072,0.0,0.0,0.0,0.0,0.0,0.0,0.0,0.0,0.0,0.0,1.9428,2.1761,2.1479,2.115,2.1457,2.1101,2.0703,2.0437,2.0488,1.9599,1.6744,0.0,0.0,0.0,0.0,0.0,0.0,0.0,0.0,0.0,0.0,0.0,0.0,0.0,0.0,0.0,0.0,0.0,0.0,0.0,0.0,0.0,0.0,0.0,0.0,0.0,0.0,0.0,0.0,0.0,0.0,0.0,0.0,0.0,0.0,0.0,0.0,0.0,0.0,0.0,0.0,0.0,0.0,0.0,0.0,0.0,0.0,0.0,0.0,0.0,0.0,0.0,0.0,0.0,0.0,1.0094,1.1249,1.2015,1.2291,1.2305,1.2183,1.1944,1.2552,1.2635,1.2139,0.0,0.0,0.0,0.0,0.0,0.0,0.0,0.0,0.0,0.0,0.0,0.0,0.0,0.0,0.0,0.0,0.0,0.0,0.0,0.0,0.0,0.0,0.0,0.0,0.0,0.0,1.2096,1.1349,1.028,0.0,0.0,0.0,0.0,0.0,0.0,0.0,0.0,0.0,0.0,1.8864,1.9971,2.1087,2.0892,2.0673,2.0683,2.0282,1.995,1.9971,2.0312,1.9706,0.0,0.0,0.0,0.0,0.0,0.0,0.0,0.0,0.0,0.0,0.0,0.0,0.0,0.0,0.0,0.0,0.0,0.0,0.0,0.0,0.0,0.0,0.0,0.0,0.0,0.0,0.0,0.0,0.9298,0.0,0.0,0.0,0.0,0.0,0.0,0.0,0.0,0.0,0.0,0.0,1.3734,1.414,0.0,0.0,0.0,0.0,0.0,0.0,0.0,0.0,0.0,0.0,0.0,0.0,1.002,1.0159,1.1293,1.2029,1.2291,1.2305,1.2251,1.2176,1.3347,1.379,1.3433,0.0,0.0,0.0,0.0,0.0,0.0,0.0,0.0,0.0,0.0,0.0,0.0,0.0,0.0,0.0,0.0,0.0,0.0,0.0,0.0,0.0,0.0,0.0,0.0,0.0,1.3022,0.0,0.0,0.0,0.0,0.0,0.0,0.0,0.0,0.0,0.0,0.0,1.7682,1.8869,1.9735,2.0605,2.154,2.1539,2.1543,0.0,0.0,0.0,0.0,0.0,0.0,0.0,0.0,0.0,0.0,0.0,0.0,0.0,0.0,1.9837,1.5605,1.4035,1.3711,1.4869,0.0,0.0,0.0,0.0,0.0,0.0,0.0,0.0,0.0,0.0,0.0,0.0,0.0,0.0,0.0,0.0,1.1179,0.0,0.0,0.0,0.0,0.0,0.0,0.0,0.0,1.4008,1.4846,1.5376,1.56,1.5583,0.0,1.5225,1.44,0.0,0.0,0.0,0.0,0.0,0.0,0.0,0.0,1.0583,1.0593,1.1647,1.2336,1.2605,1.2593,1.2801,1.3168,1.4498,1.5095,1.4793,1.4004,1.2835,0.0,0.0,0.0,0.0,0.0,0.0,0.0,0.0,0.0,0.0,0.0,0.0,0.0,0.0,0.0,0.0,0.0,0.0,0.0,0.0,0.0,0.0,0.0,1.4074,0.0,0.0,0.0,0.0,0.0,0.0,0.0,0.0,0.0,1.8533,1.8575,1.8906,2.0013,2.055,2.1055,2.1787,0.0,0.0,0.0,0.0,0.0,0.0,0.0,1.9511,2.0107,2.1162,2.1289,1.9425,2.0299,2.1065,2.0461,0.0,0.0,1.7787,1.6749,1.6608,1.7286,1.82,1.8858,1.8787,1.9679,2.039,0.0,0.0,0.0,0.0,0.0,0.0,0.0,0.0,1.3515,1.3394,0.0,1.3112,0.0,0.0,0.0,0.0,0.0,0.0,0.0,0.0,1.5876,1.6488,1.6149,1.6174,1.6144,0.0,1.6832,1.6583,1.5423,1.3236,0.0,0.0,0.0,0.0,0.0,0.0,1.1359,1.1427,1.2316,1.2945,1.3186,1.32,1.3712,1.481,1.5994,1.6485,1.6151,1.5684,1.4674,1.304,0.0,0.0,0.0,0.0,0.0,0.0,0.0,0.0,0.0,0.0,0.0,0.0,0.0,0.0,0.0,0.0,0.0,0.0,0.0,0.0,0.0,1.4348,0.0,0.0,0.0,0.0,0.0,0.0,0.0,0.0,0.0,0.0,1.8982,1.9437,2.0062,2.1085,0.0,0.0,0.0,0.0,2.1964,2.2002,2.1984,2.1974,2.1963,2.0576,2.0019,2.167,0.0,0.0,2.1619,2.1971,2.1993,2.0332,2.0771,2.16,2.2721,2.1507,2.0884,2.1654,2.0336,1.9952,2.1471,2.0703,2.0217,1.593,0.0,0.0,0.0,0.0,1.5634,1.6199,1.7269,1.6876,1.6123,1.5094,1.508,0.0,0.0,0.0,0.0,0.0,0.0,1.5283,1.5625,1.635,1.682,1.7044,1.7305,1.7311,1.7044,1.7242,1.7008,1.6346,1.5386,1.418,1.2718,0.0,0.0,0.0,0.0,1.1869,1.1827,1.2625,1.312,1.3206,1.3206,1.4018,1.5752,1.6913,1.7497,1.7441,1.7067,1.6177,1.4746,1.3789,0.0,0.0,0.0,0.0,0.0,0.0,0.0,0.0,0.0,0.0,0.0,0.0,0.0,0.0,0.0,0.0,0.0,0.0,0.0,1.4349,1.4336,1.4251,0.0,0.0,0.0,0.0,0.0,0.0,0.0,0.0,0.0,2.0409,2.121,2.1696,0.0,0.0,2.1963,2.2717,2.2793,2.2976,2.3581,0.0,0.0,0.0,2.2599,2.2345,2.3137,2.3906,2.4079,2.3203,2.3262,2.3164,2.2282,2.166,2.1678,2.2695,2.1429,2.0124,1.9931,1.9437,1.9085,1.9308,1.9438,1.9761,1.8661,1.7095,1.6412,1.668,1.7549,1.736,1.7848,1.8754,1.827,1.7646,1.6956,1.6761,1.5818,1.4364,1.3892,0.0,0.0,0.0,1.6102,1.6939,1.7055,1.7481,1.81,1.7961,1.7986,1.8162,1.8135,1.7794,1.7101,1.6854,1.572,0.0,0.0,0.0,1.1291,1.2068,1.2452,1.2435,1.3027,1.3413,1.3574,1.4382,1.5547,1.6988,1.8114,1.8634,1.85,1.8105,1.7415,1.6459,1.5449,1.4364,0.0,0.0,0.0,0.0,0.0,0.0,0.0,0.0,0.0,0.0,0.0,1.1231,0.0,0.0,0.0,0.0,1.3952,1.5847,1.6362,1.6188,0.0,0.0,0.0,0.0,0.0,0.0,0.0,1.9003,1.9749,2.0548,2.1525,2.2487,2.2972,2.2703,2.2637,2.2891,2.3587,0.0,2.3806,2.4323,2.4346,2.43,2.4251,2.4199,2.429,2.4521,2.4609,2.438,2.3713,2.3463,2.2996,2.2093,2.131,2.0909,2.1159,2.0307,1.967,1.9624,1.8608,1.7911,1.8511,1.8772,1.8951,2.0936,2.0576,1.8965,1.8281,1.8252,1.8605,1.8744,1.8732,1.834,1.8352,1.866,1.8116,1.7477,1.6693,1.4911,0.0,0.0,1.6188,1.6595,1.7873,1.7688,1.8137,1.9035,1.809,1.8155,1.9081,1.9089,1.8554,1.7643,1.7699,1.6762,1.4866,1.4464,1.3699,1.2647,1.281,1.3042,1.3233,1.3507,1.3835,1.4237,1.6322,1.7726,1.8339,1.9383,1.9756,1.9297,1.8879,1.8459,1.7998,1.6906,1.5968,1.523,0.0,0.0,0.0,0.0,0.0,0.0,0.0,0.0,0.0,0.0,0.0,0.0,0.0,0.0,0.0,1.6781,0.0,1.907,1.9033,0.0,0.0,0.0,1.7443,1.8805,1.8951,1.9052,1.9343,0.0,0.0,0.0,0.0,2.4033,2.3906,2.389,2.3994,2.4414,2.443,2.4482,2.4537,2.4863,2.5092,2.4937,2.5102,2.5096,2.5009,2.5064,2.424,2.321,2.2649,2.1764,2.042,1.999,1.9527,1.8334,1.8654,1.9312,1.9494,1.7648,1.6546,1.8402,1.8203,1.7846,2.0799,2.1553,2.1133,2.0596,1.998,2.0087,2.0126,2.0087,1.963,1.9503,1.9541,1.8752,1.7758,1.657,1.5085,1.4976,1.5913,1.5747,1.6087,1.6833,1.6807,1.7024,1.7451,1.7213,1.7233,1.7454,1.727,1.7037,1.6832,1.7711,1.7085,1.5167,1.601,1.5375,1.3222,1.3312,1.344,1.3514,1.3807,1.4399,1.533,1.7476,1.8674,1.8841,1.9868,2.0077,1.9335,1.9208,1.8779,1.8054,1.8009,1.7821,1.7362,1.5479,0.0,0.0,0.0,0.0,0.0,0.0,0.0,0.0,0.0,1.5519,1.1851,0.0,1.7587,0.0,1.7471,1.9157,2.0175,1.9235,0.0,0.0,1.9745,1.9278,2.0928,2.1045,2.0975,2.0885,2.1586,2.2461,2.3477,2.4228,2.473,2.4769,2.4473,2.4424,2.4857,2.4926,2.5039,2.5284,2.5406,2.5542,2.5431,2.4408,2.3375,2.2767,2.2364,2.1929,2.1332,2.0943,2.0462,1.9726,1.8845,1.7822,1.653,1.6535,1.5647,1.3814,1.4435,1.5944,1.656,1.6426,1.647,2.0197,2.0831,2.0831,2.0567,2.0173,2.0875,2.0843,2.0304,1.986,1.9367,1.8849,1.8141,1.7418,1.6667,1.5477,1.5379,1.6148,1.592,1.6254,1.6952,1.6696,1.6862,1.7442,1.6988,1.7001,1.7462,1.733,1.7014,1.6593,1.722,1.6692,1.5099,1.5872,1.5806,1.4886,1.4296,1.4074,1.4229,1.4927,1.6102,1.7671,1.8731,1.9397,1.9707,2.0082,1.998,1.9325,1.8934,1.8653,1.8479,1.8332,1.8394,1.864,1.7249,1.6178,0.0,0.0,0.0,0.0,0.0,0.0,0.0,0.0,0.0,0.0,0.0,1.942,0.0,0.0,0.0,2.1642,2.1019,2.1083,2.2486,2.1468,2.0985,2.1779,2.1605,2.1622,2.2097,2.2217,2.2432,2.2922,2.29,2.3057,2.3511,2.3378,2.3742,2.5087,2.5371,2.5257,2.4899,2.4815,2.5045,2.5586,2.2801,2.0454,2.0064,2.0466,2.0679,1.9893,1.8845,1.7905,1.7125,1.5964,1.4929,1.4184,1.404,1.3325,1.2013,1.1745,1.2692,1.3812,1.4082,1.4292,1.936,1.9497,1.9497,1.9497,1.962,2.0986,2.0966,1.9919,1.9495,1.8672,1.7577,1.703,1.676,1.6659,1.5737,1.578,1.6561,1.6111,1.6405,1.7259,1.6725,1.6963,1.7836,1.6935,1.7001,1.788,1.7862,1.7358,1.6463,1.6603,1.6138,1.5113,1.5253,1.5882,1.6795,1.5563,1.5086,1.5479,1.6639,1.8197,2.0132,1.9937,2.0079,2.0557,2.0137,1.9687,1.9209,1.8486,1.8353,1.8897,1.8427,1.8576,1.9469,1.8615,1.7978,0.0,1.6572,0.0,0.0,0.0,0.0,0.0,0.0,0.0,0.0,2.0088,2.0577,2.0969,2.1229,2.1835,2.3112,2.3113,2.3029,2.3005,2.2604,2.2128,2.1669,2.1256,2.1419,2.25,2.2157,2.173,2.1544,2.0794,2.0674,2.1651,2.1879,2.2632,2.4575,2.4992,2.4571,2.3529,2.3432,2.3705,2.3919,2.0331,1.7036,1.7263,1.8157,1.9136,1.7907,1.6498,1.5029,1.3933,1.2807,1.1867,1.1677,1.1823,1.1799,1.1238,0.9678,0.9262,1.1409,1.2139,1.2242,1.8611,1.9497,1.9497,1.9497,1.9526,1.9844,1.9808,1.958,1.9123,1.8423,1.7539,1.6651,1.6068,1.5711,1.4796,1.4584,1.4954,1.4844,1.5182,1.5802,1.5689,1.584,1.6222,1.6049,1.6049,1.6239,1.6033,1.5823,1.5664,1.6605,1.6477,1.5386,1.6581,1.732,0.0,0.0,0.0,0.0,1.9008,1.9765,2.0207,2.0654,2.0817,2.0596,2.0146,0.0,1.8781,1.8568,1.8384,1.8245,1.9408,0.0,0.0,0.0,0.0,0.0,0.0,0.0,0.0,0.0,0.0,0.0,2.1375,2.0846,2.0253,2.1613,2.2551,2.2659,2.3262,2.3715,2.3809,2.3072,2.2639,2.2668,2.1899,2.119,2.0736,2.0598,2.0461,2.0111,1.9994,2.0104,2.0435,2.04,2.0615,2.1372,2.1693,2.1904,2.2341,2.2517,2.2297,2.176,2.1787,2.1678,2.0941,1.683,1.4134,1.4342,1.4053,1.4027,1.3861,1.384,1.3386,1.2431,1.1502,1.0701,1.0435,1.1194,1.1141,0.9164,0.8357,0.8775,1.1312,1.1872,1.2066,1.5909,0.0,1.5748,1.5742,0.0,0.0,1.5748,1.5853,1.7529,1.7666,1.6669,1.6176,1.5821,1.5607,1.516,1.5023,1.5148,1.5141,1.5301,1.5581,1.5588,1.5668,1.5801,1.5801,1.5801,1.5801,1.5655,1.5588,1.5635,1.619,1.619,1.5635,1.7005,1.801,1.8611,1.9778,2.0214,1.9935,2.048,2.101,2.16,2.1757,2.1532,2.0908,0.0,0.0,0.0,0.0,0.0,0.0,0.0,0.0,0.0,0.0,0.0,2.265,2.1895,2.1708,2.2248,2.2299,2.2889,2.423,2.4099,2.3429,2.2215,2.3751,2.4507,2.3921,2.4163,2.4145,2.3629,2.2909,2.2215,2.1584,2.1047,2.0484,1.9858,1.9722,1.9392,1.8695,1.8515,1.866,1.8939,1.8942,1.9143,1.9594,1.9672,1.9664,1.9826,2.0863,2.1225,1.9546,1.9192,1.8624,1.6955,1.4495,1.2329,1.2465,1.245,1.2414,1.2384,1.2141,1.1692,1.1019,1.0067,0.9238,0.9118,0.9554,0.9554,0.8382,0.7988,0.8333,0.9752,0.9969,1.0049,1.3188,1.1957,1.1952,1.1932,1.1896,1.1896,1.1896,1.2115,0.0,0.0,0.0,1.5343,1.5462,1.5462,1.5713,1.5801,1.5801,1.5801,1.5801,1.5801,1.5801,1.5801,1.5801,1.5801,1.5801,1.5801,1.5801,1.5801,1.5801,1.5801,1.592,1.6228,1.7178,1.8434,1.9852,2.1996,2.2611,2.1658,2.1614,2.2107,2.3038,2.2713,2.2139,2.1347,2.0547,1.9748,1.8986,1.8311,1.8335,1.9126,2.004,2.1129,2.2428,2.3712,2.4836,2.5678,2.5766,2.5937,2.6315,2.6335,2.6384,2.645,2.5767,2.5094,2.4428,2.5509,2.5735,2.4607,2.4164,2.3602,2.2793,2.2319,2.1522,2.0273,2.0135,1.9789,1.8901,1.8756,1.8456,1.7765,1.7667,1.7608,1.7654,1.7417,1.7147,1.7094,1.6975,1.6823,1.7147,1.8684,1.9163,1.6878,1.6073,1.5289,1.3786,1.2132,1.1245,1.1068,1.1319,1.16,1.1472,1.0814,1.008,0.9731,0.8701,0.8187,0.8013,0.8162,0.7988,0.7988,0.7988,0.7988,0.7988,0.8013,0.8189,1.2446,1.2148,1.2148,1.2038,1.1896,1.1896,1.1896,1.1945,1.2469,1.2619,1.2533,1.3662,1.4172,1.4214,1.5289,1.5801,1.5801,1.5801,1.5801,0.0,1.5801,1.5801,1.5801,1.5801,1.5801,1.5801,1.5801,1.5801,1.5801,1.5801,1.6346,1.7311,1.7622,1.8841,2.098,2.2425,2.3003,2.284,2.284,2.2938,2.3091,2.2703,2.2285,2.1807,2.1288,2.0801,2.0332,2.0175,2.0608,2.1629,2.2524,2.3544,2.4663,2.5605,2.621,2.6361,2.6373,2.6188,2.5768,2.5713,2.5892,2.6211,2.5123,2.4823,2.5853,2.5394,2.4787,2.4177,2.2865,2.1717,2.0907,2.0754,2.033,1.9355,1.9207,1.8829,1.7958,1.7862,1.7804,1.7628,1.7615,1.7582,1.7503,1.6499,1.555,1.5097,1.4722,1.4024,1.4228,1.496,1.5002,1.3629,1.2863,1.2478,1.1884,1.0081,0.9311,1.0015,0.9342,0.8977,0.9002,0.8798,0.8552,0.8357,0.8159,0.8038,0.7988,0.7988,0.7988,0.7988,0.7988,0.7988,0.7988,0.7988,0.806,1.0925,1.0095,0.9962,0.9875,0.9776,0.9776,0.9776,0.9776,0.9801,1.0603,1.1994,1.3319,1.3878,1.3998,1.5218,1.5801,1.5801,1.5801,1.5801,1.5801,1.5801,1.5801,1.5801,1.5801,1.5801,1.5801,1.5801,1.5801,1.5801,1.5801,1.6433,1.7707,1.9001,2.0531,2.2186,2.2818,2.3101,2.3101,2.3101,2.3101,2.3101,2.2927,2.2635,2.2236,2.1816,2.1377,2.0947,2.0713,2.0828,2.1298,2.2988,2.4178,2.4724,2.6382,2.7254,2.6975,2.6925,2.6685,2.6119,2.5612,2.5242,2.5081,2.3824,2.3104,2.3402,2.525,2.5259,2.2675,2.0628,1.9629,1.9899,1.9976,1.9484,1.8358,1.825,1.8073,1.7706,1.7615,1.7615,1.7529,1.6876,1.6711,1.7496,1.5663,1.3965,1.3318,1.3107,1.2972,1.2236,1.2409,1.2474,1.1754,1.1739,1.1232,1.01,0.8895,0.8357,0.8846,0.8404,0.8038,0.7988,0.7988,0.7988,0.7988,0.7988,0.7988,0.7988,0.7988,0.7988,0.7988,0.7988,0.7988,0.7988,0.7988,0.804,0.9528,0.8328,0.8157,0.8047,0.7988,0.7988,0.7988,0.7988,0.8013,0.9143,1.1068,1.2716,1.344,1.3608,1.5099,1.5801,1.5801,1.5801,1.5801,1.5801,1.5801,1.5801,1.5801,1.5801,1.5801,1.5801,1.5801,1.5937,1.6204,1.6228,1.7007,1.8565,2.0652,2.2173,2.3069,2.3101,2.314,2.3237,2.3247,2.322,2.3101,2.3101,2.2984,2.2781,2.2371,2.203,2.1786,2.1397,2.1282,2.161,2.3396,2.4534,2.4846,2.6731,2.7688,2.7325,2.7347,2.6963,2.5996,2.4747,2.3854,2.3429,2.2141,2.114,2.1032,2.3522,2.4199,2.1032,1.892,1.8113,1.8906,1.9121,1.8708,1.774,1.7615,1.743,1.7173,1.712,1.6955,1.6611,1.561,1.539,1.5882,1.4427,1.2457,1.151,1.1837,1.1755,1.0847,1.0494,1.0351,1.0385,1.0693,1.0297,0.8407,0.8072,0.8065,0.8025,0.8037,0.7995,0.7988,0.7988,0.7988,0.7988,0.7988,0.7988,0.7988,0.7988,0.7988,0.7988,0.7988,0.7988,0.7988,0.7988,0.7988,0.8754,0.8478,0.8328,0.8167,0.802,0.7988,0.7988,0.7988,0.7988,0.8088,0.8722,1.0999,1.2115,1.2431,1.4687,1.5801,1.5801,1.5801,1.5801,1.5801,1.5801,1.5801,1.5801,1.5801,1.5801,1.5801,1.5849,1.6457,1.7388,1.7559,1.8703,2.0868,2.2293,2.2967,2.312,2.312,2.3318,2.3721,2.373,2.3513,2.312,2.3101,2.3279,2.3684,2.323,2.3171,2.3447,2.3113,2.3345,2.4314,2.4577,2.5216,2.6181,2.6864,2.7166,2.7085,2.7393,2.6714,2.4449,2.2142,2.1029,2.1162,2.0116,1.9444,1.9626,1.9059,1.9026,1.9169,1.8406,1.774,1.7793,1.7871,1.7786,1.7496,1.745,1.7094,1.5902,1.5604,1.5123,1.3804,1.3701,1.3561,1.3642,1.2376,1.084,0.9671,0.9699,0.9754,0.9444,0.9258,0.9131,0.8945,0.8716,0.8606,0.8326,0.8175,0.8131,0.8221,0.8136,0.8067,0.8064,0.8015,0.7995,0.8094,0.805,0.806,0.8008,0.7988,0.8023,0.7988,0.7988,0.7988,0.7988,0.7988,0.7988,0.8621,0.8498,0.8355,0.818,0.8023,0.7988,0.7988,0.7988,0.7988,0.7988,0.8333,1.0754,1.1896,1.2096,1.4615,1.5801,1.5801,1.5801,1.5801,1.5801,1.5801,1.5801,1.5801,1.5801,1.5801,1.5896,1.6551,1.7201,1.7908,1.9404,2.0758,2.1776,2.3155,2.3874,2.3874,2.3864,2.3962,2.415,2.416,2.4049,2.3903,2.3874,2.3952,2.4121,2.3962,2.3942,2.4098,2.3962,2.408,2.4553,2.5186,2.578,2.6238,2.6269,2.5982,2.5339,2.4082,2.3065,2.2323,2.0582,1.975,2.0126,1.8946,1.8256,1.8387,1.7891,1.7865,1.8225,1.7891,1.7615,1.7589,1.7615,1.7279,1.6525,1.6307,1.5743,1.4341,1.4153,1.3879,1.3297,1.2512,1.2132,1.2077,1.0891,0.9671,0.8992,0.8909,0.8909,0.8902,0.8855,0.8825,0.8801,0.8649,0.8517,0.8513,0.8429,0.8372,0.8384,0.8347,0.8303,0.8275,0.8101,0.8035,0.8233,0.8292,0.8262,0.8194,0.817,0.816,0.8074,0.7992,0.7988,0.7988,0.7988,0.7988,0.8621,0.8462,0.8311,0.8118,0.7992,0.7988,0.7988,0.7988,0.7988,0.7988,0.8287,1.075,1.1896,1.2261,1.4639,1.5801,1.5801,1.5801,1.5801,1.5801,1.5801,1.5801,1.5801,1.5801,1.5801,1.6015,1.7084,1.8102,1.9008,2.1258,2.2538,2.2847,2.3811,2.4424,2.4424,2.4424,2.4482,2.459,2.459,2.4658,2.4732,2.4762,2.4703,2.4609,2.4459,2.4473,2.458,2.4449,2.4424,2.4437,2.4857,2.5098,2.5075,2.4664,2.411,2.3372,2.1417,2.0317,2.0598,1.937,1.8748,1.8899,1.7799,1.6982,1.7061,1.7364,1.718,1.6393,1.6419,1.6419,1.6955,1.6631,1.5929,1.4957,1.4824,1.4234,1.2913,1.2701,1.2512,1.2077,1.1051,1.0594,1.0726,0.9836,0.8964,0.8937,0.8909,0.8909,0.8909,0.8906,0.8906,0.8909,0.8902,0.8818,0.8655,0.8564,0.8581,0.8567,0.8509,0.8481,0.8509,0.8246,0.8155,0.8387,0.8509,0.8516,0.837,0.8345,0.8304,0.8128,0.8057,0.8012,0.7988,0.7988,0.7988,0.8621,0.8452,0.8148,0.8033,0.7988,0.7988,0.7988,0.7988,0.7988,0.7988,0.8333,1.075,1.1896,1.2091,1.4639,1.5801,1.5801,1.5801,1.5801,1.5801,1.5801,1.5801,1.5801,1.5801,1.5801,1.592,1.7108,1.9039,2.1554,2.3021,2.3936,2.426,2.4426,2.4453,2.4459,2.4512,2.4648,2.5024,2.5063,2.5225,2.5528,2.5586,2.5396,2.4944,2.4658,2.4635,2.4894,2.4615,2.4374,2.4387,2.3294,2.2655,2.2555,2.18,2.1502,2.1553,2.0409,1.9619,1.9479,1.8378,1.7654,1.7516,1.6327,1.5497,1.5583,1.6505,1.6174,1.3863,1.3642,1.3965,1.5043,1.4529,1.3777,1.3453,1.3372,1.2724,1.1351,1.1187,1.0515,0.9671,0.9316,0.9292,0.9185,0.8992,0.8909,0.8909,0.8909,0.8909,0.8909,0.8909,0.8909,0.8909,0.8909,0.8902,0.8869,0.876,0.8669,0.8649,0.8628,0.8546,0.8515,0.8469,0.8486,0.8537,0.8713,0.8726,0.855,0.8468,0.8413,0.8286,0.8142,0.8094,0.8081,0.8008,0.7998,0.7864,0.8469,0.8272,0.8133,0.7992,0.7988,0.7988,0.7988,0.7988,0.7988,0.8453,1.073,1.1896,1.2037,1.4633,1.5801,1.5801,1.5801,1.5801,1.5801,1.5801,1.5801,1.5801,1.5801,1.5801,1.5991,1.7108,1.9194,2.1946,2.3753,2.4701,2.4877,2.5127,2.5216,2.5216,2.524,2.5328,2.5478,2.5498,2.5562,2.564,2.5708,2.5246,2.4335,2.4876,2.4895,2.4219,2.4055,2.3575,2.2728,2.2187,2.1965,2.1825,2.0785,1.9742,1.9121,1.8603,1.8323,1.8166,1.6995,1.6201,1.6095,1.4883,1.4046,1.4121,1.4502,1.4368,1.327,1.1406,1.1214,1.2371,1.2967,1.2886,1.2082,1.1864,1.1324,1.0104,0.9699,0.9454,0.902,0.8909,0.8909,0.8909,0.8909,0.8909,0.8909,0.8909,0.8909,0.8909,0.8909,0.8909,0.8909,0.8909,0.8909,0.8909,0.8862,0.8784,0.8811,0.8784,0.8788,0.876,0.8737,0.8743,0.8726,0.8865,0.8835,0.8659,0.8533,0.8509,0.8461,0.8313,0.8235,0.8204,0.8187,0.8108,0.7404,0.8441,0.8427,0.8252,0.8094,0.8088,0.806,0.7995,0.7988,0.7988,0.8428,1.0337,1.1507,1.2188,1.422,1.5462,1.5778,1.5801,1.5801,1.5801,1.5801,1.5801,1.5801,1.5801,1.5801,1.6035,1.7192,1.9365,2.2162,2.3734,2.4679,2.5279,2.5571,2.5708,2.5708,2.5708,2.5708,2.5708,2.5708,2.5538,2.5143,2.5035,2.4412,2.3317,2.3498,2.3556,2.3043,2.3051,2.2667,2.1744,2.089,2.0133,1.9619,1.8762,1.8067,1.7628,1.714,1.6902,1.6737,1.555,1.4722,1.4663,1.3426,1.2593,1.2566,1.2159,1.1919,1.1406,1.0296,0.9399,1.0268,1.1269,1.146,1.0566,1.0406,1.0025,0.9075,0.8937,0.8937,0.8937,0.8909,0.8909,0.8909,0.8909,0.8909,0.8909,0.8909,0.8909,0.8909,0.8909,0.8909,0.8909,0.8909,0.8909,0.8909,0.8885,0.8869,0.8875,0.8872,0.8899,0.8909,0.8909,0.8909,0.8909,0.8889,0.8848,0.876,0.8652,0.8591,0.856,0.8469,0.8374,0.8379,0.8366,0.8289,0.7378,0.8572,0.8573,0.8427,0.8304,0.8298,0.8184,0.8064,0.8044,0.8057,0.8247,0.9533,1.0887,1.2043,1.3549,1.4682,1.5738,1.5901,1.5861,1.5808,1.5801,1.5821,1.5841,1.5855,1.5881,1.6004,1.7414,1.9774,2.2648,2.3154,2.408,2.5426,2.5679,2.5708,2.5708,2.5577,2.5552,2.5479,2.5372,2.4815,2.385,2.3549,2.2834,2.155,2.0327,2.0123,2.1297,2.1381,2.1144,2.0856,1.8804,1.6858,1.5905,1.5598,1.6035,1.6823,1.6121,1.547,1.5251,1.4105,1.3264,1.3075,1.1919,1.1082,1.0918,1.0025,0.9348,0.9344,0.9154,0.902,0.9047,0.9265,0.9292,0.8937,0.9154,0.9075,0.8964,0.8909,0.8909,0.8909,0.8909,0.8909,0.8909,0.8909,0.8909,0.8909,0.8909,0.8909,0.8909,0.8909,0.8909,0.8909,0.8909,0.8909,0.8909,0.8909,0.8909,0.8906,0.8902,0.8909,0.8909,0.8909,0.8909,0.8909,0.8909,0.8872,0.8865,0.8743,0.8737,0.8693,0.8598,0.8533,0.8503,0.8512,0.8488,0.7456,0.8629,0.8659,0.8554,0.8451,0.844,0.8384,0.8343,0.8343,0.8292,0.8479,0.9666,1.101,1.2308,1.3698,1.5053,1.6359,1.6395,1.6195,1.5868,1.5815,1.5935,1.6106,1.6163,1.6239,1.6668,1.8076,1.981,2.1607,2.2858,2.4242,2.5426,2.5659,2.5708,2.5528,2.4839,2.4328,2.423,2.3384,2.2692,2.2223,2.1299,2.0156,1.8815,1.7369,1.6478,1.5995,1.6806,1.6806,1.6094,1.5104,1.44,1.404,1.3938,1.4186,1.4508,1.4261,1.3965,1.3777,1.2642,1.1778,1.1538,1.0429,0.9699,0.9588,0.9237,0.8909,0.8909,0.8909,0.8909,0.8909,0.8909,0.8909,0.8909,0.8909,0.8909,0.8909,0.8909,0.8909,0.8909,0.8909,0.8909,0.8909,0.8909,0.8909,0.8909,0.8909,0.8909,0.8909,0.8909,0.8909,0.8909,0.8909,0.8909,0.8909,0.8909,0.8909,0.8909,0.8909,0.8909,0.8909,0.8909,0.8909,0.8909,0.8909,0.8906,0.8899,0.8875,0.8825,0.8825,0.877,0.8733,0.8665,0.8632,0.8615,0.6686,0.7974,0.8546,0.8706,0.857,0.8594,0.8533,0.8515,0.8509,0.8457,0.8584,0.9287,1.0767,1.2364,1.3407,1.4901,1.655,1.6707,1.6506,1.6175,1.6135,1.6242,1.6444,1.6433,1.6611,1.6999,1.795,1.9209,2.0587,2.1653,2.286,2.3998,2.4205,2.4171,2.4156,2.3409,2.2759,2.2131,2.1307,2.0383,1.9335,1.8429,1.7317,1.5968,1.4527,1.3396,1.2583,1.2825,1.3062,1.3097,1.2805,1.2512,1.2485,1.2485,1.2697,1.3102,1.2783,1.2485,1.2349,1.1105,1.0296,1.0076,0.9427,0.8937,0.8909,0.8909,0.8909,0.8909,0.8909,0.8909,0.8909,0.8909,0.8909,0.8909,0.8909,0.8909,0.8909,0.8909,0.8909,0.8909,0.8909,0.8909,0.8909,0.8909,0.8909,0.8909,0.8909,0.8909,0.8909,0.8909,0.8909,0.8909,0.8909,0.8909,0.8909,0.8909,0.8909,0.8909,0.8909,0.8909,0.8909,0.8909,0.8909,0.8909,0.8909,0.8909,0.8902,0.8906,0.8879,0.8906,0.8909,0.8848,0.8767,0.8767,0.8781,0.5308,0.6813,0.818,0.8712,0.8699,0.8696,0.8645,0.8516,0.8532,0.8486,0.8511,0.865,1.0018,1.2032,1.2503,1.3971,1.6232,1.6511,1.665,1.6692,1.6747,1.6767,1.674,1.678,1.6966,1.7199,1.7349,1.8213,1.9733,1.9958,2.0315,2.1904,2.2106,2.1693,2.1736,2.1533,2.0621,1.9434,1.906,1.7669,1.5561,1.5137,1.4575,1.3286,1.1937,1.1078,1.0891,1.0123,1.0535,1.243,1.1565,1.0969,1.0973,1.0969,1.1565,1.2539,1.1647,1.1109,1.0676,0.9888,0.913,0.9127,0.9047,0.8909,0.8909,0.8909,0.8909,0.8909,0.8909,0.8909,0.8909,0.8909,0.8909,0.8909,0.8909,0.8909,0.8909,0.8909,0.8909,0.8909,0.8909,0.8909,0.8909,0.8909,0.8909,0.8909,0.8909,0.8909,0.8909,0.8909,0.8909,0.8909,0.8909,0.8909,0.8909,0.8909,0.8909,0.8909,0.8909,0.8909,0.8909,0.8909,0.8909,0.8909,0.8909,0.8909,0.8909,0.8909,0.8909,0.8909,0.8909,0.8909,0.8896,0.8869,0.88,0.4327,0.6672,0.7121,0.7882,0.8769,0.8852,0.8767,0.8662,0.8648,0.8556,0.844,0.856,0.9599,1.1123,1.1469,1.3034,1.5156,1.5725,1.6442,1.727,1.7374,1.7247,1.7153,1.728,1.7401,1.7481,1.752,1.822,1.9491,1.9498,2.0205,2.1643,2.133,2.0942,2.0181,1.9048,1.784,1.6452,1.5361,1.4746,1.3853,1.2726,1.2064,1.1642,1.0296,0.9588,0.9482,0.9127,0.9127,0.9888,0.975,0.9454,0.9588,0.9561,0.9833,1.0076,0.986,0.9509,0.9454,0.9154,0.8937,0.8909,0.8909,0.8909,0.8909,0.8909,0.8909,0.8909,0.8909,0.8909,0.8909,0.8909,0.8909,0.8909,0.8909,0.8909,0.8909,0.8909,0.8909,0.8909,0.8909,0.8909,0.8909,0.8909,0.8909,0.8909,0.8909,0.8909,0.8909,0.8909,0.8909,0.8909,0.8909,0.8909,0.8909,0.8909,0.8909,0.8909,0.8909,0.8909,0.8909,0.8909,0.8909,0.8909,0.8909,0.8909,0.8909,0.8909,0.8909,0.8909,0.8909,0.8909,0.8909,0.8896,0.8751,0.3629,0.5836,0.645,0.754,0.8826,0.8909,0.8862,0.8777,0.8733,0.8625,0.852,0.8625,0.9503,1.0752,1.1024,1.2344,1.4341,1.4534,1.4984,1.5544,1.5666,1.626,1.7082,1.7555,1.7615,1.7615,1.7615,1.8015,1.8603,1.876,1.8939,1.8825,1.9051,1.8296,1.68,1.6194,1.5039,1.3676,1.2709,1.2136,1.1406,1.0644,1.0264,1.0076,0.9292,0.8909,0.8909,0.8909,0.8909,0.8937,0.8937,0.8909,0.8909,0.8909,0.8909,0.8909,0.8909,0.8937,0.8909,0.8909,0.8909,0.8909,0.8909,0.8909,0.8909,0.8909,0.8909,0.8909,0.8909,0.8909,0.8909,0.8909,0.8909,0.8909,0.8909,0.8909,0.8909,0.8909,0.8909,0.8909,0.8909,0.8909,0.8881,0.8881,0.8881,0.8909,0.8909,0.8909,0.8909,0.8881,0.8712,0.8519,0.8602,0.8602,0.8743,0.8826,0.8909,0.8909,0.8909,0.8909,0.8909,0.8909,0.8909,0.8909,0.8909,0.8909,0.8909,0.8909,0.8909,0.8909,0.8909,0.8909,0.8909,0.8602,0.8519,0.285,0.4385,0.5834,0.7315,0.8519,0.883,0.8889,0.8852,0.8737,0.8672,0.8632,0.8639,0.9295,1.0625,1.047,1.1607,1.3004,1.3055,1.3291,1.3588,1.3857,1.4828,1.6923,1.7068,1.7312,1.7529,1.7615,1.7661,1.7733,1.7595,1.6737,1.6203,1.5725,1.455,1.3804,1.3232,1.2322,1.1288,1.0992,1.0402,0.9616,0.9265,0.921,0.9154,0.9099,0.8909,0.8909,0.8909,0.8909,0.8909,0.8909,0.8909,0.8909,0.8909,0.8909,0.8909,0.8909,0.8909,0.8909,0.8909,0.8909,0.8909,0.8909,0.8909,0.8909,0.8909,0.8909,0.8909,0.8909,0.8909,0.8909,0.8909,0.8909,0.8909,0.8909,0.8909,0.8909,0.8909,0.8909,0.8909,0.8909,0.8881,0.8519,0.8574,0.8515,0.7288,0.7454,0.7399,0.7399,0.7315,0.7426,0.7593,0.7817,0.8208,0.846,0.8716,0.8826,0.8909,0.8909,0.8909,0.8909,0.8909,0.8909,0.8909,0.8909,0.8909,0.8909,0.8909,0.8909,0.8909,0.8909,0.8909,0.8854,0.8266,0.7986,0.1343,0.2822,0.4329,0.5808,0.7229,0.8377,0.8845,0.874,0.8703,0.8598,0.8468,0.8515,0.8689,0.8942,0.9327,1.0038,1.1339,1.1603,1.2132,1.3264,1.3291,1.4207,1.561,1.5876,1.6525,1.7285,1.7615,1.7582,1.7391,1.6466,1.571,1.523,1.404,1.3021,1.1778,1.151,1.0836,0.9644,0.9427,0.9344,0.9075,0.8909,0.8909,0.8909,0.8909,0.8909,0.8909,0.8909,0.8909,0.8909,0.8909,0.8909,0.8909,0.8909,0.8909,0.8909,0.8909,0.8909,0.8909,0.8909,0.8909,0.8909,0.8909,0.8909,0.8909,0.8909,0.8909,0.8909,0.8909,0.8909,0.8909,0.8909,0.8909,0.8909,0.8909,0.8881,0.8881,0.8881,0.8909,0.8795,0.8716,0.8042,0.5947,0.6758,0.6561,0.5753,0.5586,0.5528,0.5669,0.5864,0.6086,0.6392,0.6392,0.6672,0.7257,0.7789,0.8519,0.8799,0.8909,0.8909,0.8909,0.8909,0.8909,0.8909,0.8909,0.8909,0.8909,0.8909,0.8909,0.8909,0.8881,0.8743,0.8491,0.7903,0.6838,0.0868,0.2347,0.3855,0.5363,0.6813,0.8235,0.8865,0.8784,0.874,0.8625,0.852,0.8564,0.8543,0.8522,0.8733,0.9305,0.9794,1.003,1.0457,1.1078,1.1269,1.2376,1.4126,1.4636,1.5423,1.7232,1.7615,1.7312,1.6499,1.571,1.4716,1.3453,1.262,1.1483,1.0268,1.0131,0.9695,0.9154,0.8909,0.8909,0.8909,0.8909,0.8909,0.8909,0.8909,0.8909,0.8909,0.8909,0.8909,0.8909,0.8909,0.8909,0.8909,0.8909,0.8909,0.8909,0.8909,0.8909,0.8909,0.8909,0.8909,0.8909,0.8909,0.8909,0.8909,0.8909,0.8909,0.8909,0.8909,0.8909,0.8909,0.8909,0.8909,0.8909,0.8881,0.8629,0.8156,0.8436,0.8432,0.7953,0.762,0.6308,0.5333,0.5166,0.5363,0.4916,0.4832,0.4777,0.4944,0.5083,0.4944,0.5027,0.4832,0.5083,0.5806,0.6727,0.8014,0.8491,0.8909,0.8909,0.8909,0.8909,0.8909,0.8909,0.8909,0.8909,0.8909,0.8909,0.8909,0.8909,0.8799,0.8519,0.8014,0.7288,0.5806,0.0728,0.2041,0.3744,0.5224,0.6533,0.8152,0.8906,0.8858,0.8777,0.873,0.8683,0.8686,0.8662,0.8696,0.8777,0.8872,0.8958,0.8985,0.9344,0.9372,0.9427,1.0809,1.2485,1.3215,1.418,1.6744,1.7015,1.644,1.5683,1.4797,1.3318,1.1483,1.0832,1.0241,0.921,0.8937,0.902,0.8909,0.8909,0.8909,0.8909,0.8909,0.8909,0.8909,0.8909,0.8909,0.8909,0.8909,0.8909,0.8909,0.8909,0.8909,0.8909,0.8909,0.8909,0.8909,0.8909,0.8909,0.8909,0.8909,0.8909,0.8909,0.8909,0.8909,0.8909,0.8909,0.8909,0.8909,0.8909,0.8909,0.8909,0.8909,0.8771,0.8546,0.8491,0.7875,0.701,0.754,0.7116,0.6639,0.6167,0.5111,0.3911,0.3325,0.3799,0.4136,0.4024,0.3996,0.4106,0.0,0.0,0.0,0.2824,0.2684,0.3325,0.5834,0.7088,0.8377,0.8881,0.8854,0.8881,0.8909,0.8909,0.8909,0.8909,0.8909,0.8909,0.8909,0.8909,0.8909,0.8743,0.8463,0.7679,0.6672,0.494,0.014,0.0588,0.3354,0.4665,0.5308,0.7734,0.8909,0.8909,0.8875,0.8798,0.8696,0.8686,0.8652,0.8611,0.8686,0.8787,0.8892,0.8909,0.8909,0.8909,0.8964,1.0049,1.1351,1.181,1.267,1.3906,1.4984,1.531,1.4583,1.3102,1.186,1.0914,0.9943,0.9103,0.8878,0.8881,0.8602,0.8322,0.8377,0.8436,0.8436,0.8463,0.846,0.8491,0.8519,0.8688,0.8799,0.8854,0.8909,0.8909,0.8909,0.8909,0.8906,0.8906,0.8899,0.8909,0.8909,0.8909,0.8909,0.8909,0.8909,0.8909,0.8909,0.8909,0.8909,0.8909,0.8909,0.8909,0.8909,0.8909,0.8909,0.8909,0.8239,0.7595,0.7121,0.6563,0.5417,0.5166,0.5498,0.5105,0.4662,0.4052,0.274,0.1902,0.2321,0.2405,0.2125,0.2292,0.2572,0.0,0.0,0.0,0.0588,0.0532,0.0672,0.3908,0.6306,0.8097,0.8771,0.8716,0.8771,0.8881,0.8881,0.8515,0.8657,0.8909,0.8909,0.8909,0.8909,0.8909,0.866,0.8322,0.6952,0.5556,0.4329,0.0448,0.1343,0.3576,0.4946,0.595,0.7931,0.8909,0.8909,0.8909,0.8841,0.8818,0.8798,0.8764,0.8727,0.8757,0.8848,0.8892,0.8909,0.8909,0.8909,0.8992,0.9671,1.0918,1.1055,1.2028,1.2886,1.3372,1.3205,1.3102,1.1919,1.059,0.9915,0.9182,0.8546,0.7903,0.7679,0.7315,0.6952,0.6702,0.6702,0.6674,0.6674,0.6672,0.6785,0.7401,0.7734,0.7903,0.8657,0.8881,0.8909,0.8909,0.8909,0.8889,0.8848,0.8828,0.8882,0.8899,0.8906,0.8909,0.8909,0.8909,0.8909,0.8909,0.8909,0.8909,0.8909,0.8909,0.8909,0.8909,0.8909,0.8909,0.8881,0.8183,0.7093,0.6591,0.55,0.4023,0.3437,0.3352,0.3434,0.3155,0.2348,0.1092,0.07,0.0952,0.0756,0.0392,0.0728,0.1287,0.0,0.0,0.0,0.0,0.0,0.0,0.2264,0.5329,0.7285,0.8156,0.8128,0.8211,0.8125,0.79,0.7565,0.7956,0.8574,0.8885,0.8857,0.8881,0.8712,0.79,0.6977,0.5695,0.4413,0.3242,0.07,0.1901,0.3717,0.5194,0.645,0.8183,0.8909,0.8909,0.8909,0.8909,0.8909,0.8906,0.8902,0.8906,0.8902,0.8909,0.8909,0.8909,0.8909,0.8909,0.8909,0.9616,1.0323,1.0781,1.1051,1.1483,1.0761,1.0386,1.0706,1.0112,0.9268,0.8198,0.7928,0.7537,0.645,0.6255,0.5363,0.4916,0.4498,0.4498,0.4498,0.4498,0.4498,0.4526,0.5669,0.6364,0.6924,0.7706,0.8519,0.8771,0.8906,0.8896,0.8852,0.875,0.873,0.8801,0.8818,0.8831,0.8858,0.8855,0.8858,0.8902,0.8909,0.8909,0.8909,0.8909,0.8909,0.8909,0.8909,0.8909,0.8854,0.8574,0.7651,0.6478,0.5667,0.4858,0.2738,0.1678,0.1372,0.1399,0.0,0.0,0.0,0.0224,0.0644,0.1063,0.0728,0.0784,0.1147,0.0504,0.0,0.0,0.0,0.0,0.0,0.0,0.3798,0.6308,0.673,0.6674,0.6924,0.7118,0.6866,0.67,0.7399,0.7989,0.838,0.866,0.8546,0.8014,0.6864,0.5607,0.43,0.3324,0.2376,0.0084,0.0532,0.3324,0.4609,0.522,0.767,0.8854,0.8826,0.8854,0.8909,0.8712,0.8826,0.8771,0.8743,0.8771,0.8826,0.8909,0.8909,0.8909,0.8909,0.8909,0.902,0.921,0.9154,0.9337,0.9633,0.8247,0.8125,0.8308,0.768,0.6664,0.5614,0.5502,0.4944,0.483,0.4749,0.4665,0.4442,0.4331,0.4303,0.4247,0.4191,0.4164,0.4303,0.4632,0.519,0.6107,0.6828,0.7606,0.8657,0.8854,0.8814,0.8737,0.8699,0.8635,0.8577,0.855,0.8621,0.8703,0.8757,0.8781,0.8834,0.8788,0.8878,0.8602,0.8546,0.8546,0.8909,0.8881,0.8743,0.8463,0.7706,0.6394,0.5081,0.4021,0.2626,0.0,0.0,0.0,0.0,0.0,0.0,0.0,0.0,0.0392,0.0812,0.1119,0.1119,0.1315,0.1008,0.0924,0.0,0.0,0.0,0.0,0.0,0.3018,0.5584,0.5528,0.553,0.6114,0.645,0.6003,0.6058,0.6758,0.726,0.7512,0.7734,0.7931,0.7288,0.6139,0.4549,0.2849,0.204,0.1426,0.049,0.136,0.2664,0.3714,0.4733,0.6797,0.7666,0.7836,0.8549,0.8408,0.7762,0.7651,0.7651,0.7651,0.7651,0.8156,0.874,0.8909,0.8909,0.8909,0.8909,0.8909,0.8937,0.8826,0.8629,0.7679,0.6866,0.5772,0.571,0.549,0.5001,0.4526,0.4359,0.4052,0.3324,0.3212,0.2627,0.2154,0.1903,0.193,0.1958,0.0,0.0,0.2042,0.28,0.3577,0.4396,0.6076,0.6841,0.7821,0.8294,0.8794,0.8659,0.8534,0.8399,0.8226,0.8206,0.8343,0.8543,0.8598,0.8635,0.8457,0.813,0.7482,0.7371,0.7313,0.6725,0.5556,0.7703,0.8349,0.7848,0.7121,0.5975,0.4608,0.2989,0.1594,0.0,0.0,0.0,0.0,0.0,0.0,0.0,0.0,0.0,0.0,0.0,0.0896,0.1818,0.2712,0.274,0.0,0.0,0.0,0.0,0.2348,0.3409,0.5139,0.4777,0.4972,0.5725,0.5892,0.4997,0.5137,0.5945,0.6336,0.6616,0.7426,0.818,0.6949,0.5415,0.3742,0.2152,0.1175,0.0,0.0657,0.1655,0.2039,0.2891,0.4059,0.5519,0.6144,0.629,0.721,0.7116,0.642,0.6172,0.617,0.6311,0.6616,0.7371,0.8294,0.8712,0.8881,0.8909,0.8909,0.8909,0.8743,0.8577,0.7706,0.6619,0.5526,0.4435,0.3323,0.285,0.3186,0.3382,0.2936,0.26,0.1957,0.1594,0.0,0.0,0.0,0.0,0.0,0.0,0.0,0.0,0.0995,0.1816,0.2557,0.4591,0.6044,0.6958,0.8115,0.8703,0.852,0.8382,0.7933,0.7595,0.7353,0.7183,0.7313,0.7446,0.8018,0.7759,0.7015,0.6031,0.5832,0.5691,0.5468,0.4106,0.5361,0.6616,0.6727,0.6142,0.5109,0.3939,0.2711,0.1399,0.0,0.0,0.0,0.0,0.0,0.0,0.0,0.0,0.0,0.0,0.0,0.0,0.1678,0.3046,0.2852,0.2573,0.2125,0.1679,0.2767,0.3381,0.4413,0.447,0.4108,0.3967,0.4441,0.3965,0.2935,0.3603,0.4968,0.5526,0.5862,0.7229,0.8322,0.6336,0.4496,0.3045,0.1678,0.0588,0.0,0.0051,0.0254,0.1626,0.2204,0.2476,0.4015,0.4645,0.4662,0.4854,0.4925,0.4651,0.4578,0.4462,0.4888,0.5697,0.6422,0.6897,0.8266,0.846,0.8602,0.8881,0.8574,0.81,0.7315,0.6616,0.5917,0.4409,0.2932,0.1956,0.1119,0.0812,0.0,0.0,0.0,0.0,0.0,0.0,0.0,0.0,0.0,0.0,0.0,0.0,0.0,0.0,0.0771,0.2147,0.3912,0.5264,0.6263,0.7837,0.8341,0.8079,0.7872,0.7298,0.6411,0.6129,0.5795,0.5494,0.5972,0.6486,0.6314,0.5592,0.4476,0.4105,0.5244,0.5135,0.3822,0.393,0.4656,0.4825,0.4606,0.377,0.324,0.0,0.0,0.0,0.0,0.0,0.0,0.0,0.0,0.0,0.0,0.0,0.0,0.0,0.1035,0.1008,0.1902,0.1539,0.126,0.1092,0.1623,0.3438,0.394,0.3493,0.3297,0.3074,0.2739,0.2654,0.1873,0.1343,0.2655,0.4019,0.455,0.5222,0.6394,0.6672,0.5139,0.3521,0.1901,0.0531,-0.0644,-0.056,0.0,0.0,0.0615,0.083,0.0969,0.2456,0.3088,0.3266,0.4049,0.3898,0.3031,0.2206,0.2245,0.3095,0.3575,0.4524,0.5445,0.6866,0.6897,0.6813,0.6924,0.6924,0.6339,0.5667,0.4858,0.3992,0.2598,0.1566,0.0756,0.0,0.0,0.0,0.0,0.0,0.0,0.0,0.0,0.0,0.0,0.0,0.0,0.0,0.0,0.0,0.0,0.0,0.1095,0.3154,0.4314,0.5516,0.7287,0.7634,0.726,0.6932,0.6055,0.5002,0.4797,0.4438,0.4126,0.4493,0.4686,0.3908,0.3328,0.2789,0.0,0.0,0.0,0.161,0.0,0.2445,0.3144,0.2943,0.2487,0.2404,0.0,0.0,0.0,0.0,0.0,0.0,0.0,0.0,0.0,0.0,0.0,0.0,0.0,0.1287,0.1147,0.1259,0.1176,0.1315,0.1315,0.1315,0.2991,0.2768,0.0,0.2125,0.2069,0.1902,0.1622,0.0924,0.0784,0.2041,0.3045,0.3687,0.4468,0.5419,0.5111,0.3799,0.2208,0.0504,-0.0728,-0.1902,-0.1679,0.0,0.0,0.0,0.0,0.0,0.1105,0.1557,0.1738,0.261,0.2646,0.1475,0.0465,0.0497,0.1422,0.218,0.2738,0.405,0.5166,0.5224,0.5335,0.5475,0.5335,0.4665,0.3968,0.3352,0.2235,0.1566,0.0868,0.0,0.0,0.0,0.0,0.0,0.0,0.0,0.0,0.0,0.0,0.0,0.0,0.0,0.0,0.0,0.0,0.0,0.0,0.0,0.2601,0.4019,0.5126,0.6373,0.7295,0.6624,0.5697,0.4826,0.3967,0.3398,0.3321,0.3099,0.3308,0.291,0.1965,0.1663,0.1008,0.0,0.0,0.0,0.0,0.0,0.0579,0.1886,0.1808,0.1901,0.0,0.0,0.0,0.0,0.0,0.0,0.0,0.0,0.0,0.0,0.0,0.0,0.0,0.0,0.0,0.0812,0.1092,0.1623,0.1846,0.218,0.2181,0.2293,0.0,0.0,0.1148,0.112,0.1232,0.0924,0.0,0.0,0.1036,0.1986,0.2795,0.3437,0.3995,0.3519,0.2653,0.0782,-0.1202,-0.2208,-0.3243,-0.3324,0.0,0.0,0.0,0.0,0.0,0.0,0.0,0.0,0.0,0.0,0.0,0.0,0.0,0.0,0.1449,0.198,0.2487,0.3799,0.4247,0.4052,0.4219,0.4387,0.3745,0.2879,0.2097,0.1845,0.0,0.0,0.0,0.0,0.0,0.0,0.0,0.0,0.0,0.0,0.0,0.0,0.0,0.0,0.0,0.0,0.0,0.0,0.0,0.0,0.0,0.0,0.3686,0.4481,0.6497,0.7005,0.5909,0.5716,0.447,0.2314,0.2088,0.1473,0.0492,0.1578,0.1402,0.0,0.0,0.0,0.0,0.0,0.0,0.0,0.0,0.0,0.1074,0.0,0.0,0.0,0.0,0.0,0.0,0.0,0.0,0.0,0.0,0.0,0.0,0.0,0.0,0.0,0.0,0.0,0.0,0.0,0.0,0.0,0.0,0.0,0.0,0.0,0.0,0.0,0.0,0.0,0.0,0.0,0.0,0.0,0.0952,0.1846,0.2125,0.2377,0.0949,-0.0585,-0.1395,-0.2904,-0.3883,-0.4665,-0.4942,0.0,0.0,0.0,0.0,0.0,0.0,0.0,0.0,0.0,0.0,0.0,0.0,0.0,0.0,0.0,0.0,0.109,0.218,0.2739,0.1763,0.2517,0.2153,0.0,0.0,0.0,0.0,0.0,0.0,0.0,0.0,0.0,0.0,0.0,0.0,0.0,0.0,0.0,0.0,0.0,0.0,0.0,0.0,0.0,0.0,0.0,0.0,0.0,0.0,0.3258,0.4063,0.6174,0.6095,0.4999,0.467,0.3417,0.0,0.0,0.0531,0.0102,0.0573,0.053,0.0,0.0,0.0,0.0,0.0,0.0,0.0,0.0,0.0,0.0384,0.0,0.0,0.0,0.0,0.0,0.0,0.0,0.0,0.0,0.0,0.0,0.0,0.0,0.0,0.0,0.0,0.0,0.0,0.0,0.0,0.0,0.0,0.0,0.0,0.0,0.0,0.0,0.0,0.0,0.0,0.0,0.0,0.0,0.0,0.084,0.0559,-0.014,-0.2508,-0.4095,-0.4573,-0.4855,-0.5584,-0.645,-0.7063,0.0,0.0,0.0,0.0,0.0,0.0,0.0,0.0,0.0,0.0,0.0,0.0,0.0,0.0,0.0,0.0,0.0,0.0866,0.1259,0.014,0.0924,0.0868,0.0,0.0,0.0,0.0,0.0,0.0,0.0,0.0,0.0,0.0,0.0,0.0,0.0,0.0,0.0,0.0,0.0,0.0,0.0,0.0,0.0,0.0,0.0,0.0,0.0,0.1911,0.304,0.4117,0.4845,0.5022,0.3967,0.304,0.2163,0.0,0.0,0.0,0.0,0.0,0.0,0.0,0.0,0.0,0.0,0.0,0.0,0.0,0.0,0.0,0.0,0.0,0.0,0.0,0.0,0.0,0.0,0.0,0.0,0.0,0.0,0.0,0.0,0.0,0.0,0.0,0.0,0.0,0.0,0.0,0.0,0.0,0.0,0.0,0.0,0.0,0.0,0.0,0.0,0.0,0.0,0.0,0.0,0.0,0.0,-0.0028,-0.1259,-0.2682,-0.4714,-0.6246,-0.7143,-0.7371,-0.7512,-0.782,-0.8322,0.0,0.0,0.0,0.0,0.0,0.0,0.0,0.0,0.0,0.0,0.0,0.0,0.0,0.0,0.0,0.0,0.0,0.0,0.0,0.0,0.0,0.0,0.0,0.0,0.0,0.0,0.0,0.0,0.0,0.0,0.0,0.0,0.0,0.0,0.0,0.0,0.0,0.0,0.0,0.0,0.0,0.0,0.0,0.0,0.0,0.0853,0.1691,0.2738,0.3472,0.4268,0.4922,0.3944,0.2966,0.2089,0.1159,0.0,0.0,0.0,0.0,0.0,0.0,0.0,0.0,0.0,0.0,0.0,0.0,0.0,0.0,0.0,0.0,0.0,0.0,0.0,0.0,0.0,0.0,0.0,0.0,0.0,0.0,0.0,0.0,0.0,0.0,0.0,0.0,0.0,0.0,0.0,0.0,0.0,0.0,0.0,0.0,0.0,0.0,0.0,0.0,0.0,0.0,0.0,0.0,0.0,0.0,-0.098,-0.2935,-0.4747,-0.6561,-0.782,-0.8408,-0.8491,-0.8183,-0.8349,-0.8657,0.0,0.0,0.0,0.0,0.0,0.0,0.0,0.0,0.0,0.0,0.0,0.0,0.0,0.0,0.0,0.0,0.0,0.0,0.0,0.0,0.0,0.0,0.0,0.0,0.0,0.0,0.0,0.0,0.0,0.0,0.0,0.0,0.0,0.0,0.0,0.0,0.0,0.0,0.0,0.0,0.0,0.0,0.0,0.0,0.0931,0.1581,0.2229,0.2551,0.3141,0.3967,0.3391,0.2465,0.2315,0.1938,0.0,0.0,0.0,0.0,0.0,0.0,0.0,0.0,0.0,0.0,0.0,0.0,0.0,0.0,0.0,0.0,0.0,0.0,0.0,0.0,0.0,0.0,0.0,0.0,0.0,0.0,0.0,0.0,0.0,0.0,0.0,0.0,0.0,0.0,0.0,0.0,0.0,0.0,0.0,0.0,0.0,0.0,0.0,0.0,0.0,0.0,0.0,0.0,0.0,0.0,0.0,-0.3102,-0.5276,-0.6755,-0.7654,-0.8239,-0.8771,-0.8854,-0.8909,-0.8909,-0.8909,0.0,0.0,0.0,0.0,0.0,0.0,0.0,0.0,0.0,0.0,0.0,0.0,0.0,0.0,0.0,0.0,0.0,0.0,0.0,0.0,0.0,0.0,0.0,0.0,0.0,0.0,0.0,0.0,0.0,0.0,0.0,0.0,0.0,0.0,0.0,0.0,0.0,0.0,0.0,0.0,0.0,0.0,0.0,0.0774,0.1651,0.2066,0.2613,0.2639,0.3015,0.324,0.2187,0.1711,0.1461,0.1134,0.1033,0.0,0.0,0.0,0.0,0.0,0.0,0.0,0.0,0.0,0.0,0.0,0.0,0.0,0.0,0.0,0.0,0.0,0.0,0.0,0.0,0.0,0.0,0.0,0.0,0.0,0.0,0.0,0.0,0.0,0.0,0.0,0.0,0.0,0.0,0.0,0.0,0.0,0.0,0.0,0.0,0.0,0.0,0.0,0.0,0.0,0.0,0.0,0.0,0.0,0.0,-0.4747,-0.642,-0.7288,-0.81,-0.8629,-0.8909,-0.8909,-0.8909,-0.8909,-0.8909,0.0,0.0,0.0,0.0,0.0,0.0,0.0,0.0,0.0,0.0,0.0,0.0,0.0,0.0,0.0,0.0,0.0,0.0,0.0,0.0,0.0,0.0,0.0,0.0,0.0,0.0,0.0,0.0,0.0,0.0,0.0,0.0,0.0,0.0,0.0,0.0,0.0,0.0,0.0,0.0,0.0,0.0,0.0569,0.1441,0.1983,0.2413,0.3316,0.3515,0.3264,0.2438,0.1661,0.1108,0.058,0.0,0.0,0.0,0.0,0.0,0.0,0.0,0.0,0.0,0.0,0.0,0.0,0.0,0.0,0.0,0.0,0.0,0.0,0.0,0.0,0.0,0.0,0.0,0.0,0.0,0.0,0.0,0.0,0.0,0.0,0.0,0.0,0.0,0.0,0.0,0.0,0.0,0.0,0.0,0.0,0.0,0.0,0.0,0.0,0.0,0.0,0.0,0.0,0.0,0.0,-0.2851,-0.4886,-0.5723,-0.7008,-0.7848,-0.8436,-0.8688,-0.8909,-0.8909,-0.8909,-0.8909,-0.8909,0.0,0.0,0.0,0.0,0.0,0.0,0.0,0.0,0.0,0.0,0.0,0.0,0.0,0.0,0.0,0.0,0.0,0.0,0.0,0.0,0.0,0.0,0.0,0.0,0.0,0.0,0.0,0.0,0.0,0.0,0.0,0.0,0.0,0.0,0.0,0.0,0.0,0.0,0.0,0.0,0.0,0.0,0.0279,0.0913,0.1335,0.2037,0.2639,0.254,0.2364,0.1963,0.0908,0.0379,0.0,0.0,0.0,0.0,0.0,0.0,0.0,0.0,0.0,0.0,0.0,0.0,0.0,0.0,0.0,0.0,0.0,0.0,0.0,0.0,0.0,0.0,0.0,0.0,0.0,0.0,0.0,0.0,0.0,0.0,0.0,0.0,0.0,0.0,0.0,0.0,0.0,0.0,0.0,0.0,0.0,0.0,0.0,0.0,0.0,0.0,0.0,0.0,0.0,0.0,-0.1455,-0.4636,-0.6841,-0.7093,-0.7454,-0.8349,-0.8854,-0.8909,-0.8909,-0.8909,-0.8909,-0.8909,-0.8909,0.0,0.0,0.0,0.0,0.0,0.0,0.0,0.0,0.0,0.0,0.0,0.0,0.0,0.0,0.0,0.0,0.0,0.0,0.0,0.0,0.0,0.0,0.0,0.0,0.0,0.0,0.0,0.0,0.0,0.0,0.0,0.0,0.0,0.0,0.0,0.0,0.0,0.0,0.0,0.0,0.0,0.0,0.0454,0.0932,0.1511,0.2038,0.2013,0.1938,0.1586,0.126,0.0353,0.0,0.0,0.0,0.0,0.0,0.0,0.0,0.0,0.0,0.0,0.0,0.0,0.0,0.0,0.0,0.0,0.0,0.0,0.0,0.0,0.0,0.0,0.0,0.0,0.0,0.0,0.0,0.0,0.0,0.0,0.0,0.0,0.0,0.0,0.0,0.0,0.0,0.0,0.0,0.0,0.0,0.0,0.0,0.0,0.0,0.0,0.0,0.0,0.0,0.0,0.0,-0.218,-0.5023,-0.6924,-0.7315,-0.782,-0.8657,-0.8909,-0.8909,-0.8909,-0.8909,-0.8909,-0.8909,-0.8909,0.0,0.0,0.0,0.0,0.0,0.0,0.0,0.0,0.0,0.0,0.0,0.0,0.0,0.0,0.0,0.0,0.0,0.0,0.0,0.0,0.0,0.0,0.0,0.0,0.0,0.0,0.0,0.0,0.0,0.0,0.0,0.0,0.0,0.0,0.0,0.0,0.0,0.0,0.0,0.0,0.0,0.0177,0.0958,0.1637,0.2162,0.2163,0.2114,0.1813,0.1235,0.0,0.0,0.0,0.0,0.0,0.0,0.0,0.0,0.0,0.0,0.0,0.0,0.0,0.0,0.0,0.0,0.0,0.0,0.0,0.0,0.0,0.0,0.0,0.0,0.0,0.0,0.0,0.0,0.0,0.0,0.0,0.0,0.0,0.0,0.0,0.0,0.0,0.0,0.0,0.0,0.0,0.0,0.0,0.0,0.0,0.0,0.0,0.0,0.0,0.0,0.0,-0.028,-0.1091,-0.2543,-0.4994,-0.6531,-0.7174,-0.7959,-0.8799,-0.8909,-0.8909,-0.8909,-0.8909,-0.8909,-0.8909,-0.8909,0.0,0.0,0.0,0.0,0.0,0.0,0.0,0.0,0.0,0.0,0.0,0.0,0.0,0.0,0.0,0.0,0.0,0.0,0.0,0.0,0.0,0.0,0.0,0.0,0.0,0.0,0.0,0.0,0.0,0.0,0.0,0.0,0.0,0.0,0.0,0.0,0.0,0.0,0.0,0.0,0.0,0.0782,0.1586,0.2314,0.3064,0.2715,0.2389,0.2038,0.1184,0.0,0.0,0.0,0.0,0.0,0.0,0.0,0.0,0.0,0.0,0.0,0.0,0.0,0.0,0.0,0.0,0.0,0.0,0.0,0.0,0.0,0.0,0.0,0.0,0.0,0.0,0.0,0.0,0.0,0.0,0.0,0.0,0.0,0.0,0.0,0.0,0.0,0.0,0.0,0.0,0.0,0.0,0.0,0.0,0.0,0.0,0.0,0.0,0.0,-0.0616,-0.0588,-0.0812,-0.1426,-0.31,-0.5468,-0.6558,-0.7202,-0.8042,-0.8909,-0.8909,-0.8909,-0.8909,-0.8909,-0.8909,-0.8909,-0.8909]},{"header":{"parameterUnit":"m.s-1","parameterCategory":1,"la1":31.0,"la2":29.5877,"lo1":-88.7671,"lo2":-86.6584,"dy":0.0162,"dx":0.0185,"nx":115,"ny":88,"refTime":"2025-01-25T06:00:00:Z","depth":0,"parameterNumber":3,"parameterNumberName":"V-component_of_WINDS"},"data":[0.0,0.0,0.0,0.0,0.0,0.0,0.0,0.0,0.0,0.0,0.0,0.0,0.0,0.0,0.0,0.0,0.0,0.0,0.0,0.0,0.0,0.0,0.0,0.0,0.0,0.0,0.0,0.0,0.0,0.0,0.0,0.0,0.0,0.0,0.0,0.0,0.0,0.0,0.0,0.0,0.0,0.0,0.0,0.0,0.0,0.0,0.0,0.0,0.0,0.0,0.0,0.0,0.0,0.0,0.0,0.0,0.0,0.0,0.0,0.0,0.0,0.0,0.0,0.0,0.0,0.0,0.0,0.0,0.0,0.0,0.0,0.0,0.0,0.0,0.0,0.0,0.0,0.0,0.0,0.0,0.0,0.0,0.0,0.0,0.0,0.0,0.0,0.0,0.0,0.0,0.0,0.0,0.0,0.0,0.0,0.0,0.0,0.0,0.0,0.0,0.0,0.0,0.0,0.0,0.0,0.0,0.0,0.0,0.0,0.0,0.0,0.0,0.0,0.0,0.0,0.0,0.0,0.0,0.0,0.0,0.0,0.0,0.0,0.0,0.0,0.0,0.0,0.0,0.0,0.0,0.0,0.0,0.0,0.0,0.0,0.0,0.0,0.0,0.0,0.0,0.0,0.0,0.0,0.0,0.0,0.0,0.0,0.0,0.0,0.0,0.0,0.0,0.0,0.0,0.0,0.0,0.0,0.0,0.0,0.0,0.0,0.0,0.0,0.0,0.0,0.0,0.0,0.0,0.0,0.0,0.0,0.0,0.0,0.0,0.0,0.0,0.0,0.0,0.0,0.0,0.0,0.0,0.0,0.0,0.0,0.0,0.0,0.0,0.0,0.0,0.0,0.0,0.0,0.0,0.0,0.0,0.0,0.0,0.0,0.0,0.0,0.0,0.0,0.0,0.0,0.0,0.0,0.0,0.0,0.0,0.0,0.0,0.0,0.0,0.0,0.0,0.0,0.0,0.0,0.0,0.0,0.0,0.0,0.0,0.0,0.0,0.0,0.0,0.0,0.0,0.0,0.0,0.0,0.0,0.0,0.0,0.0,0.0,0.0,0.0,0.0,0.0,0.0,0.0,0.0,0.0,0.0,0.0,0.0,0.0,0.0,0.0,0.0,0.0,0.0,0.0,0.0,0.0,0.0,0.0,0.0,0.0,0.0,0.0,0.0,0.0,0.0,0.0,0.0,0.0,0.0,0.0,0.0,0.0,0.0,0.0,0.0,0.0,0.0,0.0,0.0,0.0,0.0,0.0,0.0,0.0,0.0,0.0,0.0,0.0,0.0,0.0,0.0,0.0,0.0,0.0,0.0,0.0,0.0,0.0,0.0,0.0,0.0,0.0,0.0,0.0,0.0,0.0,0.0,0.0,0.0,0.0,0.0,0.0,0.0,0.0,0.0,0.0,0.0,0.0,0.0,0.0,0.0,0.0,0.0,0.0,0.0,0.0,0.0,0.0,0.0,0.0,0.0,0.0,0.0,0.0,0.0,0.0,0.0,0.0,0.0,0.0,0.0,0.0,0.0,0.0,0.0,0.0,0.0,0.0,0.0,0.0,0.0,0.0,0.0,0.0,0.0,0.0,0.0,0.0,0.0,0.0,0.0,0.0,0.0,0.0,0.0,0.0,0.0,0.0,0.0,0.0,0.0,0.0,0.0,0.0,0.0,0.0,0.0,0.0,0.0,0.0,0.0,0.0,0.0,0.0,0.0,0.0,0.0,0.0,0.0,0.0,0.0,0.0,0.0,0.0,0.0,0.0,0.0,0.0,0.0,0.0,0.0,0.0,0.0,0.0,0.0,0.0,0.0,0.0,0.0,0.0,0.0,0.0,0.0,0.0,0.0,0.0,0.0,0.0,0.0,0.0,0.0,0.0,0.0,0.0,0.0,0.0,0.0,0.0,0.0,0.0,0.0,0.0,0.0,0.0,0.0,0.0,0.0,0.0,0.0,0.0,0.0,0.0,0.0,0.0,0.0,0.0,0.0,0.0,0.0,0.0,0.0,0.0,0.0,0.0,0.0,0.0,0.0,0.0,0.0,0.0,0.0,0.0,0.0,0.0,0.0,0.0,0.0,0.0,0.0,0.0,0.0,0.0,0.0,0.0,0.0,0.0,0.0,0.0,0.0,0.0,0.0,0.0,0.0,0.0,0.0,0.0,0.0,0.0,0.0,0.0,0.0,0.0,0.0,0.0,0.0,0.0,0.0,0.0,0.0,0.0,0.0,0.0,0.0,0.0,0.0,0.0,0.0,0.0,0.0,0.0,0.0,0.0,0.0,0.0,0.0,0.0,0.0,0.0,0.0,0.0,0.0,0.0,0.0,0.0,0.0,0.0,0.0,0.0,0.0,0.0,0.0,0.0,0.0,0.0,0.0,0.0,0.0,0.0,0.0,0.0,0.0,0.0,0.0,0.0,0.0,0.0,0.0,0.0,0.0,0.0,0.0,0.0,0.0,0.0,0.0,0.0,0.0,0.0,0.0,0.0,0.0,0.0,0.0,0.0,0.0,0.0,0.0,0.0,0.0,0.0,0.0,0.0,0.0,0.0,0.0,0.0,0.0,0.0,0.0,0.0,0.0,0.0,0.0,0.0,0.0,0.0,0.0,0.0,0.0,0.0,0.0,0.0,0.0,0.0,0.0,0.0,0.0,0.0,0.0,0.0,0.0,0.0,0.0,0.0,0.0,0.0,0.0,0.0,0.0,0.0,0.0,0.0,0.0,0.0,0.0,0.0,0.0,0.0,0.0,0.0,0.0,0.0,0.0,0.0,0.0,0.0,0.0,0.0,0.0,0.0,0.0,0.0,0.0,0.0,0.0,0.0,0.0,0.0,0.0,0.0,0.0,0.0,0.0,0.0,0.0,0.0,0.0,0.0,0.0,0.0,0.0,0.0,0.0,0.0,0.0,0.0,0.0,0.0,0.0,0.0,0.0,0.0,0.0,0.0,0.0,0.0,0.0,0.0,0.0,0.0,0.0,0.0,0.0,0.0,0.0,0.0,0.0,0.0,0.0,0.0,0.0,0.0,0.0,0.0,0.0,0.0,0.0,0.0,0.0,0.0,0.0,0.0,0.0,0.0,0.0,0.0,0.0,0.0,0.0,0.0,0.0,0.0,0.0,0.0,0.0,0.0,0.0,0.0,0.0,0.0,0.0,0.0,0.0,0.0,0.0,0.0,0.0,0.0,0.0,0.0,0.0,0.0,0.0,0.0,0.0,0.0,0.0,0.0,0.0,0.0,0.0,0.0,0.0,0.0,0.0,0.0,0.0,0.0,0.0,0.0,0.0,0.0,0.0,0.0,0.0,0.0,0.0,0.0,0.0,0.0,0.0,0.0,0.0,0.0,0.0,0.0,0.0,0.0,0.0,0.0,0.0,0.0,0.0,0.0,0.0,0.0,0.0,0.0,0.0,0.0,0.0,0.0,0.0,0.0,0.0,0.0,0.0,0.0,0.0,0.0,0.0,0.0,0.0,0.0,0.0,0.0,0.0,0.0,0.0,0.0,0.0,0.0,0.0,0.0,0.0,0.0,0.0,0.0,0.0,0.0,0.0,0.0,0.0,0.0,0.0,0.0,0.0,0.0,0.0,0.0,0.0,0.0,0.0,0.0,0.0,0.0,0.0,0.0,0.0,0.0,0.0,0.0,0.0,0.0,0.0,0.0,0.0,0.0,0.0,0.0,0.0,0.0,0.0,0.0,0.0,0.0,0.0,0.0,0.0,0.0,0.0,0.0,0.0,0.0,0.0,0.0,0.0,0.0,0.0,0.0,0.0,0.0,0.0,0.0,0.0,0.0,0.0,0.0,0.0,0.0,0.0,0.0,0.0,0.0,0.0,0.0,0.0,0.0,0.0,0.0,0.0,0.0,0.0,0.0,0.0,0.0,0.0,0.0,0.0,0.0,0.0,0.0,0.0,0.0,0.0,0.0,0.0,0.0,0.0,0.0,0.0,0.0,0.0,0.0,0.0,0.0,0.0,0.0,0.0,0.0,0.0,0.0,0.0,0.0,0.0,0.0,0.0,0.0,0.0,0.0,0.0,0.0,0.0,0.0,0.0,0.0,0.0,0.0,0.0,0.0,0.0,0.0,0.0,0.0,0.0,0.0,0.0,0.0,0.0,0.0,0.0,0.0,0.0,0.0,0.0,0.0,0.0,0.0,0.0,0.0,0.0,0.0,0.0,0.0,0.0,0.0,0.0,0.0,0.0,0.0,0.0,0.0,0.0,0.0,0.0,0.0,0.0,0.0,0.0,0.0,0.0,0.0,0.0,0.0,0.6155,0.0,0.0,0.0,0.0,0.0,0.0,0.0,0.0,0.0,0.0,0.0,0.0,0.0,0.0,0.0,0.0,0.0,0.0,0.0,0.0,0.0,0.0,0.0,0.0,0.0,0.0,0.0,0.0,0.0,0.0,0.0,0.0,0.0,0.0,0.0,0.0,0.0,0.0,0.0,0.0,0.0,0.0,0.0,0.0,0.0,0.0,0.0,0.0,0.0,0.0,0.0,0.0,0.0,0.0,0.0,0.0,0.0,0.0,0.0,0.0,0.0,0.0,0.0,0.0,0.0,0.0,0.0,0.0,0.0,0.0,0.0,0.0,0.0,0.0,0.0,0.0,0.0,0.0,0.0,0.0,0.0,0.0,0.0,0.0,0.0,0.0,0.0,0.0,0.0,0.0,0.0,0.0,0.0,0.0,0.0,0.0,0.0,0.0,0.0,0.0,0.0,0.0,0.0,0.0,0.0,0.0,0.0,0.0,0.0,0.0,0.5103,0.5093,0.5127,0.5506,0.6335,0.0,0.0,0.0,0.0,0.0,0.0,0.0,0.0,0.0,0.0,0.0,0.0,0.0,0.0,0.0,0.0,0.0,0.0,0.0,0.0,0.0,0.0,0.0,0.0,0.0,0.0,0.0,0.0,0.0,0.0,0.0,0.0,0.0,0.0,0.0,0.0,0.0,0.0,0.0,0.0,0.0,0.0,0.0,0.0,0.0,0.0,0.0,0.0,0.0,0.0,0.0,0.0,0.0,0.0,0.0,0.0,0.0,0.0,0.0,0.0,0.0,0.0,0.0,0.0,0.0,0.0,0.0,0.0,0.0,0.0,0.0,0.0,0.0,0.0,0.0,0.0,0.0,0.0,0.0,0.0,0.0,0.0,0.0,0.0,0.0,0.0,0.0,0.0,0.0,0.0,0.0,0.0,0.0,0.0,0.0,0.0,0.0,0.0,0.0,0.0,0.0,0.0,0.0,0.0,0.0,0.0,0.0,0.0,0.0,0.0,0.0,0.0,0.5521,0.6091,0.6966,0.0,0.0,0.0,0.0,0.0,0.0,0.0,0.0,0.0,0.0,0.0,0.0,0.0,0.0,0.0,0.0,0.0,0.0,0.0,0.0,0.0,0.0,0.0,0.0,0.0,0.0,0.0,0.0,0.0,0.0,0.0,0.0,0.0,0.0,0.0,0.0,0.0,0.0,0.0,0.0,0.0,0.0,0.0,0.0,0.0,0.0,0.0,0.0,0.0,0.0,0.0,0.0,0.0,0.0,0.0,0.0,0.0,0.0,0.0,0.0,0.0,0.0,0.0,0.0,0.0,0.0,0.0,0.0,0.0,0.0,0.0,0.0,0.0,0.0,0.0,0.0,0.0,0.0,0.0,0.0,0.0,0.0,0.0,0.0,0.0,0.0,0.0,0.0,0.0,0.0,0.0,0.0,0.0,0.0,0.0,0.0,0.0,0.0,0.0,0.0,0.0,0.0,0.0,0.0,0.0,0.0,0.0,0.0,0.0,0.0,0.5312,0.5725,0.606,0.0,0.8344,0.0,0.0,0.0,0.0,0.0,0.0,0.0,0.0,0.0,0.0,0.0,0.0,0.0,0.0,0.0,0.0,0.0,0.0,0.0,0.0,0.0,0.0,0.0,0.0,0.0,0.0,0.0,0.0,0.0,0.0,0.0,0.0,0.0,0.0,0.0,0.0,0.0,0.0,0.0,0.0,0.0,0.0,0.0,0.0,0.0,0.0,0.0,0.0,0.0,0.0,0.0,0.0,0.0,0.0,0.0,0.0,0.0,0.0,0.0,0.0,0.0,0.0,0.0,0.0,0.0,0.0,0.0,0.0,0.0,0.0,0.0,0.0,0.0,0.0,0.0,0.0,0.0,0.0,0.0,0.0,0.0,0.0,0.0,0.0,0.0,0.0,0.0,0.0,0.0,0.0,0.0,0.0,0.0,0.0,0.0,0.0,0.0,0.0,0.0,0.0,0.0,0.0,0.0,0.0,0.0,0.0,0.0,0.0,0.0,0.0,0.0,0.6329,0.6963,0.7867,0.0,0.0,0.0,0.0,0.0,0.0,0.0,0.0,0.0,0.0,0.0,0.0,0.0,0.0,0.0,0.0,0.0,0.0,0.0,0.0,0.0,0.0,0.0,0.0,0.0,0.0,0.0,0.0,0.0,0.0,0.0,0.0,0.0,0.0,0.0,0.0,0.0,0.0,0.0,0.0,0.0,0.0,0.0,0.0,0.0,0.0,0.0,0.0,0.0,0.0,0.0,0.0,0.0,0.0,0.0,0.0,0.0,0.0,0.0,0.0,0.0,0.0,0.0,0.0,0.0,0.0,0.0,0.0,0.0,0.0,0.0,0.0,0.0,0.0,0.0,0.0,0.0,0.0,0.0,0.0,0.0,0.0,0.0,0.0,0.0,0.0,0.0,0.0,0.0,0.0,0.0,0.0,0.0,0.0,0.0,0.0,0.0,0.0,0.0,0.0,0.0,0.0,0.0,0.0,0.0,0.0,0.0,0.0,0.0,0.0,0.6529,0.0,0.7128,0.803,0.8767,0.9323,0.0,0.0,0.0,0.0,0.0,0.0,0.0,0.0,0.0,0.0,0.0,0.0,0.0,0.0,0.0,0.0,0.0,0.0,0.0,0.0,0.0,0.0,0.0,0.0,0.0,0.0,0.0,0.0,0.0,0.0,0.0,0.0,0.0,0.0,0.0,0.0,0.0,0.0,0.0,0.0,0.0,0.0,0.0,0.0,0.0,0.0,0.0,0.0,0.0,0.0,0.0,0.0,0.0,0.0,0.0,0.0,0.0,0.0,0.0,0.0,0.0,0.0,0.0,0.0,0.0,0.0,0.0,0.0,0.0,0.0,0.0,0.0,0.0,0.0,0.0,0.0,0.0,0.0,0.0,0.0,0.0,0.0,0.0,0.0,0.0,0.0,0.0,0.0,0.0,0.0,0.0,0.0,0.0,0.0,0.0,0.0,0.0,0.0,0.0,0.0,0.0,0.0,0.0,0.0,0.0,0.0,0.0,0.0,0.0,0.6775,0.717,0.8121,0.924,0.959,0.0,0.0,0.0,0.0,0.0,0.0,0.0,0.0,0.0,0.0,0.0,0.0,0.0,0.0,0.0,0.0,0.0,0.0,0.0,0.0,0.0,0.0,0.0,0.0,0.0,0.0,0.0,0.0,0.0,0.0,0.0,0.0,0.0,0.0,0.0,0.0,0.0,0.0,0.0,0.0,0.0,0.0,0.0,0.0,0.0,0.0,0.0,0.0,0.0,0.0,0.0,0.0,0.0,0.0,0.0,0.0,0.0,0.0,0.0,0.0,0.0,0.0,0.0,0.0,0.0,0.0,0.0,0.0,0.0,0.0,0.0,0.0,0.0,0.0,0.0,0.0,0.0,0.0,0.0,0.0,0.0,0.0,0.0,0.0,0.0,0.0,0.0,0.0,0.0,0.0,0.0,0.0,0.0,0.0,0.0,0.0,0.0,0.0,0.0,0.0,0.0,0.0,0.0,0.0,0.0,0.0,0.0,0.0,0.0,0.6494,0.6902,0.7844,0.9266,0.9172,0.9387,0.0,0.0,0.0,0.0,0.0,0.0,0.0,0.0,0.0,0.0,0.0,0.0,0.0,0.0,0.0,0.0,0.0,0.0,0.0,0.0,0.0,0.0,0.0,0.0,0.0,0.0,0.0,0.0,0.0,0.0,0.0,0.0,0.0,0.0,0.0,0.0,0.0,0.0,0.0,0.0,0.0,0.0,0.0,0.0,0.0,0.0,0.0,0.0,0.0,0.0,0.0,0.0,0.0,0.0,0.0,0.0,0.0,0.0,0.0,0.0,0.0,0.0,0.0,0.0,0.0,0.0,0.0,0.0,0.0,0.0,0.0,0.0,0.0,0.0,0.0,0.0,0.0,0.0,0.0,0.0,0.0,0.0,0.0,0.0,0.0,0.0,0.0,0.0,0.0,0.0,0.0,0.0,0.0,0.0,0.0,0.0,0.0,0.0,0.0,0.0,0.0,0.0,0.0,0.0,0.0,0.0,0.0,0.0,0.0,0.687,0.0,0.8565,0.0,0.9255,0.9331,0.0,0.0,0.0,0.0,0.0,0.0,0.0,0.0,0.0,0.0,0.0,0.0,0.0,0.0,0.0,0.0,0.0,0.0,0.0,0.0,0.0,0.0,0.0,0.0,0.0,0.0,0.0,0.0,0.0,0.0,0.0,0.0,0.0,0.0,0.0,0.0,0.0,0.0,0.0,0.0,0.0,0.0,0.0,0.0,0.0,0.0,0.0,0.0,0.0,0.0,0.0,0.0,0.0,0.0,0.0,0.0,0.0,0.0,0.0,0.0,0.0,0.0,0.0,0.0,0.0,0.0,0.0,0.0,0.0,0.0,0.0,0.0,0.0,0.0,0.0,0.0,0.0,0.0,0.0,0.0,0.0,0.0,0.0,0.0,0.0,0.0,0.0,0.0,0.0,0.0,0.0,0.0,0.0,0.0,0.0,0.0,0.0,0.0,0.0,0.0,0.0,0.0,0.0,0.0,0.0,0.0,0.0,0.0,0.0,0.8212,0.8993,0.9278,0.8995,0.9622,0.9565,0.0,0.0,0.0,0.0,0.0,0.0,0.0,0.0,0.0,0.0,0.0,0.0,0.0,0.0,0.0,0.0,0.0,0.0,0.0,0.0,0.0,0.0,0.0,0.0,0.0,0.0,0.0,0.0,0.0,0.0,0.0,0.0,0.0,0.0,0.0,0.0,0.0,0.0,0.0,0.0,0.0,0.0,0.0,0.0,0.0,0.0,0.0,0.0,0.0,0.0,0.0,0.0,0.0,0.0,0.0,0.0,0.0,0.0,0.0,0.0,0.0,0.0,0.0,0.0,0.0,0.0,0.0,0.0,0.0,0.0,0.0,0.0,0.0,0.0,0.0,0.0,0.0,0.0,0.0,0.0,0.0,0.0,0.0,0.0,0.0,0.0,0.0,0.0,0.0,0.0,0.0,0.0,0.0,0.0,0.0,0.0,0.0,0.0,0.0,0.0,0.0,0.0,0.0,0.0,0.0,0.0,0.0,0.0,0.0,0.8058,0.9288,1.0314,1.098,1.0043,0.9988,0.0,0.0,0.0,0.0,0.0,0.0,0.0,0.0,0.0,0.0,0.0,0.0,0.0,0.0,0.0,0.0,0.0,0.0,0.0,0.0,0.0,0.0,0.0,0.0,0.0,0.0,0.0,0.0,0.0,0.0,0.0,0.0,0.0,0.0,0.0,0.0,0.0,0.0,0.0,0.0,0.0,0.0,0.0,0.0,0.0,0.0,0.0,0.0,0.0,0.0,0.0,0.0,0.0,0.0,0.0,0.0,0.0,0.0,0.0,0.0,0.0,0.0,0.0,0.0,0.0,0.0,0.0,0.0,0.0,0.0,0.0,0.0,0.0,0.0,0.0,0.0,0.0,0.0,0.0,0.0,0.0,0.0,0.0,0.0,0.0,0.0,0.0,0.0,0.0,0.0,0.0,0.0,0.0,0.0,0.0,0.0,0.0,0.0,0.0,0.0,0.0,0.0,0.0,0.0,0.0,0.0,0.0,0.0,0.0,1.0272,1.1107,1.1732,1.2077,1.1115,1.0829,1.1307,0.0,0.0,0.0,0.0,0.0,0.0,0.0,0.0,0.0,0.0,0.0,0.0,0.0,0.0,0.0,0.0,0.0,0.0,0.0,0.0,0.0,0.0,0.0,0.0,0.0,0.0,0.0,0.0,0.0,0.0,0.0,0.0,0.0,0.0,0.0,0.0,0.0,0.0,0.0,0.0,0.0,0.0,0.0,0.0,0.0,0.0,0.0,0.0,0.0,0.0,0.0,0.0,0.0,0.0,0.0,0.0,0.0,0.0,0.0,0.0,0.0,0.0,0.0,0.0,0.0,0.0,0.0,0.0,0.0,0.0,0.0,0.0,0.0,0.0,0.0,0.0,0.0,0.0,0.0,0.0,0.0,0.0,0.0,0.0,0.0,0.0,0.0,0.0,0.0,0.0,0.0,0.0,0.0,0.0,0.0,0.0,0.0,0.0,0.0,0.0,0.0,0.0,0.0,0.0,0.0,0.0,0.0,0.0,1.4301,1.4302,1.3766,1.261,1.2796,1.211,0.0,0.0,0.0,0.0,0.0,0.0,0.0,0.0,0.0,0.0,0.0,0.0,0.0,0.0,0.0,0.0,0.0,0.0,0.0,0.0,0.0,0.0,0.0,0.0,0.0,0.0,0.0,0.0,0.0,0.0,0.0,0.0,0.0,0.0,0.0,0.0,0.0,0.0,0.0,0.0,0.0,0.0,0.0,0.0,0.0,0.0,0.0,0.0,0.0,0.0,0.0,0.0,0.0,0.0,0.0,0.0,0.0,0.0,0.0,0.0,0.0,0.0,0.0,0.0,0.0,0.0,0.0,0.0,0.0,0.0,0.0,0.0,0.0,0.0,0.0,0.0,0.0,0.0,0.0,0.0,0.0,0.0,0.0,0.0,0.0,0.0,0.0,0.0,0.0,0.0,0.0,0.0,0.0,0.0,0.0,0.0,0.0,0.0,0.0,0.0,0.0,0.0,0.0,0.0,0.0,0.0,0.0,0.0,0.0,1.6881,1.836,1.8245,1.6398,1.5106,1.4281,0.0,0.0,0.0,0.0,0.0,0.0,0.0,0.0,0.0,0.0,0.0,0.0,0.0,0.0,0.0,0.0,0.0,0.0,0.0,0.0,0.0,0.0,0.0,0.0,0.0,0.0,0.0,0.0,0.0,0.0,0.0,0.0,0.0,0.0,0.0,0.0,0.0,0.0,0.0,0.0,0.0,0.0,0.0,0.0,0.0,0.0,0.0,0.0,0.0,0.0,0.0,0.0,0.0,0.0,0.0,0.0,0.0,0.0,0.0,0.0,0.0,0.0,0.0,0.0,0.0,0.0,0.0,0.0,0.0,0.0,0.0,0.0,0.0,0.0,0.0,0.0,0.0,0.0,0.0,0.0,0.0,0.0,0.0,0.0,0.0,0.0,0.0,0.0,0.0,0.0,0.0,0.0,0.0,0.0,0.0,0.0,0.0,0.0,0.0,0.0,0.0,0.0,0.0,0.0,0.0,0.0,0.0,0.0,1.7135,1.9703,2.1657,2.1886,2.0311,1.8266,1.6595,0.0,0.0,0.0,0.0,0.0,0.0,0.0,0.0,0.0,0.0,0.0,0.0,0.0,0.0,0.0,0.0,0.0,0.0,0.0,0.0,0.0,0.0,0.0,0.0,0.0,0.0,0.0,0.0,0.0,0.0,0.0,0.0,0.0,0.0,0.0,0.0,0.0,0.0,0.0,0.0,0.0,0.0,0.0,0.0,0.0,0.0,0.0,0.0,0.0,0.0,0.0,0.0,0.0,0.0,0.0,0.0,0.0,0.0,0.0,0.0,0.0,0.0,0.0,0.0,0.0,0.0,0.0,0.0,0.0,0.0,0.0,0.0,0.0,0.0,0.0,0.0,0.0,0.0,0.0,0.0,0.0,0.0,0.0,0.0,0.0,0.0,0.0,0.0,0.0,0.0,0.0,0.0,0.0,0.0,0.0,0.0,0.0,0.0,0.0,0.0,0.0,0.0,0.0,0.0,0.0,0.0,0.0,0.0,1.8975,2.2394,2.4165,2.474,2.3975,2.1735,1.9028,0.0,0.0,0.0,0.0,0.0,0.0,0.0,0.0,0.0,0.0,0.0,0.0,0.0,0.0,0.0,0.0,0.0,0.0,0.0,0.0,0.0,0.0,0.0,0.0,0.0,0.0,0.0,0.0,0.0,0.0,0.0,0.0,0.0,0.0,0.0,0.0,0.0,0.0,0.0,0.0,0.0,0.0,0.0,0.0,0.0,0.0,0.0,0.0,0.0,0.0,0.0,0.0,0.0,0.0,0.0,0.0,0.0,0.0,0.0,0.0,0.0,0.0,0.0,0.0,0.0,0.0,0.0,0.0,0.0,0.0,0.0,0.0,0.0,0.0,0.0,0.0,0.0,0.0,0.0,0.0,0.0,0.0,0.0,0.0,0.0,0.0,0.0,0.0,0.0,0.0,0.0,0.0,0.0,0.0,0.0,0.0,0.0,0.0,0.0,0.0,0.0,0.0,0.0,0.0,0.0,0.0,0.0,0.0,2.1061,2.3434,2.5277,2.6156,2.5978,2.365,2.1175,0.0,0.0,0.0,0.0,0.0,0.0,0.0,0.0,0.0,0.0,0.0,0.0,0.0,0.0,0.0,0.0,0.0,0.0,0.0,0.0,0.0,0.0,0.0,0.0,0.0,0.0,0.0,0.0,0.0,0.0,0.0,0.0,0.0,0.0,0.0,0.0,0.0,0.0,0.0,0.0,0.0,0.0,0.0,0.0,0.0,0.0,0.0,0.0,0.7246,0.0,0.0,0.0,0.0,0.0,0.0,0.0,0.0,0.0,0.0,0.0,0.0,0.0,0.0,0.0,0.0,0.0,0.0,0.0,0.0,0.0,0.0,0.0,0.0,0.0,0.0,0.0,0.0,0.0,0.0,0.0,0.0,0.0,0.0,0.0,0.0,0.0,0.0,0.0,0.0,0.0,0.0,0.0,0.0,0.0,0.0,0.0,0.0,0.0,0.0,0.0,0.0,0.0,0.0,0.0,0.0,0.0,0.0,0.0,2.2871,2.536,2.6573,2.7158,2.7108,2.5543,2.3359,0.0,0.0,0.0,0.0,0.0,0.0,0.0,0.0,0.0,0.0,0.0,0.0,0.0,0.0,0.0,0.0,0.0,0.0,0.0,0.0,0.0,0.0,0.0,0.0,0.0,0.0,0.0,0.0,0.0,0.0,0.0,0.0,0.0,0.0,0.0,0.0,0.0,0.0,0.0,0.0,0.0,0.0,0.0,0.0,0.0,0.0,0.0,0.0,0.0,0.0,0.0,0.0,0.0,0.0,0.0,0.0,0.0,0.0,0.0,0.0,0.0,0.0,0.0,0.0,0.0,0.0,0.0,0.0,0.0,0.0,0.0,0.0,0.0,0.0,0.0,0.0,0.0,0.0,0.0,0.0,0.0,0.0,0.0,0.0,0.0,0.0,0.0,0.0,0.0,0.0,0.0,0.0,0.0,0.0,0.0,0.0,0.0,0.0,0.0,0.0,0.0,0.0,0.0,0.0,0.0,0.0,0.0,2.135,2.4332,2.7229,2.7772,2.7994,2.797,2.7084,2.5217,0.0,0.0,0.0,0.0,0.0,0.0,0.0,0.0,0.0,0.0,0.0,0.0,0.0,0.0,0.0,0.0,0.0,0.0,0.0,0.0,0.0,0.0,0.0,0.0,0.0,0.0,0.0,0.0,0.0,0.0,0.0,0.0,0.0,0.0,0.0,0.0,0.0,0.0,0.0,0.9019,1.1519,0.0,0.0,0.0,0.0,0.0,0.0,0.0,0.0,1.0241,0.0,0.0,0.0,0.0,0.0,0.0,0.0,0.0,0.0,0.0,0.0,0.0,0.0,0.0,0.0,0.0,0.0,0.0,0.0,0.0,0.0,0.0,0.0,0.0,0.0,0.0,0.0,0.0,0.0,0.0,0.0,0.0,0.0,0.0,0.0,0.0,0.0,0.0,0.0,0.0,0.0,0.0,0.0,0.0,0.0,0.0,0.0,0.0,0.0,0.0,0.0,0.0,0.0,0.0,0.0,0.0,2.0894,2.2737,2.4941,2.7647,2.8438,2.8803,2.8767,2.7378,2.5708,2.3823,0.0,0.0,0.0,0.0,0.0,0.0,0.0,0.0,0.0,0.0,0.0,0.0,0.0,0.0,0.0,0.0,0.0,0.0,0.0,0.0,0.0,0.0,0.0,0.0,0.0,0.0,0.0,0.0,0.0,0.0,0.0,0.0,0.0,0.0,0.0,0.0,0.0,0.0,0.0,1.4935,1.6508,0.0,0.0,0.0,0.0,0.0,0.0,0.0,0.0,1.1343,0.0,0.0,0.0,0.0,0.0,0.0,0.0,0.0,0.0,0.0,0.0,0.0,0.0,0.0,0.0,0.0,0.0,0.0,0.0,0.0,0.0,0.0,0.0,0.0,0.0,0.0,0.0,0.0,0.0,0.0,0.0,0.0,0.0,0.0,0.0,0.0,0.0,0.0,0.0,0.0,0.0,0.0,0.0,0.0,0.0,0.0,0.0,0.0,0.0,0.0,0.0,0.0,0.0,0.0,0.0,2.1844,2.4536,2.6699,2.8369,2.8803,2.8987,2.895,2.7034,2.5419,0.0,0.0,0.0,0.0,0.0,0.0,0.0,0.0,0.0,0.0,0.0,0.0,0.0,0.0,0.0,0.0,0.0,0.0,0.0,0.0,0.0,0.0,0.0,0.0,0.0,0.0,0.0,0.0,0.0,0.0,0.0,0.0,0.0,0.0,0.0,0.0,0.0,0.0,0.0,0.0,1.6702,1.7984,1.9141,0.0,0.0,0.0,0.0,0.0,0.0,1.3304,1.3544,0.0,0.0,0.0,0.0,0.0,0.0,0.0,0.0,0.0,0.0,0.0,0.0,0.0,0.0,0.0,0.0,0.0,0.0,0.0,0.0,0.0,0.0,0.0,0.0,0.0,0.0,0.0,0.0,0.0,0.0,0.0,0.0,0.0,0.0,0.0,0.0,0.0,0.0,0.0,0.0,0.0,0.0,0.0,0.0,0.0,0.0,0.0,0.0,0.0,0.0,0.0,0.0,0.0,0.0,0.0,2.2314,2.5949,2.8264,2.9189,2.9244,2.9244,2.9207,2.7058,2.5341,0.0,0.0,0.0,0.0,0.0,0.0,0.0,0.0,0.0,0.0,0.0,0.0,0.0,0.0,0.0,0.0,0.0,0.0,0.0,0.0,0.0,0.0,0.0,0.0,0.0,0.0,0.0,0.0,0.0,0.0,0.0,0.0,0.0,0.0,0.0,0.0,0.0,0.0,0.0,0.0,0.0,1.9781,2.1872,1.9951,0.0,0.0,0.0,0.0,1.6595,1.7073,0.0,0.0,0.0,0.0,0.0,0.0,0.0,0.0,0.0,0.0,0.0,0.0,0.0,0.0,0.0,0.0,0.0,0.0,0.0,0.0,0.0,0.0,0.0,0.0,0.0,0.0,0.0,0.0,0.0,0.0,0.0,0.0,0.0,0.0,0.0,0.0,0.0,0.0,0.0,0.0,0.0,0.0,0.0,0.0,0.0,0.0,0.0,0.0,0.0,0.0,0.0,0.0,0.0,0.0,0.0,0.0,2.2291,2.5931,2.8545,2.9965,3.0057,3.0063,3.0038,2.8417,2.6373,0.0,0.0,0.0,0.0,0.0,0.0,0.0,0.0,0.0,0.0,0.0,0.0,0.0,0.0,0.0,0.0,0.0,0.0,0.0,0.0,0.0,0.0,0.0,0.0,0.0,0.0,0.0,0.0,0.0,0.0,0.0,0.0,0.0,0.0,0.0,0.0,0.0,0.0,0.0,0.0,0.0,2.322,2.2627,2.2024,2.194,0.0,0.0,0.0,2.244,2.2039,0.0,0.0,0.0,0.0,0.0,0.0,0.0,0.0,0.0,0.0,0.0,0.0,0.0,0.0,0.0,0.0,0.0,0.0,0.0,0.0,0.0,0.0,0.0,0.0,0.0,0.0,0.0,0.0,0.0,0.0,0.0,0.0,0.0,0.0,0.0,0.0,0.0,0.0,0.0,0.0,0.0,0.0,0.0,0.0,0.0,0.0,0.0,0.0,0.0,0.0,0.0,0.0,0.0,0.0,0.0,0.0,2.3826,2.7354,2.9714,3.0834,3.0895,3.0668,3.0204,2.8209,2.6072,0.0,0.0,0.0,0.0,0.0,0.0,0.0,0.0,0.0,0.0,0.0,0.0,0.0,0.0,0.0,0.0,0.0,0.0,0.0,0.0,0.0,0.0,0.0,0.0,0.0,0.0,0.0,0.0,0.0,0.0,0.0,0.0,0.0,0.0,0.0,0.0,0.0,0.0,0.0,0.0,0.0,0.0,2.4559,2.4045,0.0,0.0,0.0,2.5074,2.7041,0.0,0.0,0.0,0.0,0.0,0.0,0.0,0.0,0.0,0.0,0.0,0.0,0.0,0.0,0.0,0.0,0.0,0.0,0.0,0.0,0.0,0.0,0.0,0.0,0.0,0.0,0.0,0.0,0.0,0.0,0.0,0.0,0.0,0.0,0.0,0.0,0.0,0.0,0.0,0.0,0.0,0.0,0.0,0.0,0.0,0.0,0.0,0.0,0.0,0.0,0.0,0.0,0.0,0.0,0.0,0.0,0.0,2.4994,2.8643,3.0889,3.1647,3.1721,3.1311,3.0503,2.835,0.0,0.0,0.0,0.0,0.0,0.0,0.0,0.0,0.0,0.0,0.0,0.0,0.0,0.0,0.0,0.0,0.0,0.0,0.0,0.0,0.0,0.0,0.0,0.0,0.0,0.0,0.0,0.0,0.0,0.0,0.0,0.0,0.0,0.0,0.0,0.0,0.0,0.0,0.0,0.0,0.0,0.0,2.4014,2.6567,2.654,2.6823,0.0,0.0,2.8228,3.0476,3.0078,2.8141,0.0,0.0,0.0,0.0,0.0,0.0,0.0,0.0,0.0,0.0,0.0,0.0,0.0,0.0,0.0,0.0,0.0,0.0,0.0,0.0,0.0,0.0,0.0,0.0,0.0,0.0,0.0,0.0,0.0,0.0,0.0,0.0,0.0,0.0,0.0,0.0,0.0,0.0,0.0,0.0,0.0,0.0,0.0,0.0,0.0,0.0,0.0,0.0,0.0,0.0,0.0,0.0,0.0,0.0,0.0,2.5038,2.9168,3.1696,3.2479,3.2509,3.2137,3.1317,2.9714,2.7128,0.0,0.0,0.0,0.0,0.0,0.0,0.0,0.0,0.0,0.0,0.0,0.0,0.0,0.0,0.0,0.0,0.0,0.0,0.0,0.0,0.0,0.0,0.0,0.0,0.0,0.0,0.0,0.0,0.0,0.0,0.0,0.0,0.0,0.0,0.0,0.0,0.0,0.0,0.0,0.0,0.0,2.739,2.8249,2.9897,3.1286,0.0,0.0,3.2205,3.2342,3.3868,3.2873,2.6472,0.0,0.0,0.0,0.0,0.0,0.0,0.0,0.0,0.0,0.0,0.0,0.0,0.0,0.0,0.0,0.0,0.0,0.0,0.0,0.0,0.0,0.0,0.0,0.0,0.0,0.0,0.0,0.0,0.0,0.0,0.0,0.0,0.0,0.0,0.0,0.0,0.0,0.0,0.0,0.0,0.0,0.0,0.0,0.0,0.0,0.0,0.0,0.0,0.0,0.0,0.0,0.0,0.0,2.2785,2.5966,2.9569,3.2033,3.3275,3.3341,3.2963,3.2155,3.0354,2.7953,0.0,0.0,0.0,0.0,0.0,0.0,0.0,0.0,0.0,0.0,0.0,0.0,0.0,0.0,0.0,0.0,0.0,0.0,0.0,0.0,0.0,0.0,0.0,0.0,0.0,0.0,0.0,0.0,0.987,1.0355,1.0449,0.0,0.0,0.0,0.0,0.0,0.0,0.0,0.0,0.0,0.0,2.9343,3.0866,3.2053,0.0,0.0,3.3494,3.3487,3.4292,3.506,3.3639,2.7874,2.1962,0.0,0.0,0.0,0.0,0.0,0.0,0.0,0.0,0.0,0.0,0.0,0.0,0.0,0.0,0.0,0.0,0.0,0.0,0.0,0.0,0.0,0.0,0.0,0.0,0.0,0.0,0.0,0.0,0.0,0.0,0.0,0.0,0.0,0.0,0.0,0.0,0.0,0.0,0.0,0.0,0.0,0.0,0.0,0.0,0.0,0.0,0.0,0.0,0.0,0.0,0.0,0.0,2.3332,2.6924,3.0118,3.2412,3.3788,3.3807,3.3415,3.2594,3.0891,2.8718,0.0,0.0,0.0,0.0,0.0,0.0,0.0,0.0,0.0,0.0,0.0,0.0,0.0,0.0,0.0,0.0,0.0,0.0,0.0,0.0,0.0,0.0,0.0,0.0,0.0,0.0,0.0,0.0,1.1269,1.1352,1.0824,0.0,0.0,0.0,0.0,0.0,0.0,0.0,0.0,0.0,0.0,3.0904,3.2722,3.3674,3.4387,3.4886,3.4349,3.4202,3.5132,3.5442,3.3903,2.8965,0.0,0.0,0.0,0.0,0.0,0.0,0.0,0.0,0.0,0.0,0.0,0.0,0.0,0.0,0.0,0.0,0.0,0.0,0.0,0.0,0.0,0.0,0.0,0.0,0.0,0.0,0.0,0.0,0.0,0.0,0.0,0.0,0.0,0.0,0.0,0.0,0.0,0.0,0.0,0.0,0.0,0.0,0.0,0.0,0.0,0.0,0.0,0.0,0.0,0.0,0.0,0.0,0.0,0.0,2.7732,3.0907,3.2956,3.377,3.3807,3.3415,3.2649,3.1413,2.9498,2.6792,0.0,0.0,0.0,0.0,0.0,0.0,0.0,0.0,0.0,0.0,0.0,0.0,0.0,0.0,0.0,0.0,0.0,0.0,0.0,0.0,0.0,0.0,0.0,0.0,0.0,0.0,1.1342,1.1189,1.068,0.0,0.0,0.0,0.0,0.0,0.0,0.0,0.0,0.0,0.0,2.9504,3.2154,3.3461,3.4727,3.5583,3.5645,3.4997,3.4512,3.459,3.5137,3.4089,0.0,0.0,0.0,0.0,0.0,0.0,0.0,0.0,0.0,0.0,0.0,0.0,0.0,0.0,0.0,0.0,0.0,0.0,0.0,0.0,0.0,0.0,0.0,0.0,0.0,0.0,0.0,0.0,1.1795,0.0,0.0,0.0,0.0,0.0,0.0,0.0,0.0,0.0,0.0,0.0,2.0726,2.2116,0.0,0.0,0.0,0.0,0.0,0.0,0.0,0.0,0.0,0.0,0.0,0.0,2.4684,2.777,3.0974,3.2993,3.377,3.3807,3.366,3.3396,3.1975,2.9321,2.5397,0.0,0.0,0.0,0.0,0.0,0.0,0.0,0.0,0.0,0.0,0.0,0.0,0.0,0.0,0.0,0.0,0.0,0.0,0.0,0.0,0.0,0.0,0.0,0.0,0.0,1.2183,0.0,0.0,0.0,0.0,0.0,0.0,0.0,0.0,0.0,0.0,0.0,2.6215,2.9547,3.2482,3.4807,3.6251,3.6841,3.7313,0.0,0.0,0.0,0.0,0.0,0.0,0.0,0.0,0.0,0.0,0.0,0.0,0.0,0.0,2.7618,2.1928,1.9929,1.9559,2.0942,0.0,0.0,0.0,0.0,0.0,0.0,0.0,0.0,0.0,0.0,0.0,0.0,0.0,0.0,0.0,0.0,1.5004,0.0,0.0,0.0,0.0,0.0,0.0,0.0,0.0,2.2637,2.4346,2.4339,2.5488,2.5429,0.0,2.3671,2.1807,0.0,0.0,0.0,0.0,0.0,0.0,0.0,0.0,2.5868,2.9005,3.1947,3.3837,3.4633,3.4658,3.4582,3.436,3.2563,2.9705,2.5784,2.3894,2.1817,0.0,0.0,0.0,0.0,0.0,0.0,0.0,0.0,0.0,0.0,0.0,0.0,0.0,0.0,0.0,0.0,0.0,0.0,0.0,0.0,0.0,0.0,0.0,1.3906,0.0,0.0,0.0,0.0,0.0,0.0,0.0,0.0,0.0,2.8882,2.8808,2.964,3.3022,3.4931,3.6468,3.7736,0.0,0.0,0.0,0.0,0.0,0.0,0.0,3.3751,3.4782,3.6608,3.6874,3.3687,3.4035,3.4417,3.3389,0.0,0.0,2.6873,2.4889,2.4536,2.587,2.6761,2.747,2.8084,2.9837,3.1099,0.0,0.0,0.0,0.0,0.0,0.0,0.0,0.0,2.0613,2.0575,0.0,1.8596,0.0,0.0,0.0,0.0,0.0,0.0,0.0,0.0,2.7053,2.8595,2.7866,2.7874,2.7891,0.0,2.7367,2.6441,2.4954,2.0677,0.0,0.0,0.0,0.0,0.0,0.0,2.7766,3.1341,3.3782,3.5445,3.6229,3.6266,3.6013,3.5427,3.3204,3.072,2.8045,2.7165,2.5447,2.2557,0.0,0.0,0.0,0.0,0.0,0.0,0.0,0.0,0.0,0.0,0.0,0.0,0.0,0.0,0.0,0.0,0.0,0.0,0.0,0.0,0.0,1.5087,0.0,0.0,0.0,0.0,0.0,0.0,0.0,0.0,0.0,0.0,3.2386,3.2229,3.3061,3.6337,0.0,0.0,0.0,0.0,3.7995,3.8108,3.8029,3.8012,3.8041,3.5594,3.4675,3.7533,0.0,0.0,3.754,3.8103,3.8046,3.5261,3.5977,3.6306,3.4288,3.1219,3.0035,3.237,3.1693,3.1243,3.2749,3.4499,3.5327,2.6976,0.0,0.0,0.0,0.0,2.3426,2.4129,2.5363,2.4874,2.4274,2.3523,2.2973,0.0,0.0,0.0,0.0,0.0,0.0,2.4788,2.5404,2.7861,2.917,2.9447,2.9973,2.9946,2.9447,2.9308,2.8766,2.7819,2.5958,2.3311,2.0011,0.0,0.0,0.0,0.0,3.0423,3.2276,3.4688,3.6046,3.6285,3.6285,3.5874,3.5019,3.4015,3.2437,3.0322,2.9523,2.7985,2.5541,2.3091,0.0,0.0,0.0,0.0,0.0,0.0,0.0,0.0,0.0,0.0,0.0,0.0,0.0,0.0,0.0,0.0,0.0,0.0,0.0,1.522,1.608,1.6467,0.0,0.0,0.0,0.0,0.0,0.0,0.0,0.0,0.0,3.5172,3.5083,3.5404,0.0,0.0,3.8041,3.9297,3.9478,3.9846,4.0895,0.0,0.0,0.0,3.9094,3.8654,4.0024,4.1407,4.1758,4.0189,4.029,4.0121,3.8691,3.9176,3.9412,3.8337,3.527,3.3867,3.6003,3.6317,3.6371,3.7488,3.8933,4.0016,3.1918,2.8487,2.7348,2.7185,2.7679,2.7614,2.8253,2.9297,2.8609,2.8103,2.7703,2.6629,2.51,2.3382,2.3438,0.0,0.0,0.0,2.7645,2.8261,3.0183,3.1175,3.143,3.2071,3.2034,3.1417,3.141,3.1291,3.1051,3.0563,2.869,0.0,0.0,0.0,2.644,2.9776,3.2333,3.405,3.5851,3.6916,3.7232,3.6864,3.6133,3.5023,3.452,3.3574,3.2124,3.136,3.0202,2.8544,2.6194,2.3382,0.0,0.0,0.0,0.0,0.0,0.0,0.0,0.0,0.0,0.0,0.0,1.0002,0.0,0.0,0.0,0.0,1.4655,1.7427,1.8617,1.8974,0.0,0.0,0.0,0.0,0.0,0.0,0.0,2.8949,3.1993,3.4796,3.7188,3.7892,3.8422,3.9125,3.9208,3.9648,4.0802,0.0,4.1284,4.2181,4.2168,4.2036,4.1952,4.1914,4.2019,4.2472,4.2625,4.2711,4.2505,4.2219,4.1808,4.1386,4.1487,4.1538,4.1082,3.8906,3.7586,3.9146,3.9962,4.0407,4.0501,4.137,4.2253,3.6491,3.5549,3.2848,3.1664,3.1613,3.2266,3.2547,3.2486,3.1765,3.1826,3.228,2.9672,2.8208,2.7612,2.666,0.0,0.0,2.997,3.117,3.1672,3.3486,3.4111,3.373,3.4202,3.419,3.3726,3.3654,3.3863,3.4303,3.4274,3.3851,3.2954,2.9779,2.917,3.1059,3.2109,3.3864,3.6358,3.7173,3.7947,3.859,3.7649,3.6597,3.5416,3.4878,3.4218,3.3423,3.274,3.2012,3.1173,2.9098,2.6315,2.2874,0.0,0.0,0.0,0.0,0.0,0.0,0.0,0.0,0.0,0.0,0.0,0.0,0.0,0.0,0.0,1.8054,0.0,2.2702,2.286,0.0,0.0,0.0,2.3708,2.4983,2.8632,3.0977,3.0843,0.0,0.0,0.0,0.0,4.1627,4.1407,4.1326,4.1559,4.2286,4.2367,4.2405,4.2553,4.3064,4.3406,4.3247,4.3919,4.4528,4.4599,4.4075,4.3731,4.3999,4.3566,4.312,4.2692,4.2809,4.2786,4.2482,4.1958,4.1831,4.151,4.2476,4.3105,4.2197,4.2368,4.2689,3.7911,3.7285,3.6603,3.5628,3.4562,3.4748,3.4816,3.4748,3.4043,3.3823,3.3846,3.2114,3.1109,3.0718,3.0256,3.0833,3.2179,3.2738,3.3679,3.4946,3.5435,3.5894,3.6383,3.6496,3.6487,3.6338,3.5755,3.552,3.5639,3.5233,3.5323,3.5786,3.5181,3.4182,3.2933,3.5078,3.6553,3.7191,3.7999,3.8321,3.8064,3.7106,3.6452,3.6146,3.5614,3.4731,3.3446,3.3227,3.2527,3.1231,2.9715,2.7806,2.5559,2.1802,0.0,0.0,0.0,0.0,0.0,0.0,0.0,0.0,0.0,1.4488,1.171,0.0,1.7492,0.0,2.0344,2.2679,2.4018,2.4181,0.0,0.0,2.7491,2.8649,3.1844,3.3233,3.4312,3.5368,3.7108,3.8903,4.0663,4.1965,4.278,4.2848,4.2388,4.2303,4.3,4.3118,4.3369,4.3904,4.4172,4.4296,4.427,4.4953,4.563,4.5915,4.5287,4.4652,4.4226,4.3481,4.278,4.2242,4.245,4.2763,4.2923,4.3005,4.3357,4.3811,4.3775,4.3436,4.3142,4.3214,4.3615,3.9907,3.9646,3.9646,3.9144,3.8292,3.7132,3.6746,3.6913,3.6199,3.6044,3.6208,3.5035,3.4417,3.4267,3.4307,3.4693,3.5332,3.5863,3.6506,3.7198,3.772,3.8095,3.8327,3.8552,3.8525,3.8318,3.7863,3.777,3.7936,3.7677,3.7935,3.8702,3.8856,3.8101,3.6558,3.7859,3.8733,3.9093,3.927,3.8994,3.8222,3.7365,3.6626,3.606,3.5449,3.4562,3.3429,3.2753,3.1945,3.0868,2.9516,2.7923,2.6073,2.339,2.087,0.0,0.0,0.0,0.0,0.0,0.0,0.0,0.0,0.0,0.0,0.0,2.0398,0.0,0.0,0.0,2.7208,2.818,2.9489,3.1343,3.179,3.3178,3.6291,3.7233,3.7831,3.8369,4.0029,4.1803,4.3511,4.4404,4.4828,4.4746,4.4375,4.407,4.3949,4.3944,4.419,4.4862,4.4998,4.4893,4.4654,4.592,4.697,4.7053,4.5833,4.4664,4.4485,4.3666,4.2961,4.2857,4.3199,4.3588,4.3734,4.3862,4.4187,4.4541,4.4612,4.4353,4.4057,4.3992,4.4397,4.1874,4.181,4.181,4.181,4.1601,3.9365,3.8666,3.904,3.8313,3.8178,3.8459,3.7806,3.7478,3.7416,3.7876,3.7922,3.7694,3.8715,3.9121,3.9051,4.0067,4.0391,4.012,4.0509,4.0481,4.0101,4.0002,4.0159,4.0555,4.0456,4.0707,4.1244,4.1276,4.1038,4.0546,4.0345,4.0484,4.0857,4.0293,3.9528,3.8622,3.7843,3.6836,3.565,3.4878,3.41,3.3271,3.2019,3.1079,3.0499,2.9134,2.7638,2.6072,2.4563,2.2934,0.0,1.975,0.0,0.0,0.0,0.0,0.0,0.0,0.0,0.0,2.1779,2.3259,2.5213,2.7949,3.0054,3.1127,3.2933,3.4223,3.4592,3.5782,3.7379,3.9395,4.0724,4.1255,4.0854,4.2963,4.4988,4.62,4.6842,4.6916,4.6366,4.6194,4.583,4.5085,4.4855,4.502,4.5441,4.5557,4.5416,4.5105,4.6619,4.7942,4.7674,4.602,4.454,4.5027,4.4126,4.3492,4.3938,4.4299,4.458,4.4651,4.4612,4.4618,4.4763,4.5166,4.5273,4.472,4.4527,4.4904,4.2234,4.181,4.181,4.181,4.1754,4.1257,4.1123,4.1166,4.0432,3.9509,3.8541,3.8699,3.8437,3.7929,3.8358,3.8878,3.9406,3.9636,4.0406,4.1571,4.1822,4.2224,4.2748,4.2855,4.2855,4.2721,4.211,4.1834,4.1894,4.1425,4.1497,4.2059,4.2296,4.2336,0.0,0.0,0.0,0.0,3.9188,3.879,3.8561,3.7501,3.6514,3.5628,3.4895,0.0,3.2571,3.2242,3.1762,3.1052,2.9851,0.0,0.0,0.0,0.0,0.0,0.0,0.0,0.0,0.0,0.0,0.0,2.4972,2.4113,2.2867,2.5,2.7326,2.9364,3.1259,3.2792,3.3924,3.4899,3.6406,3.8579,3.9558,4.0868,4.293,4.3429,4.3817,4.4515,4.5039,4.5759,4.6787,4.7057,4.6921,4.656,4.6389,4.6312,4.6124,4.6039,4.5842,4.5429,4.5805,4.5965,4.5425,4.6397,4.6962,4.6368,4.5966,4.5525,4.5514,4.4744,4.4128,4.4447,4.4676,4.4895,4.4977,4.4794,4.4787,4.5293,4.5508,4.541,4.4745,4.4599,4.5032,4.3636,0.0,4.3195,4.3177,0.0,0.0,4.3195,4.3115,4.2123,4.143,4.0999,4.1196,4.1082,4.0725,4.0956,4.1277,4.1689,4.167,4.2111,4.2882,4.29,4.3121,4.3488,4.3488,4.3488,4.3488,4.3084,4.29,4.2883,4.2593,4.2593,4.2883,4.2758,4.2557,4.2234,4.17,4.099,4.0147,3.9872,3.9618,3.9321,3.8406,3.7342,3.6214,0.0,0.0,0.0,0.0,0.0,0.0,0.0,0.0,0.0,0.0,0.0,2.6964,2.6093,2.5842,2.6485,2.6545,2.7248,2.8876,2.9693,2.9355,2.7525,2.8716,3.0569,3.3077,3.5908,3.7719,3.7906,3.8891,4.0231,4.1852,4.2386,4.331,4.4864,4.5222,4.5684,4.671,4.6929,4.7145,4.7622,4.7705,4.7604,4.7377,4.7345,4.7327,4.7281,4.679,4.624,4.5979,4.5979,4.6023,4.5727,4.5624,4.6013,4.6017,4.5961,4.5829,4.5817,4.5114,4.4606,4.4818,4.5061,4.5278,4.5322,4.5192,4.5192,4.5504,4.5594,4.5513,4.515,4.5083,4.5445,4.5246,4.4819,4.48,4.4725,4.4593,4.4593,4.4593,4.4534,0.0,0.0,0.0,4.3631,4.3589,4.3589,4.354,4.3488,4.3488,4.3488,4.3488,4.3488,4.3488,4.3488,4.3488,4.3488,4.3488,4.3488,4.3488,4.3488,4.3488,4.3488,4.3444,4.333,4.292,4.2332,4.1621,4.0618,4.0323,4.0733,4.0756,4.0558,4.0104,3.9389,3.8345,3.7021,3.5633,3.429,3.2926,3.1715,3.0818,3.024,2.9572,2.9215,2.9196,2.9152,2.9566,3.0568,3.0673,3.1013,3.1817,3.1876,3.2114,3.259,3.3847,3.4107,3.2899,3.2467,3.3577,3.674,4.0667,4.2633,4.1763,4.2703,4.3763,4.4485,4.4569,4.5108,4.6416,4.6643,4.7078,4.8073,4.8212,4.8296,4.8259,4.8345,4.8421,4.8439,4.844,4.8513,4.8338,4.7282,4.6478,4.6608,4.6107,4.5611,4.5537,4.5278,4.5204,4.5992,4.593,4.578,4.5691,4.537,4.5118,4.5175,4.5424,4.5559,4.559,4.5564,4.5594,4.5594,4.5594,4.5594,4.5594,4.559,4.5856,4.6346,4.5637,4.5637,4.5222,4.4593,4.4593,4.4593,4.458,4.4395,4.4373,4.4438,4.4084,4.3943,4.3909,4.3629,4.3488,4.3488,4.3488,4.3488,0.0,4.3488,4.3488,4.3488,4.3488,4.3488,4.3488,4.3488,4.3488,4.3488,4.3488,4.3286,4.2846,4.274,4.2131,4.1064,4.0405,4.0146,4.0217,4.0217,4.0184,4.0096,3.9372,3.8599,3.777,3.6919,3.6073,3.5171,3.4901,3.451,3.3787,3.3197,3.2554,3.1888,3.1339,3.1167,3.1346,3.1361,3.1946,3.328,3.3396,3.4438,3.6746,3.7733,3.7861,3.7094,3.589,3.6878,4.0841,4.3982,4.5276,4.4018,4.4004,4.4674,4.5805,4.6015,4.653,4.7792,4.7932,4.8016,4.8268,4.8315,4.8306,4.8335,4.8604,4.8854,4.8996,4.911,4.9314,4.9012,4.7628,4.6692,4.6664,4.5705,4.49,4.4939,4.5238,4.5383,4.5293,4.5536,4.5649,4.5644,4.5525,4.5452,4.5508,4.5544,4.5586,4.5594,4.5594,4.5594,4.5594,4.5594,4.5594,4.5594,4.5594,4.5859,4.6969,4.6375,4.5884,4.5483,4.5145,4.5145,4.5145,4.5145,4.514,4.4918,4.4567,4.4168,4.4016,4.3978,4.3654,4.3488,4.3488,4.3488,4.3488,4.3488,4.3488,4.3488,4.3488,4.3488,4.3488,4.3488,4.3488,4.3488,4.3488,4.3488,4.3232,4.2684,4.2059,4.1291,4.0492,4.0229,4.0113,4.0113,4.0113,4.0113,4.0113,3.9762,3.9254,3.8514,3.7787,3.7026,3.6282,3.5831,3.5447,3.5098,3.4486,3.3974,3.3603,3.2945,3.2915,3.3647,3.3736,3.4348,3.5826,3.662,3.7912,3.9993,4.08,4.1413,4.1895,3.9539,3.9696,4.3442,4.606,4.7025,4.604,4.5942,4.6323,4.7284,4.7388,4.7623,4.8157,4.8315,4.8315,4.8325,4.8495,4.8532,4.8316,4.8839,4.9311,4.9489,4.9566,4.9601,4.9768,4.8637,4.7591,4.7251,4.5805,4.4946,4.5094,4.5366,4.5508,4.5376,4.548,4.5586,4.5594,4.5594,4.5594,4.5594,4.5594,4.5594,4.5594,4.5594,4.5594,4.5594,4.5594,4.5594,4.5594,4.5594,4.5744,4.763,4.7081,4.6259,4.5782,4.5594,4.5594,4.5594,4.5594,4.559,4.5317,4.4806,4.4346,4.4132,4.408,4.3695,4.3488,4.3488,4.3488,4.3488,4.3488,4.3488,4.3488,4.3488,4.3488,4.3488,4.3488,4.3488,4.3417,4.3339,4.333,4.2968,4.2254,4.1252,4.0521,4.0108,4.0113,4.018,4.035,4.0367,4.0269,4.0113,4.0113,3.991,3.9508,3.8797,3.8205,3.7782,3.7014,3.6539,3.6323,3.5855,3.549,3.532,3.4954,3.5201,3.622,3.6497,3.724,3.8677,4.004,4.1369,4.2706,4.3454,4.4383,4.5361,4.3434,4.2881,4.5491,4.7272,4.8047,4.7614,4.7549,4.7797,4.8248,4.8315,4.8299,4.8411,4.843,4.8467,4.8586,4.8856,4.8905,4.8789,4.9198,4.9733,4.9981,4.9904,4.9924,5.0089,4.9505,4.8697,4.7831,4.6201,4.539,4.5916,4.5778,4.574,4.5806,4.5725,4.5633,4.5594,4.5594,4.5594,4.5594,4.5594,4.5594,4.5594,4.5594,4.5594,4.5594,4.5594,4.5594,4.5594,4.5594,4.5594,4.8712,4.7928,4.7081,4.6317,4.5629,4.5594,4.5594,4.5594,4.5594,4.5577,4.54,4.4843,4.4534,4.4447,4.3815,4.3488,4.3488,4.3488,4.3488,4.3488,4.3488,4.3488,4.3488,4.3488,4.3488,4.3488,4.347,4.3223,4.2836,4.2787,4.2193,4.1121,4.0478,4.0234,4.0146,4.0146,4.0438,4.1085,4.1102,4.0777,4.0146,4.0113,4.0371,4.0971,4.0286,4.0185,4.0612,4.0083,3.9337,3.8676,3.8532,3.8187,3.7652,3.8055,3.8439,3.8592,3.9212,4.0217,4.161,4.2992,4.4089,4.4934,4.5583,4.6297,4.7089,4.7322,4.7314,4.7446,4.7872,4.8248,4.8229,4.82,4.821,4.8316,4.8354,4.8439,4.8761,4.8837,4.8988,4.9356,4.9405,4.9423,4.9401,4.9753,5.019,5.0488,5.0483,5.0472,5.0492,4.995,4.9417,4.8856,4.717,4.6436,4.7221,4.6513,4.6263,4.6624,4.6144,4.5898,4.5879,4.5748,4.5633,4.6052,4.5802,4.5859,4.571,4.5594,4.5648,4.5594,4.5594,4.5594,4.5594,4.5594,4.5594,4.8894,4.8043,4.7235,4.6394,4.5648,4.5594,4.5594,4.5594,4.5594,4.5594,4.5513,4.4902,4.4593,4.4559,4.3839,4.3488,4.3488,4.3488,4.3488,4.3488,4.3488,4.3488,4.3488,4.3488,4.3488,4.3453,4.3187,4.2911,4.2706,4.2455,4.2093,4.1664,4.1452,4.1403,4.1403,4.1386,4.1555,4.183,4.1847,4.1707,4.1454,4.1403,4.1538,4.1779,4.1555,4.1521,4.1792,4.1555,4.1238,4.0913,4.0503,4.0128,3.983,4.002,4.0346,4.0799,4.1869,4.2926,4.3931,4.4902,4.5764,4.6495,4.7115,4.7637,4.7901,4.8172,4.8181,4.8025,4.8172,4.8315,4.8324,4.8315,4.8374,4.8595,4.8648,4.8813,4.9202,4.9257,4.9314,4.9515,4.9719,4.9813,4.9827,5.0159,5.0488,5.0673,5.0688,5.0688,5.0649,5.038,5.0207,5.0072,4.9207,4.8456,4.8279,4.7956,4.7629,4.7548,4.7336,4.7086,4.6932,4.609,4.5864,4.684,4.7028,4.6855,4.6471,4.6336,4.6278,4.5936,4.5614,4.5594,4.5594,4.5594,4.5594,4.8894,4.799,4.6985,4.6186,4.5614,4.5594,4.5594,4.5594,4.5594,4.5594,4.5541,4.4883,4.4593,4.4494,4.3831,4.3488,4.3488,4.3488,4.3488,4.3488,4.3488,4.3488,4.3488,4.3488,4.3488,4.341,4.2958,4.2645,4.2506,4.2062,4.1945,4.2134,4.2248,4.2303,4.2303,4.2303,4.2405,4.2591,4.2591,4.2709,4.2892,4.2943,4.2841,4.2625,4.2418,4.2388,4.2574,4.2401,4.2303,4.2273,4.1937,4.177,4.1784,4.2028,4.2505,4.3271,4.4402,4.5301,4.586,4.6477,4.7067,4.7596,4.8164,4.8458,4.843,4.8364,4.843,4.864,4.8631,4.8631,4.8467,4.8559,4.8753,4.9019,4.9059,4.9234,4.9596,4.9671,4.9719,4.9827,5.0104,5.0243,5.0195,5.0456,5.0678,5.0683,5.0688,5.0688,5.0688,5.0668,5.0668,5.0688,5.0649,5.0168,4.9086,4.8726,4.8822,4.8586,4.8259,4.7947,4.8101,4.6917,4.6398,4.7567,4.8259,4.8298,4.7471,4.7178,4.6947,4.6244,4.584,4.5729,4.5594,4.5594,4.5594,4.8894,4.7932,4.636,4.5706,4.5594,4.5594,4.5594,4.5594,4.5594,4.5594,4.5513,4.4883,4.4593,4.454,4.3831,4.3488,4.3488,4.3488,4.3488,4.3488,4.3488,4.3488,4.3488,4.3488,4.3488,4.3444,4.2949,4.2513,4.2131,4.1638,4.1615,4.2285,4.2414,4.2354,4.2418,4.2455,4.2692,4.3288,4.3355,4.369,4.4327,4.4429,4.4042,4.3423,4.2709,4.2723,4.3227,4.2689,4.2377,4.2347,4.2958,4.3232,4.3328,4.4389,4.5335,4.6088,4.6798,4.7219,4.7319,4.7799,4.8176,4.8288,4.8621,4.8871,4.8864,4.8623,4.8692,4.936,4.9401,4.9311,4.9013,4.9147,4.9363,4.9453,4.9475,4.9645,5.0037,5.0074,5.0279,5.0488,5.0575,5.0599,5.0638,5.0673,5.0688,5.0688,5.0688,5.0688,5.0688,5.0688,5.0688,5.0688,5.0688,5.0649,5.0457,4.9841,4.9322,4.9207,4.8933,4.8312,4.8139,4.8029,4.8125,4.8413,4.9413,4.949,4.849,4.787,4.7562,4.699,4.6321,4.6052,4.5975,4.571,4.5652,4.9476,4.8029,4.6913,4.6124,4.5614,4.5594,4.5594,4.5594,4.5594,4.5594,4.5471,4.4908,4.4593,4.4535,4.3812,4.3488,4.3488,4.3488,4.3488,4.3488,4.3488,4.3488,4.3488,4.3488,4.3488,4.3418,4.2949,4.2486,4.2214,4.2415,4.273,4.3034,4.3521,4.3785,4.3785,4.3772,4.3924,4.413,4.4164,4.433,4.4578,4.4584,4.4623,4.4704,4.4136,4.4058,4.4722,4.4478,4.4514,4.4908,4.5178,4.5286,4.5375,4.614,4.6935,4.7549,4.7838,4.7967,4.8027,4.8412,4.8684,4.8719,4.9062,4.9288,4.9246,4.9155,4.9195,4.9522,5.0025,5.0068,4.9734,4.9582,4.9603,4.9846,4.9898,5.0043,5.0364,5.0483,5.0549,5.0668,5.0688,5.0688,5.0688,5.0688,5.0688,5.0688,5.0688,5.0688,5.0688,5.0688,5.0688,5.0688,5.0688,5.0688,5.0688,5.0418,5.0135,5.013,4.9976,4.9837,4.9683,4.9548,4.9586,4.949,5.0438,5.0265,4.9106,4.8394,4.8101,4.7832,4.7144,4.6701,4.6528,4.6432,4.6129,4.9725,4.8489,4.7639,4.6797,4.6052,4.6013,4.5859,4.5633,4.5594,4.5594,4.5475,4.5,4.4695,4.4514,4.3927,4.3589,4.3496,4.3488,4.3488,4.3488,4.3488,4.3488,4.3488,4.3488,4.3488,4.3465,4.323,4.2988,4.2916,4.343,4.3732,4.3839,4.4347,4.4584,4.4584,4.4584,4.4584,4.4584,4.4584,4.4682,4.4838,4.4876,4.5196,4.5639,4.5502,4.5493,4.5778,4.5795,4.5965,4.6365,4.6714,4.7002,4.7219,4.7629,4.8002,4.8268,4.8402,4.8486,4.8522,4.8854,4.911,4.9108,4.946,4.9699,4.9706,4.9807,4.9885,5.0025,5.0325,5.0559,5.033,5.0056,5.0012,5.0249,5.0302,5.0399,5.0658,5.0683,5.0683,5.0683,5.0688,5.0688,5.0688,5.0688,5.0688,5.0688,5.0688,5.0688,5.0688,5.0688,5.0688,5.0688,5.0688,5.0688,5.0688,5.0553,5.0457,5.0495,5.0476,5.063,5.0688,5.0688,5.0688,5.0688,5.0572,5.0341,4.9841,4.9067,4.8721,4.8548,4.8029,4.749,4.737,4.7293,4.7009,4.9551,4.924,4.8466,4.7639,4.6947,4.6908,4.6413,4.5879,4.5763,4.584,4.5747,4.5337,4.5131,4.4654,4.4404,4.396,4.376,4.3763,4.3653,4.3506,4.3488,4.3543,4.3598,4.3635,4.3708,4.3747,4.3857,4.4089,4.427,4.436,4.4465,4.4543,4.4533,4.4584,4.4584,4.4637,4.4651,4.4692,4.4731,4.4998,4.5451,4.5541,4.586,4.6413,4.6748,4.6837,4.653,4.6512,4.6599,4.6707,4.7508,4.8274,4.8678,4.8819,4.8718,4.8513,4.871,4.888,4.8928,4.9291,4.9504,4.9554,4.9885,5.0117,5.0153,5.0399,5.0589,5.057,5.0624,5.0668,5.0663,5.0604,5.0599,5.0683,5.0624,5.0658,5.0678,5.0688,5.0688,5.0688,5.0688,5.0688,5.0688,5.0688,5.0688,5.0688,5.0688,5.0688,5.0688,5.0688,5.0688,5.0688,5.0688,5.0688,5.0688,5.0688,5.0688,5.0668,5.0649,5.0688,5.0688,5.0688,5.0688,5.0688,5.0688,5.0476,5.0438,4.9745,4.9548,4.9298,4.8759,4.8394,4.8221,4.812,4.7985,5.0073,4.9408,4.9106,4.8509,4.7774,4.7716,4.7548,4.7317,4.7317,4.7028,4.6598,4.6725,4.6307,4.5635,4.5604,4.5484,4.5176,4.5121,4.4571,4.3671,4.3524,4.3855,4.425,4.4333,4.4617,4.5105,4.538,4.529,4.5047,4.5105,4.4999,4.4655,4.4612,4.4584,4.4665,4.4984,4.5218,4.5271,4.5648,4.5952,4.6138,4.64,4.6844,4.7461,4.7884,4.8198,4.8505,4.8126,4.8126,4.8451,4.8831,4.9104,4.9269,4.9318,4.9268,4.9174,4.9226,4.9311,4.9363,4.9666,4.9898,4.9974,5.0277,5.0483,5.0504,5.0609,5.0688,5.0688,5.0688,5.0688,5.0688,5.0688,5.0688,5.0688,5.0688,5.0688,5.0688,5.0688,5.0688,5.0688,5.0688,5.0688,5.0688,5.0688,5.0688,5.0688,5.0688,5.0688,5.0688,5.0688,5.0688,5.0688,5.0688,5.0688,5.0688,5.0688,5.0688,5.0688,5.0688,5.0688,5.0688,5.0688,5.0688,5.0688,5.0688,5.0668,5.063,5.0495,5.0207,5.0207,4.9899,4.9529,4.9144,4.8952,4.8856,5.0575,4.9993,4.9898,4.9375,4.8606,4.8582,4.8394,4.8139,4.8101,4.7812,4.7472,4.7638,4.7225,4.6449,4.6565,4.6376,4.5938,4.5902,4.5351,4.4516,4.4406,4.4699,4.5104,4.5149,4.5562,4.6232,4.6458,4.6374,4.6036,4.6106,4.5913,4.5372,4.5284,4.528,4.5311,4.5635,4.5898,4.6074,4.6418,4.6809,4.7188,4.7466,4.7903,4.8514,4.8944,4.9347,4.9661,4.9478,4.9396,4.9528,4.9624,4.9719,4.9726,4.9726,4.9652,4.9547,4.965,4.9726,4.976,5.0092,5.0325,5.0369,5.0554,5.0683,5.0688,5.0688,5.0688,5.0688,5.0688,5.0688,5.0688,5.0688,5.0688,5.0688,5.0688,5.0688,5.0688,5.0688,5.0688,5.0688,5.0688,5.0688,5.0688,5.0688,5.0688,5.0688,5.0688,5.0688,5.0688,5.0688,5.0688,5.0688,5.0688,5.0688,5.0688,5.0688,5.0688,5.0688,5.0688,5.0688,5.0688,5.0688,5.0688,5.0688,5.0688,5.0688,5.0649,5.0668,5.0515,5.0668,5.0688,5.0341,4.988,4.988,4.9798,5.1033,5.0894,5.0751,5.0207,4.9495,4.9476,4.9029,4.8298,4.8235,4.8125,4.7962,4.8135,4.7769,4.7161,4.7281,4.7072,4.6237,4.6304,4.6296,4.6094,4.6012,4.6067,4.5993,4.6104,4.6535,4.7094,4.7185,4.7214,4.7129,4.7162,4.7073,4.6312,4.6216,4.6389,4.6348,4.6442,4.6726,4.7063,4.7174,4.7733,4.8523,4.8657,4.891,4.9477,4.984,5.0098,5.0159,5.032,5.0235,4.974,4.9968,5.0122,5.0141,5.0122,4.9968,4.9712,4.9949,5.0111,5.0225,5.0426,5.0648,5.0629,5.0663,5.0688,5.0688,5.0688,5.0688,5.0688,5.0688,5.0688,5.0688,5.0688,5.0688,5.0688,5.0688,5.0688,5.0688,5.0688,5.0688,5.0688,5.0688,5.0688,5.0688,5.0688,5.0688,5.0688,5.0688,5.0688,5.0688,5.0688,5.0688,5.0688,5.0688,5.0688,5.0688,5.0688,5.0688,5.0688,5.0688,5.0688,5.0688,5.0688,5.0688,5.0688,5.0688,5.0688,5.0688,5.0688,5.0688,5.0688,5.0688,5.0688,5.0611,5.0457,5.039,5.1067,5.0893,5.0871,5.066,5.0375,5.0361,4.988,4.9125,4.9048,4.837,4.7716,4.8548,4.8393,4.7584,4.8707,4.8858,4.816,4.8039,4.7922,4.7692,4.7654,4.7305,4.7049,4.7397,4.7728,4.7948,4.7892,4.7776,4.742,4.7438,4.7099,4.6413,4.6536,4.6626,4.6833,4.7368,4.7795,4.8207,4.8627,4.8899,4.922,4.9544,4.977,4.993,5.0325,5.0504,5.0544,5.0629,5.0629,5.0426,5.0453,5.0549,5.0504,5.0509,5.0437,5.0369,5.0432,5.0539,5.0549,5.0624,5.0683,5.0688,5.0688,5.0688,5.0688,5.0688,5.0688,5.0688,5.0688,5.0688,5.0688,5.0688,5.0688,5.0688,5.0688,5.0688,5.0688,5.0688,5.0688,5.0688,5.0688,5.0688,5.0688,5.0688,5.0688,5.0688,5.0688,5.0688,5.0688,5.0688,5.0688,5.0688,5.0688,5.0688,5.0688,5.0688,5.0688,5.0688,5.0688,5.0688,5.0688,5.0688,5.0688,5.0688,5.0688,5.0688,5.0688,5.0688,5.0688,5.0688,5.0688,5.0688,5.0688,5.0611,5.0596,5.1102,5.0975,5.0921,5.083,5.0702,5.0688,5.0418,4.9938,4.9529,4.8913,4.8317,4.8913,4.889,4.825,4.947,4.9741,4.9202,4.9166,4.9011,4.8836,4.8756,4.8334,4.7905,4.815,4.8315,4.8315,4.8315,4.8104,4.7838,4.7777,4.7622,4.7562,4.7451,4.7664,4.8108,4.8398,4.881,4.9209,4.9589,4.9832,5.0025,5.0212,5.0311,5.0369,5.0599,5.0688,5.0688,5.0688,5.0688,5.0683,5.0683,5.0688,5.0688,5.0688,5.0688,5.0688,5.0688,5.0683,5.0688,5.0688,5.0688,5.0688,5.0688,5.0688,5.0688,5.0688,5.0688,5.0688,5.0688,5.0688,5.0688,5.0688,5.0688,5.0688,5.0688,5.0688,5.0688,5.0688,5.0688,5.0688,5.0688,5.0688,5.0693,5.0693,5.0693,5.0688,5.0688,5.0688,5.0688,5.0693,5.0702,5.0735,5.0721,5.0721,5.0717,5.0702,5.0688,5.0688,5.0688,5.0688,5.0688,5.0688,5.0688,5.0688,5.0688,5.0688,5.0688,5.0688,5.0688,5.0688,5.0688,5.0688,5.0688,5.0721,5.0735,5.1171,5.1082,5.0956,5.0844,5.0735,5.0721,5.0572,5.0361,4.9707,4.9183,4.8952,4.9149,4.881,4.8678,4.9391,4.9778,4.9391,4.9478,4.9496,4.9416,4.9341,4.8976,4.8375,4.8366,4.8383,4.8325,4.8315,4.8277,4.823,4.826,4.8522,4.8601,4.8757,4.9121,4.9254,4.9492,4.9767,5.0011,5.0097,5.0283,5.0499,5.0604,5.0614,5.0624,5.0634,5.0688,5.0688,5.0688,5.0688,5.0688,5.0688,5.0688,5.0688,5.0688,5.0688,5.0688,5.0688,5.0688,5.0688,5.0688,5.0688,5.0688,5.0688,5.0688,5.0688,5.0688,5.0688,5.0688,5.0688,5.0688,5.0688,5.0688,5.0688,5.0688,5.0688,5.0688,5.0688,5.0688,5.0688,5.0688,5.0688,5.0693,5.0735,5.0726,5.0716,5.0847,5.0823,5.0831,5.0831,5.0844,5.0827,5.0803,5.0789,5.0747,5.0725,5.0721,5.0702,5.0688,5.0688,5.0688,5.0688,5.0688,5.0688,5.0688,5.0688,5.0688,5.0688,5.0688,5.0688,5.0688,5.0688,5.0688,5.0697,5.0757,5.0782,5.1271,5.1172,5.1086,5.0979,5.0836,5.0739,5.0322,4.9726,4.9514,4.8759,4.787,4.8139,4.8049,4.7525,4.8983,4.9341,4.9238,4.9638,4.9813,4.9504,4.9496,4.9241,4.8856,4.877,4.8595,4.8392,4.8315,4.8306,4.8354,4.8595,4.8803,4.8955,4.9269,4.9568,4.9898,4.9981,5.0171,5.0493,5.0554,5.057,5.0658,5.0688,5.0688,5.0688,5.0688,5.0688,5.0688,5.0688,5.0688,5.0688,5.0688,5.0688,5.0688,5.0688,5.0688,5.0688,5.0688,5.0688,5.0688,5.0688,5.0688,5.0688,5.0688,5.0688,5.0688,5.0688,5.0688,5.0688,5.0688,5.0688,5.0688,5.0688,5.0688,5.0688,5.0688,5.0693,5.0693,5.0693,5.0688,5.0688,5.0721,5.0773,5.0963,5.0901,5.0907,5.0985,5.1004,5.099,5.0994,5.0972,5.0946,5.0909,5.0909,5.0893,5.0832,5.0793,5.0735,5.0707,5.0688,5.0688,5.0688,5.0688,5.0688,5.0688,5.0688,5.0688,5.0688,5.0688,5.0688,5.0688,5.0693,5.0717,5.074,5.0795,5.087,5.134,5.1196,5.1124,5.1027,5.0894,5.0742,5.0438,4.9976,4.9567,4.8913,4.8317,4.8567,4.8452,4.8178,4.937,4.9901,4.9808,5.0139,5.0272,5.0098,5.0056,4.9753,4.9265,4.9116,4.8915,4.8411,4.8315,4.8383,4.8604,4.8803,4.9092,4.9453,4.9692,4.9987,5.033,5.0358,5.0464,5.0624,5.0688,5.0688,5.0688,5.0688,5.0688,5.0688,5.0688,5.0688,5.0688,5.0688,5.0688,5.0688,5.0688,5.0688,5.0688,5.0688,5.0688,5.0688,5.0688,5.0688,5.0688,5.0688,5.0688,5.0688,5.0688,5.0688,5.0688,5.0688,5.0688,5.0688,5.0688,5.0688,5.0688,5.0688,5.0688,5.0688,5.0693,5.0716,5.0775,5.0749,5.073,5.0748,5.0799,5.0919,5.1011,5.1028,5.1027,5.1053,5.1061,5.1066,5.105,5.1036,5.105,5.1042,5.1061,5.1036,5.0959,5.0885,5.0778,5.074,5.0688,5.0688,5.0688,5.0688,5.0688,5.0688,5.0688,5.0688,5.0688,5.0688,5.0688,5.0688,5.0707,5.0735,5.0778,5.0847,5.0959,5.1342,5.1229,5.1133,5.1042,5.0911,5.0756,5.0668,5.0558,4.9938,4.951,4.9399,4.9418,4.9125,4.9317,4.9938,5.0476,5.064,5.0635,5.057,5.0565,5.0554,5.0177,4.9726,4.9537,4.9249,4.8541,4.8467,4.8604,4.8812,4.9067,4.9489,4.9987,5.0152,5.0336,5.0614,5.0683,5.0668,5.0688,5.0688,5.0688,5.0688,5.0688,5.0688,5.0688,5.0688,5.0688,5.0688,5.0688,5.0688,5.0688,5.0688,5.0688,5.0688,5.0688,5.0688,5.0688,5.0688,5.0688,5.0688,5.0688,5.0688,5.0688,5.0688,5.0688,5.0688,5.0688,5.0688,5.0688,5.0688,5.0688,5.0688,5.0688,5.0712,5.073,5.074,5.0799,5.0886,5.083,5.0832,5.0857,5.0917,5.1034,5.112,5.1161,5.1128,5.1122,5.1131,5.1133,5.1105,5.1133,5.1152,5.1191,5.1211,5.1219,5.1161,5.0956,5.0836,5.0739,5.0693,5.0697,5.0693,5.0688,5.0688,5.0688,5.0688,5.0688,5.0688,5.0688,5.0688,5.0688,5.0717,5.0744,5.081,5.0893,5.1011,5.1386,5.1344,5.1179,5.1076,5.1033,5.0801,5.0688,5.0688,5.0495,5.0053,4.9476,4.9418,4.9067,4.8836,4.926,4.9995,5.0592,5.0688,5.0688,5.0688,5.0678,5.0375,5.0037,4.9911,4.9659,4.9307,4.9011,4.893,4.9131,4.9547,4.9879,5.0134,5.0416,5.0653,5.0673,5.0693,5.0721,5.0748,5.0739,5.0749,5.0749,5.0744,5.0725,5.074,5.0735,5.0726,5.0707,5.0697,5.0688,5.0688,5.0688,5.0688,5.0668,5.0668,5.063,5.0688,5.0688,5.0688,5.0688,5.0688,5.0688,5.0688,5.0688,5.0688,5.0688,5.0688,5.0688,5.0688,5.0688,5.0688,5.0688,5.0688,5.0761,5.0822,5.0871,5.0926,5.1002,5.1028,5.0974,5.0975,5.1037,5.1129,5.1216,5.1254,5.1236,5.1233,5.1245,5.1218,5.1205,5.125,5.1308,5.1348,5.1364,5.1364,5.1343,5.1081,5.09,5.0764,5.0712,5.0721,5.0712,5.0693,5.0693,5.0716,5.0712,5.0688,5.0688,5.0688,5.0688,5.0688,5.0731,5.0748,5.0875,5.0987,5.1086,5.1365,5.1271,5.1145,5.107,5.0982,5.0791,5.0688,5.0688,5.0688,5.0462,5.0168,5.0053,4.9861,4.9649,4.9822,5.0341,5.0592,5.0688,5.0688,5.0688,5.0673,5.0488,5.0153,5.0123,4.9859,4.9603,4.9475,4.9499,4.9547,4.9885,5.0224,5.0421,5.0619,5.073,5.0795,5.081,5.0844,5.0875,5.0908,5.0908,5.0912,5.0912,5.0893,5.0897,5.0851,5.0801,5.0795,5.0712,5.0693,5.0688,5.0688,5.0688,5.0572,5.0341,5.0226,5.0534,5.063,5.0668,5.0688,5.0688,5.0688,5.0688,5.0688,5.0688,5.0688,5.0688,5.0688,5.0688,5.0688,5.0688,5.0688,5.0693,5.077,5.0875,5.0923,5.0993,5.1111,5.1154,5.114,5.1115,5.1133,5.1216,5.1316,5.1343,5.1319,5.1322,5.1346,5.1323,5.1273,5.1328,5.1387,5.1387,5.1387,5.1387,5.1387,5.1219,5.0972,5.0828,5.0775,5.0779,5.0766,5.076,5.0776,5.0807,5.0767,5.0726,5.0712,5.0717,5.0693,5.0702,5.0776,5.0852,5.0972,5.1079,5.1167,5.1343,5.1234,5.1154,5.1025,5.0921,5.077,5.0688,5.0688,5.0688,5.0688,5.0688,5.0668,5.0649,5.0668,5.0649,5.0688,5.0688,5.0688,5.0688,5.0688,5.0688,5.0499,5.0319,5.0183,5.0104,4.9987,5.0087,5.0206,5.0099,5.0262,5.0465,5.0689,5.0771,5.0811,5.0921,5.0945,5.1027,5.1053,5.1091,5.1091,5.1091,5.1091,5.1091,5.1089,5.0994,5.0912,5.0879,5.0805,5.0735,5.0712,5.0668,5.0611,5.0361,4.9784,4.9668,5.0072,5.0168,5.0245,5.0399,5.038,5.0399,5.0649,5.0688,5.0688,5.0688,5.0688,5.0688,5.0688,5.0688,5.0688,5.0697,5.0726,5.0814,5.0918,5.0975,5.1039,5.1177,5.1261,5.131,5.1289,5.1269,5.1289,5.1367,5.1386,5.1344,5.1297,5.1323,5.1322,5.1296,5.1345,5.1387,5.1387,5.1387,5.1387,5.1387,5.1348,5.1109,5.0919,5.0905,5.0912,5.0879,5.0852,5.0867,5.0889,5.0831,5.0801,5.0758,5.0731,5.073,5.0778,5.0847,5.0942,5.1069,5.1142,5.1214,5.1387,5.1345,5.1142,5.1081,5.1003,5.0752,5.0697,5.0702,5.0697,5.0688,5.0702,5.0702,5.0712,5.0717,5.0712,5.0702,5.0688,5.0688,5.0688,5.0688,5.0688,5.0668,5.0614,5.0624,5.0531,5.0436,5.0641,5.0582,5.0493,5.0632,5.0834,5.1,5.1013,5.105,5.1041,5.1069,5.1076,5.1096,5.1106,5.1108,5.1113,5.1117,5.112,5.1108,5.1021,5.0986,5.0885,5.0793,5.0702,5.0712,5.0697,5.0308,4.9707,4.9495,4.8971,4.8644,4.849,4.8735,4.9356,4.9663,4.9957,5.0423,5.0649,5.0673,5.0721,5.073,5.073,5.0688,5.0693,5.0717,5.0744,5.0805,5.0928,5.1017,5.1092,5.1183,5.1308,5.1308,5.1367,5.1367,5.1328,5.1348,5.1387,5.1387,5.1366,5.1322,5.1296,5.1296,5.1292,5.1318,5.1339,5.1328,5.1348,5.1348,5.1328,5.1289,5.118,5.0984,5.099,5.101,5.0943,5.0921,5.0956,5.095,5.0901,5.0851,5.0835,5.0801,5.0791,5.0847,5.092,5.1028,5.1151,5.1209,5.1269,4.9939,4.9864,4.9792,4.9979,5.0305,5.0147,5.0357,5.0726,5.075,5.0753,5.0797,5.0814,5.0814,5.0814,5.0814,5.0775,5.0697,5.0688,5.0688,5.0688,5.0688,5.0688,5.0683,5.0702,5.0716,5.081,5.0867,5.0904,5.0852,5.0896,5.1064,5.1089,5.1103,5.1129,5.1142,5.1149,5.1202,5.1263,5.1273,5.1272,5.1271,5.1269,5.1269,5.1248,5.0782,5.0753,5.0885,5.0397,5.0476,5.063,5.0752,5.0192,4.9264,4.8552,4.7783,4.6802,4.6687,4.7317,4.8452,4.9077,4.9605,5.0032,5.0443,5.0819,5.0835,5.0824,5.0866,5.0987,5.0786,5.0743,5.0804,5.0871,5.0959,5.1062,5.1163,5.1264,5.1348,5.1367,5.1387,5.1387,5.1387,5.1387,5.1387,5.1387,5.1387,5.1367,5.1328,5.132,5.1257,5.1217,5.1216,5.1211,5.125,5.1289,5.125,5.1216,5.1156,5.1031,5.1066,5.1047,5.0988,5.0969,5.1025,5.1011,5.0943,5.0916,5.09,5.0827,5.0751,5.0855,5.0983,5.1113,5.1205,5.1295,5.1348,4.8179,4.8136,4.8531,4.9016,4.9502,4.94,4.9818,5.0547,5.0503,5.0635,5.0905,5.0956,5.0936,5.0939,5.09,5.0835,5.0752,5.0702,5.0693,5.0688,5.0688,5.0688,5.0717,5.0745,5.0805,5.0919,5.0971,5.1018,5.1122,5.1171,5.117,5.1177,5.1205,5.1223,5.1232,5.1245,5.1289,5.1367,5.1367,5.1367,5.1387,5.1387,5.1387,5.1133,5.0693,5.0416,5.0912,5.0259,5.0125,5.0302,5.0346,4.9673,4.8476,4.7687,4.6932,4.6157,4.5939,4.6499,4.7685,4.8553,4.9234,4.9869,5.0314,5.0953,5.0937,5.0933,5.0957,5.1105,5.1008,5.09,5.0885,5.094,5.1014,5.1118,5.1198,5.1289,5.1367,5.1387,5.1387,5.1387,5.1387,5.1387,5.1387,5.1387,5.1387,5.1387,5.1367,5.1328,5.1261,5.1179,5.121,5.1224,5.1245,5.1281,5.1195,5.1158,5.1079,5.1094,5.1124,5.1116,5.1077,5.1096,5.1185,5.1123,5.1009,5.0971,5.0953,5.0836,5.0748,5.0916,5.1072,5.1159,5.1261,5.1344,5.1387,4.6465,4.6601,4.8058,4.8661,4.8765,4.8643,4.9077,4.9841,4.9842,5.0287,5.0921,5.1045,5.0996,5.1055,5.0991,5.0925,5.0882,5.0757,5.0725,5.0721,5.0693,5.0726,5.0784,5.0844,5.09,5.0946,5.104,5.1146,5.1213,5.1296,5.1341,5.1387,5.1328,5.1367,5.1367,5.1348,5.1348,5.1387,5.1387,5.1387,5.1387,5.1387,5.1387,5.1211,5.0703,5.0482,5.1088,5.0062,4.9565,4.9665,4.9481,4.8863,4.764,4.7041,4.6402,4.5981,4.5783,4.6358,4.7299,4.8206,4.9262,5.0289,5.0806,5.0838,5.1085,5.0961,5.0992,5.1048,5.1001,5.0979,5.0983,5.1042,5.1111,5.1147,5.123,5.1328,5.1387,5.1387,5.1387,5.1387,5.1387,5.1387,5.1387,5.1387,5.1387,5.1387,5.1328,5.1298,5.1318,5.1254,5.1285,5.1313,5.1316,5.1283,5.1174,5.1137,5.115,5.1163,5.1177,5.1196,5.1181,5.1235,5.1291,5.1201,5.1072,5.1047,5.1022,5.0928,5.0893,5.1031,5.1148,5.1234,5.1267,5.1304,5.1344,4.6289,4.6367,4.6988,4.7532,4.8017,4.7867,4.8319,4.9012,4.9052,4.9534,5.0456,5.0518,5.079,5.1059,5.1125,5.1069,5.0999,5.0867,5.0882,5.0894,5.0879,5.0879,5.0935,5.0975,5.1039,5.1075,5.1184,5.1265,5.1322,5.1367,5.1387,5.1387,5.1387,5.1387,5.1387,5.1387,5.1387,5.1387,5.1387,5.1387,5.1387,5.1387,5.1387,5.1328,4.9961,4.9922,5.0203,4.8941,4.8696,4.8653,4.84,4.7694,4.7001,4.6557,4.6187,4.59,4.5883,4.635,4.7163,4.8032,4.923,5.0356,5.0359,5.0079,5.0957,5.1191,5.0898,5.0873,5.0957,5.0898,5.0508,5.0852,5.119,5.1213,5.1269,5.1367,5.1387,5.1387,5.1387,5.1387,5.1387,5.1387,5.1387,5.1387,5.1387,5.1387,5.1328,5.1273,5.1296,5.1293,5.1315,5.1292,5.1292,5.1292,5.1202,5.1214,5.125,5.1245,5.1247,5.1254,5.1263,5.132,5.1342,5.1229,5.1159,5.1117,5.1074,5.1022,5.1034,5.1128,5.1202,5.1306,5.1303,5.1254,5.1281,4.6289,4.6289,4.6289,4.666,4.7168,4.7116,4.7572,4.825,4.8289,4.8952,5.0056,5.0193,5.0603,5.1093,5.1204,5.1177,5.1109,5.1028,5.1042,5.103,5.1016,5.103,5.1076,5.1135,5.114,5.1201,5.1265,5.1321,5.1367,5.1387,5.1387,5.1387,5.1387,5.1387,5.1387,5.1387,5.1387,5.1387,5.1387,5.1387,5.1387,5.1387,5.1387,5.1152,4.9824,4.9531,4.9531,4.8622,4.7741,4.7772,4.7603,4.7055,4.6582,4.6193,4.5919,4.5923,4.6066,4.6405,4.7281,4.8442,4.9348,5.002,4.9953,4.9931,5.041,5.1035,5.1055,5.0371,5.0547,5.0543,5.0101,5.0964,5.1234,5.123,5.1308,5.1387,5.1387,5.1387,5.1387,5.1387,5.1387,5.1387,5.1387,5.1387,5.1387,5.1387,5.1367,5.1328,5.1341,5.1316,5.1283,5.1256,5.1223,5.1243,5.1238,5.1269,5.1308,5.1315,5.1316,5.1313,5.132,5.1367,5.1387,5.1318,5.125,5.1193,5.1154,5.1114,5.1129,5.1162,5.1224,5.1255,5.1222,5.1186,5.1142,4.6289,4.6289,4.6289,4.6328,4.6426,4.6348,4.6855,4.7558,4.7598,4.8457,4.9785,4.9961,5.0508,5.1074,5.1073,5.1094,5.119,5.1128,5.1113,5.1129,5.1115,5.1101,5.1152,5.1189,5.1227,5.1236,5.1289,5.1367,5.1387,5.1387,5.1387,5.1387,5.1387,5.1387,5.1387,5.1387,5.1387,5.1387,5.1387,5.1387,5.1387,5.1308,5.1211,5.082,4.9551,4.9082,4.9043,4.7969,4.7161,4.7072,4.6975,4.6526,4.6048,4.5935,4.5896,4.6075,4.6085,4.6559,4.7497,4.9017,4.9414,4.9297,4.9277,4.9512,4.9492,5.0039,5.0762,4.9766,4.9668,4.9961,5.0496,5.1172,5.1113,5.1289,5.1367,5.1387,5.1387,5.1387,5.1387,5.1387,5.1387,5.1387,5.1387,5.1387,5.1387,5.1387,5.1387,5.1387,5.1367,5.1348,5.1308,5.1289,5.1269,5.1289,5.1308,5.1348,5.1387,5.1387,5.1387,5.1367,5.1348,5.1387,5.1387,5.1367,5.1319,5.1256,5.1245,5.1234,5.1163,5.109,5.1133,5.1148,5.1122,5.1076,5.1031,4.6289,4.6289,4.6289,4.6289,4.6289,4.6289,4.6484,4.6719,4.6816,4.7402,4.8301,4.8476,4.9336,5.0176,5.0664,5.082,5.1219,5.1204,5.1196,5.1278,5.1227,5.1244,5.1289,5.1308,5.1308,5.1328,5.1387,5.1387,5.1387,5.1387,5.1387,5.1387,5.1387,5.1387,5.1387,5.1387,5.1387,5.1387,5.1387,5.1387,5.1348,5.0957,5.0644,5.0586,4.9004,4.834,4.8555,4.7207,4.6585,4.6444,4.6309,4.6103,4.5881,4.5876,4.5986,4.6172,4.623,4.6325,4.6914,4.777,4.8552,4.8633,4.8652,4.875,4.8906,4.8105,4.8496,4.9238,4.9316,4.9707,5.0252,5.0508,5.0644,5.123,5.1387,5.1387,5.1387,5.1387,5.1387,5.1387,5.1387,5.1387,5.1367,5.1387,5.1387,5.1387,5.1387,5.1387,5.1387,5.1387,5.1367,5.1367,5.1367,5.1367,5.1387,5.1387,5.1387,5.1387,5.1387,5.1387,5.1387,5.1387,5.1387,5.1387,5.1348,5.1321,5.1286,5.1211,5.1052,5.0968,5.0987,5.1,5.0984,5.0921,5.0859,4.6289,4.6289,4.6289,4.6289,4.6289,4.6289,4.6289,4.6289,4.6328,4.6797,4.75,4.7656,4.8398,4.9531,5.0117,5.0371,5.0996,5.1223,5.1293,5.1386,5.132,5.1321,5.1367,5.1348,5.1367,5.1367,5.1367,5.1387,5.1387,5.1387,5.1387,5.1387,5.1387,5.1387,5.1387,5.1387,5.1387,5.1387,5.1387,5.1387,5.1172,5.0762,5.0254,4.9785,4.8769,4.7656,4.7305,4.6699,4.5993,4.5909,4.5858,4.5859,4.5923,4.5993,4.6082,4.623,4.6289,4.6289,4.6562,4.7207,4.7832,4.7773,4.7617,4.7734,4.7871,4.7148,4.7754,4.8476,4.916,4.9863,5.0351,5.0449,5.0391,5.0976,5.1035,5.1016,5.1191,5.1191,5.0898,5.0937,5.1113,5.1172,5.125,5.1387,5.1387,5.1387,5.1387,5.1367,5.1348,5.1387,5.1387,5.1387,5.1387,5.1387,5.1387,5.1387,5.1387,5.1387,5.1387,5.1387,5.1387,5.1387,5.1387,5.1387,5.1367,5.1348,5.1273,5.118,5.0993,5.0868,5.0828,5.0835,5.0835,5.0808,5.0748,4.625,4.625,4.6289,4.6289,4.6289,4.6289,4.6289,4.6289,4.6289,4.6758,4.75,4.7461,4.7988,4.8848,4.9668,5.0019,5.0195,5.0801,5.0957,5.1074,5.084,5.1016,5.1035,5.1016,5.084,5.1074,5.1113,5.0859,5.125,5.1387,5.1387,5.125,5.1152,5.1035,5.0976,5.0898,5.1055,5.125,5.1172,5.1133,5.0918,5.0273,4.9746,4.9141,4.8223,4.7395,4.6942,4.6423,4.6041,4.5896,4.5869,4.5944,4.6018,4.6105,4.6196,4.625,4.6289,4.6289,4.6406,4.709,4.7051,4.6953,4.7168,4.6953,4.6719,4.6543,4.7207,4.8418,4.9473,5.0312,5.0976,5.0508,5.0078,5.0273,5.0351,5.0527,5.082,5.0683,5.0273,5.0254,5.0508,5.0625,5.0723,5.0879,5.0586,5.0742,5.0742,5.1016,5.1074,5.1367,5.1387,5.1387,5.1387,5.1387,5.1387,5.1387,5.1387,5.1387,5.1387,5.1387,5.1387,5.1387,5.1387,5.1387,5.1387,5.1338,5.1185,5.1049,5.0907,5.0808,5.0753,5.074,5.077,5.0743,5.0712,4.5391,4.5449,4.6035,4.6289,4.6289,4.6289,4.6289,4.6289,4.6289,4.6484,4.668,4.668,4.7226,4.7969,4.8242,4.875,4.916,4.9473,4.9551,4.9687,4.9902,4.9707,4.9687,4.9766,4.9668,4.9687,4.9785,5.0098,5.0566,5.0957,5.0918,5.0625,5.0547,5.0234,4.9922,4.9668,5.0391,5.084,5.0723,5.0586,5.0117,4.9277,4.8808,4.8164,4.7393,4.6731,4.6411,4.6258,4.6006,4.5923,4.5969,4.6067,4.6094,4.6112,4.6152,4.6269,4.6289,4.6308,4.6348,4.6543,4.6582,4.6387,4.6621,4.6543,4.6348,4.6445,4.6855,4.8125,4.8926,4.9453,4.9746,4.9492,4.9394,4.957,4.957,4.9609,4.9844,4.9707,4.9355,4.9375,4.9629,4.9863,4.998,4.9531,4.9336,4.9668,5.0019,5.0351,5.0801,5.1094,5.1367,5.1387,5.1387,5.1387,5.1387,5.1387,5.1387,5.1387,5.1387,5.1387,5.1387,5.1387,5.1387,5.1367,5.1308,5.1175,5.0997,5.0882,5.0833,5.0761,5.0712,5.0697,5.0688,5.0688,5.0688,4.4473,4.4609,4.543,4.5976,4.6269,4.6289,4.6289,4.6289,4.6289,4.6289,4.6289,4.6328,4.6601,4.709,4.75,4.7949,4.8379,4.8867,4.9062,4.9062,4.8789,4.9004,4.8926,4.8828,4.9004,4.8887,4.8926,4.9316,4.9746,5.0019,5.0039,4.9746,4.9687,4.9375,4.9121,4.9141,4.9473,4.9863,4.9961,4.9746,4.9121,4.834,4.7812,4.7318,4.6553,4.6165,4.602,4.6038,4.5995,4.598,4.6061,4.612,4.6168,4.6177,4.6199,4.6289,4.6289,4.6289,4.6308,4.6308,4.6308,4.6289,4.6289,4.6308,4.6328,4.6367,4.6894,4.7676,4.7832,4.8027,4.8164,4.8301,4.8574,4.8848,4.8711,4.8594,4.8594,4.8574,4.8516,4.8496,4.8672,4.8926,4.8769,4.8262,4.8281,4.8984,4.9375,4.9531,5.0156,5.082,5.1191,5.1387,5.1387,5.1387,5.1387,5.1387,5.1387,5.1387,5.1387,5.1387,5.1387,5.1387,5.1367,5.1289,5.1172,5.1049,5.0905,5.0847,5.0784,5.0716,5.0688,5.0688,5.0688,5.0688,5.0688,4.3594,4.3672,4.4531,4.5371,4.6133,4.6133,4.6191,4.6289,4.6289,4.6289,4.6289,4.6289,4.6348,4.6601,4.7031,4.7324,4.7637,4.8027,4.8223,4.8652,4.832,4.8281,4.834,4.8633,4.8203,4.8496,4.8613,4.8359,4.873,4.9082,4.9258,4.8828,4.8789,4.8574,4.832,4.8262,4.8418,4.8476,4.8613,4.8535,4.8516,4.8008,4.7438,4.7165,4.6579,4.605,4.5974,4.594,4.5958,4.6049,4.6122,4.6178,4.6246,4.6269,4.6289,4.6289,4.6289,4.6289,4.6289,4.6289,4.6289,4.6289,4.6289,4.6289,4.6289,4.6289,4.6758,4.6973,4.7168,4.7344,4.75,4.75,4.7656,4.7793,4.7754,4.7734,4.7773,4.7695,4.7558,4.75,4.7461,4.7715,4.791,4.7461,4.7305,4.8203,4.8711,4.8769,4.9219,5.0078,5.0625,5.1016,5.1055,5.1055,5.1387,5.1387,5.1387,5.1387,5.1387,5.1387,5.1387,5.1367,5.1328,5.119,5.1036,5.0969,5.0867,5.0804,5.0749,5.0726,5.0688,5.0688,5.0688,5.0688,5.0688,4.2715,4.2793,4.3652,4.4512,4.5254,4.5312,4.5703,4.6289,4.6289,4.6269,4.6289,4.6289,4.6289,4.6387,4.6543,4.6738,4.6816,4.709,4.6933,4.707,4.7109,4.7305,4.7051,4.7246,4.7109,4.6914,4.6992,4.7422,4.7891,4.834,4.8476,4.7969,4.7891,4.7715,4.7207,4.7168,4.7187,4.7266,4.7246,4.7519,4.7754,4.7168,4.6562,4.6495,4.6152,4.6088,4.6038,4.6063,4.6072,4.611,4.6221,4.6268,4.6289,4.6289,4.6289,4.6289,4.6289,4.6289,4.6289,4.6289,4.6289,4.6289,4.6289,4.6289,4.6289,4.6289,4.6348,4.6465,4.6601,4.6758,4.6855,4.6797,4.6758,4.6816,4.6875,4.6953,4.7051,4.6875,4.668,4.6562,4.6406,4.6582,4.6855,4.6855,4.668,4.7012,4.7637,4.7949,4.8144,4.8769,4.9531,4.9961,5.0351,5.0547,5.0976,5.1269,5.1211,5.1348,5.1387,5.1387,5.1387,5.1348,5.1288,5.1059,5.089,5.0875,5.0823,5.0743,5.0697,5.0688,5.0688,5.0688,5.0688,5.0688,5.0688,4.1875,4.1973,4.2773,4.3633,4.4316,4.4433,4.4902,4.5625,4.5723,4.5937,4.6269,4.6289,4.6289,4.6289,4.6289,4.6289,4.6289,4.6308,4.6465,4.6367,4.6289,4.6387,4.6289,4.6289,4.6426,4.6308,4.6328,4.668,4.7148,4.7305,4.7324,4.7109,4.7012,4.6816,4.6289,4.6289,4.6289,4.6348,4.6289,4.6601,4.707,4.6582,4.6267,4.6201,4.6147,4.6107,4.6108,4.6112,4.6145,4.6194,4.6268,4.6289,4.6289,4.6289,4.6289,4.6289,4.6289,4.6289,4.6289,4.6289,4.6289,4.6289,4.6289,4.6289,4.6289,4.6289,4.6289,4.6387,4.6387,4.6543,4.6543,4.6484,4.6484,4.6523,4.6543,4.6582,4.6601,4.6543,4.6445,4.6426,4.6328,4.6367,4.6562,4.6562,4.6426,4.6445,4.6973,4.707,4.7305,4.7578,4.8301,4.8867,4.9219,4.9785,5.0273,5.0664,5.0937,5.1094,5.1387,5.1387,5.1387,5.1328,5.1223,5.1003,5.0879,5.0844,5.0808,5.0712,5.0688,5.0688,5.0688,5.0688,5.0688,5.0688,5.0688,4.123,4.1328,4.1953,4.2754,4.3457,4.3535,4.4043,4.4746,4.4863,4.5312,4.5996,4.6055,4.6152,4.6289,4.6289,4.6289,4.6289,4.6289,4.6289,4.6289,4.6289,4.6289,4.6289,4.6289,4.6289,4.6289,4.6308,4.6308,4.6484,4.6621,4.6621,4.6348,4.6289,4.6289,4.6289,4.6289,4.6289,4.6289,4.6289,4.6289,4.6328,4.6289,4.622,4.6143,4.6062,4.6082,4.6104,4.6136,4.6194,4.625,4.6289,4.6289,4.6289,4.6289,4.6289,4.6289,4.6289,4.6289,4.6289,4.6289,4.6289,4.6289,4.6289,4.6289,4.6289,4.6289,4.6289,4.6289,4.6289,4.6289,4.6289,4.6289,4.6289,4.6289,4.6289,4.6289,4.6289,4.6289,4.6289,4.6289,4.6289,4.6289,4.6289,4.6289,4.6289,4.6289,4.6289,4.6289,4.6426,4.6758,4.7266,4.7676,4.7969,4.8613,4.9551,5.0078,5.0508,5.1094,5.1367,5.1387,5.1366,5.1297,5.1187,5.0986,5.0891,5.0844,5.0786,5.0707,5.0688,5.0688,5.0688,5.0688,5.0688,5.0688,5.0688,4.1191,4.1211,4.1387,4.1914,4.2578,4.2637,4.3144,4.3867,4.3965,4.4453,4.5117,4.5332,4.5566,4.6289,4.6289,4.6289,4.6289,4.6289,4.6289,4.6289,4.6289,4.6289,4.6289,4.6289,4.6289,4.6289,4.6289,4.6289,4.6289,4.6289,4.6289,4.6289,4.6289,4.6289,4.6289,4.6289,4.6289,4.6289,4.6289,4.6289,4.625,4.6224,4.6145,4.6075,4.5972,4.6033,4.6071,4.6107,4.6196,4.625,4.6289,4.6289,4.6289,4.6289,4.6289,4.6289,4.6289,4.6289,4.6289,4.6289,4.6289,4.6289,4.6289,4.6289,4.6289,4.6289,4.6289,4.6289,4.6289,4.6289,4.6289,4.6289,4.6289,4.6289,4.6289,4.6289,4.6289,4.6289,4.6289,4.6289,4.6289,4.6289,4.6289,4.6289,4.6289,4.6289,4.6289,4.6289,4.6289,4.6348,4.6387,4.666,4.6973,4.8086,4.9277,4.9687,5.0156,5.082,5.1324,5.1344,5.1322,5.1269,5.1136,5.0957,5.0888,5.084,5.0773,5.0688,5.0688,5.0688,5.0688,5.0688,5.0688,5.0688,5.0688]}]]